GFSWCAN_prec_pwat_105.txt.gz
Precipitable_Water
0.45 0.44 0.44 0.45 0.45 0.44 0.40 0.36 0.37 0.41 0.40 0.38 0.41 0.43 0.44 0.42 0.45 0.46 0.39 0.45 0.36 0.27 0.26 0.30 0.31 0.27 0.27 0.26 0.21 0.26 0.25 0.29 0.28 0.24 0.25 0.25 0.22 0.23 0.22 0.25 0.26 0.25 0.20 0.14 0.17 0.16 0.11 0.28 0.33 0.24 0.40 0.49 0.50 0.49
0.43 0.43 0.44 0.43 0.45 0.47 0.43 0.40 0.36 0.36 0.38 0.37 0.42 0.42 0.43 0.44 0.45 0.48 0.37 0.46 0.47 0.34 0.27 0.35 0.36 0.38 0.35 0.33 0.28 0.29 0.26 0.27 0.32 0.27 0.28 0.28 0.23 0.27 0.26 0.19 0.34 0.25 0.29 0.20 0.15 0.14 0.21 0.32 0.38 0.47 0.49 0.45 0.48 0.47
0.44 0.43 0.46 0.47 0.46 0.46 0.45 0.42 0.39 0.36 0.36 0.39 0.42 0.42 0.46 0.45 0.45 0.46 0.42 0.47 0.44 0.33 0.29 0.30 0.26 0.30 0.37 0.36 0.40 0.27 0.28 0.32 0.32 0.40 0.31 0.28 0.26 0.30 0.25 0.26 0.31 0.36 0.41 0.31 0.22 0.21 0.26 0.38 0.44 0.51 0.52 0.51 0.56 0.57
0.45 0.42 0.41 0.41 0.42 0.45 0.45 0.44 0.40 0.37 0.36 0.39 0.41 0.44 0.46 0.45 0.44 0.47 0.43 0.47 0.43 0.36 0.26 0.26 0.36 0.31 0.36 0.36 0.35 0.33 0.29 0.36 0.37 0.36 0.29 0.26 0.25 0.31 0.28 0.33 0.32 0.38 0.42 0.37 0.31 0.38 0.35 0.44 0.51 0.53 0.56 0.61 0.57 0.57
0.44 0.37 0.36 0.36 0.36 0.40 0.49 0.44 0.41 0.38 0.35 0.38 0.40 0.46 0.46 0.45 0.45 0.47 0.49 0.49 0.50 0.37 0.27 0.28 0.37 0.36 0.40 0.40 0.33 0.35 0.31 0.30 0.30 0.29 0.28 0.26 0.32 0.30 0.34 0.37 0.33 0.41 0.39 0.35 0.34 0.47 0.48 0.50 0.54 0.57 0.56 0.56 0.57 0.53
0.40 0.38 0.38 0.38 0.38 0.40 0.44 0.44 0.41 0.36 0.34 0.36 0.43 0.48 0.47 0.47 0.47 0.47 0.37 0.49 0.53 0.50 0.34 0.24 0.34 0.35 0.39 0.41 0.33 0.34 0.35 0.34 0.33 0.31 0.29 0.34 0.38 0.34 0.28 0.27 0.38 0.42 0.52 0.51 0.45 0.54 0.53 0.57 0.61 0.59 0.56 0.57 0.57 0.54
0.40 0.38 0.38 0.40 0.43 0.43 0.44 0.42 0.39 0.33 0.36 0.43 0.48 0.50 0.53 0.54 0.51 0.40 0.36 0.49 0.57 0.54 0.36 0.27 0.24 0.31 0.35 0.33 0.35 0.35 0.38 0.35 0.31 0.30 0.29 0.30 0.31 0.32 0.29 0.24 0.35 0.46 0.51 0.52 0.54 0.55 0.51 0.55 0.53 0.60 0.60 0.58 0.56 0.52
0.37 0.35 0.37 0.43 0.42 0.42 0.40 0.38 0.35 0.34 0.43 0.48 0.52 0.53 0.55 0.57 0.56 0.45 0.49 0.59 0.63 0.46 0.40 0.25 0.24 0.27 0.41 0.33 0.30 0.39 0.32 0.35 0.31 0.28 0.32 0.29 0.30 0.29 0.25 0.33 0.38 0.44 0.45 0.48 0.48 0.50 0.52 0.53 0.52 0.52 0.52 0.50 0.47 0.45
0.35 0.35 0.38 0.40 0.39 0.39 0.36 0.34 0.37 0.45 0.51 0.54 0.56 0.57 0.56 0.50 0.43 0.42 0.55 0.59 0.61 0.47 0.30 0.28 0.21 0.20 0.39 0.35 0.37 0.39 0.36 0.25 0.34 0.29 0.30 0.31 0.27 0.23 0.29 0.33 0.34 0.40 0.41 0.42 0.46 0.49 0.48 0.45 0.45 0.45 0.45 0.43 0.42 0.41
0.32 0.32 0.33 0.33 0.34 0.37 0.39 0.44 0.50 0.54 0.57 0.58 0.54 0.44 0.36 0.43 0.57 0.57 0.50 0.41 0.41 0.41 0.38 0.27 0.31 0.24 0.35 0.35 0.33 0.33 0.36 0.26 0.22 0.27 0.33 0.27 0.24 0.30 0.32 0.34 0.36 0.38 0.40 0.42 0.39 0.37 0.38 0.39 0.39 0.39 0.39 0.41 0.41 0.40
0.32 0.33 0.34 0.35 0.36 0.37 0.46 0.53 0.57 0.58 0.58 0.49 0.41 0.38 0.49 0.58 0.49 0.42 0.33 0.31 0.32 0.26 0.30 0.30 0.30 0.26 0.41 0.31 0.31 0.37 0.30 0.29 0.19 0.21 0.21 0.21 0.20 0.24 0.31 0.32 0.36 0.38 0.39 0.39 0.39 0.39 0.40 0.38 0.37 0.37 0.37 0.38 0.38 0.39
0.34 0.37 0.39 0.42 0.47 0.53 0.56 0.58 0.59 0.55 0.51 0.49 0.47 0.54 0.53 0.41 0.36 0.30 0.27 0.31 0.27 0.22 0.27 0.25 0.28 0.33 0.38 0.45 0.35 0.36 0.29 0.31 0.22 0.34 0.25 0.19 0.22 0.29 0.31 0.32 0.35 0.37 0.39 0.38 0.38 0.37 0.36 0.36 0.36 0.35 0.35 0.36 0.37 0.38
0.50 0.51 0.53 0.55 0.57 0.58 0.59 0.60 0.62 0.61 0.59 0.53 0.45 0.38 0.34 0.32 0.25 0.22 0.19 0.24 0.22 0.26 0.30 0.31 0.29 0.34 0.38 0.41 0.36 0.34 0.28 0.27 0.38 0.28 0.24 0.26 0.31 0.32 0.33 0.33 0.33 0.36 0.37 0.35 0.34 0.33 0.33 0.33 0.33 0.33 0.32 0.34 0.35 0.35
0.56 0.57 0.58 0.59 0.60 0.62 0.64 0.63 0.61 0.58 0.49 0.39 0.32 0.25 0.25 0.22 0.24 0.24 0.24 0.26 0.30 0.32 0.33 0.34 0.33 0.33 0.37 0.34 0.34 0.26 0.31 0.34 0.25 0.21 0.21 0.27 0.30 0.34 0.36 0.36 0.35 0.34 0.34 0.33 0.32 0.32 0.31 0.31 0.31 0.31 0.31 0.32 0.32 0.31
0.60 0.61 0.63 0.63 0.64 0.63 0.62 0.61 0.61 0.53 0.44 0.34 0.31 0.21 0.24 0.29 0.29 0.31 0.34 0.32 0.34 0.37 0.38 0.37 0.35 0.35 0.33 0.29 0.32 0.30 0.25 0.22 0.22 0.21 0.25 0.29 0.32 0.34 0.33 0.34 0.34 0.33 0.33 0.32 0.31 0.30 0.29 0.29 0.29 0.28 0.29 0.30 0.30 0.30
0.61 0.62 0.60 0.63 0.63 0.62 0.61 0.59 0.50 0.44 0.37 0.30 0.28 0.26 0.28 0.27 0.27 0.31 0.34 0.33 0.37 0.38 0.42 0.41 0.33 0.29 0.27 0.28 0.24 0.22 0.22 0.19 0.22 0.26 0.30 0.31 0.32 0.33 0.33 0.33 0.32 0.31 0.30 0.29 0.28 0.28 0.27 0.26 0.26 0.26 0.27 0.27 0.28 0.27
0.60 0.54 0.62 0.62 0.60 0.59 0.56 0.48 0.43 0.36 0.31 0.28 0.26 0.29 0.28 0.28 0.29 0.30 0.33 0.34 0.41 0.37 0.31 0.33 0.26 0.25 0.31 0.24 0.22 0.24 0.21 0.24 0.27 0.29 0.31 0.31 0.31 0.31 0.31 0.30 0.31 0.30 0.28 0.27 0.26 0.26 0.25 0.25 0.25 0.25 0.24 0.26 0.27 0.27
0.51 0.59 0.60 0.58 0.56 0.51 0.46 0.41 0.35 0.31 0.26 0.28 0.25 0.28 0.30 0.32 0.31 0.32 0.34 0.36 0.37 0.36 0.34 0.28 0.30 0.24 0.22 0.20 0.20 0.24 0.26 0.28 0.30 0.30 0.29 0.29 0.30 0.30 0.30 0.30 0.30 0.29 0.28 0.27 0.26 0.25 0.24 0.24 0.24 0.24 0.25 0.26 0.26 0.26
0.54 0.56 0.57 0.54 0.51 0.45 0.38 0.35 0.32 0.26 0.26 0.28 0.29 0.30 0.30 0.30 0.32 0.33 0.34 0.36 0.37 0.37 0.34 0.29 0.24 0.21 0.21 0.24 0.23 0.25 0.27 0.28 0.27 0.28 0.29 0.31 0.31 0.30 0.29 0.29 0.29 0.28 0.27 0.26 0.26 0.25 0.25 0.25 0.25 0.25 0.25 0.25 0.24 0.25
0.55 0.54 0.54 0.53 0.48 0.37 0.31 0.31 0.34 0.27 0.25 0.27 0.28 0.27 0.28 0.27 0.29 0.29 0.30 0.32 0.32 0.30 0.26 0.23 0.22 0.24 0.25 0.27 0.28 0.28 0.29 0.30 0.29 0.27 0.27 0.28 0.30 0.29 0.28 0.27 0.27 0.27 0.26 0.26 0.26 0.26 0.26 0.26 0.26 0.26 0.26 0.25 0.25 0.25
0.51 0.50 0.51 0.48 0.41 0.38 0.33 0.30 0.28 0.28 0.27 0.25 0.27 0.27 0.25 0.27 0.25 0.25 0.26 0.28 0.26 0.23 0.22 0.23 0.24 0.26 0.29 0.29 0.30 0.30 0.30 0.30 0.28 0.28 0.27 0.26 0.28 0.28 0.28 0.28 0.28 0.27 0.26 0.25 0.25 0.25 0.26 0.25 0.25 0.26 0.25 0.25 0.26 0.26
0.45 0.45 0.42 0.42 0.36 0.34 0.31 0.33 0.29 0.30 0.27 0.27 0.27 0.26 0.23 0.22 0.22 0.23 0.25 0.23 0.22 0.22 0.24 0.24 0.25 0.26 0.26 0.27 0.28 0.29 0.29 0.29 0.29 0.28 0.28 0.28 0.26 0.26 0.26 0.26 0.26 0.25 0.25 0.25 0.25 0.25 0.25 0.26 0.26 0.25 0.25 0.25 0.25 0.25
0.43 0.40 0.36 0.36 0.30 0.28 0.27 0.37 0.28 0.28 0.24 0.25 0.27 0.23 0.23 0.24 0.25 0.26 0.22 0.24 0.24 0.27 0.27 0.27 0.27 0.28 0.27 0.27 0.28 0.28 0.28 0.27 0.26 0.26 0.26 0.26 0.26 0.26 0.26 0.26 0.26 0.24 0.24 0.24 0.25 0.25 0.24 0.25 0.25 0.24 0.24 0.24 0.23 0.23
0.39 0.33 0.30 0.28 0.28 0.26 0.32 0.28 0.30 0.27 0.26 0.24 0.23 0.22 0.23 0.23 0.24 0.22 0.20 0.22 0.24 0.27 0.26 0.26 0.26 0.24 0.24 0.24 0.23 0.22 0.23 0.23 0.21 0.21 0.21 0.20 0.20 0.20 0.22 0.22 0.23 0.23 0.23 0.23 0.23 0.23 0.23 0.23 0.23 0.23 0.22 0.22 0.21 0.21
0.27 0.27 0.28 0.25 0.28 0.25 0.24 0.24 0.24 0.24 0.22 0.22 0.21 0.21 0.22 0.23 0.19 0.17 0.15 0.15 0.16 0.16 0.16 0.17 0.15 0.14 0.13 0.14 0.15 0.15 0.17 0.16 0.15 0.15 0.17 0.17 0.17 0.17 0.17 0.18 0.19 0.20 0.21 0.20 0.19 0.20 0.20 0.20 0.20 0.20 0.20 0.20 0.19 0.19
0.21 0.25 0.23 0.23 0.23 0.22 0.22 0.20 0.20 0.20 0.21 0.19 0.19 0.18 0.15 0.10 0.08 0.08 0.09 0.11 0.12 0.13 0.13 0.12 0.12 0.12 0.12 0.13 0.13 0.13 0.14 0.16 0.16 0.14 0.16 0.17 0.17 0.16 0.15 0.15 0.15 0.16 0.19 0.19 0.18 0.18 0.18 0.18 0.18 0.18 0.18 0.18 0.18 0.18
0.17 0.20 0.23 0.26 0.25 0.24 0.21 0.21 0.20 0.16 0.13 0.10 0.12 0.10 0.08 0.06 0.06 0.08 0.12 0.13 0.13 0.14 0.15 0.14 0.14 0.13 0.12 0.13 0.14 0.15 0.16 0.16 0.15 0.15 0.16 0.17 0.17 0.17 0.16 0.15 0.15 0.17 0.19 0.19 0.18 0.18 0.17 0.17 0.17 0.17 0.17 0.17 0.17 0.17
0.20 0.21 0.19 0.19 0.18 0.18 0.15 0.13 0.10 0.09 0.10 0.11 0.09 0.07 0.06 0.06 0.07 0.11 0.12 0.14 0.14 0.14 0.14 0.14 0.14 0.13 0.12 0.12 0.13 0.14 0.14 0.15 0.15 0.15 0.15 0.15 0.16 0.16 0.17 0.17 0.17 0.18 0.18 0.18 0.18 0.18 0.17 0.17 0.16 0.16 0.16 0.15 0.15 0.15
0.18 0.18 0.16 0.13 0.12 0.10 0.09 0.09 0.09 0.10 0.12 0.10 0.07 0.07 0.08 0.10 0.12 0.12 0.13 0.13 0.14 0.13 0.12 0.11 0.11 0.12 0.11 0.10 0.10 0.11 0.13 0.12 0.11 0.10 0.09 0.09 0.10 0.10 0.12 0.13 0.14 0.14 0.14 0.16 0.17 0.17 0.16 0.16 0.15 0.14 0.14 0.13 0.13 0.13
0.14 0.14 0.10 0.09 0.09 0.08 0.10 0.11 0.10 0.12 0.12 0.11 0.10 0.10 0.10 0.11 0.13 0.15 0.14 0.14 0.13 0.12 0.12 0.12 0.12 0.11 0.10 0.09 0.09 0.09 0.10 0.11 0.11 0.10 0.09 0.08 0.08 0.10 0.10 0.11 0.11 0.12 0.12 0.12 0.12 0.13 0.14 0.13 0.13 0.13 0.12 0.11 0.11 0.11
0.13 0.11 0.10 0.10 0.10 0.11 0.12 0.12 0.12 0.11 0.10 0.10 0.10 0.09 0.09 0.10 0.13 0.14 0.14 0.14 0.13 0.12 0.11 0.11 0.11 0.11 0.10 0.09 0.09 0.08 0.07 0.09 0.09 0.09 0.09 0.09 0.09 0.09 0.09 0.09 0.10 0.10 0.10 0.10 0.10 0.11 0.11 0.10 0.10 0.10 0.10 0.10 0.10 0.10
0.11 0.10 0.09 0.09 0.10 0.12 0.13 0.11 0.10 0.10 0.10 0.09 0.09 0.10 0.10 0.09 0.08 0.11 0.13 0.13 0.12 0.11 0.11 0.11 0.10 0.09 0.10 0.09 0.08 0.08 0.07 0.07 0.07 0.08 0.08 0.08 0.08 0.08 0.09 0.09 0.09 0.09 0.09 0.09 0.09 0.09 0.09 0.09 0.09 0.09 0.09 0.09 0.09 0.09
0.11 0.10 0.10 0.11 0.10 0.11 0.12 0.12 0.10 0.10 0.10 0.09 0.09 0.10 0.10 0.09 0.08 0.11 0.14 0.14 0.13 0.12 0.11 0.11 0.10 0.10 0.09 0.09 0.08 0.08 0.07 0.07 0.08 0.08 0.08 0.08 0.08 0.08 0.08 0.09 0.09 0.09 0.09 0.09 0.08 0.08 0.08 0.09 0.08 0.08 0.08 0.08 0.08 0.07

GFSWCAN_prec_pwat_111.txt.gz
Precipitable_Water
0.38 0.43 0.45 0.51 0.54 0.53 0.53 0.51 0.49 0.47 0.45 0.41 0.38 0.41 0.42 0.46 0.46 0.44 0.36 0.44 0.36 0.27 0.25 0.26 0.26 0.20 0.22 0.23 0.19 0.22 0.19 0.26 0.23 0.21 0.21 0.21 0.21 0.23 0.22 0.23 0.23 0.23 0.21 0.20 0.20 0.14 0.08 0.27 0.30 0.29 0.42 0.54 0.57 0.56
0.37 0.40 0.43 0.50 0.52 0.52 0.52 0.51 0.49 0.48 0.43 0.40 0.38 0.40 0.41 0.45 0.45 0.48 0.34 0.44 0.47 0.34 0.25 0.32 0.31 0.31 0.29 0.28 0.25 0.25 0.22 0.24 0.26 0.23 0.22 0.23 0.19 0.24 0.22 0.19 0.31 0.23 0.30 0.24 0.23 0.20 0.24 0.32 0.36 0.45 0.49 0.54 0.56 0.55
0.33 0.36 0.42 0.48 0.50 0.51 0.52 0.52 0.51 0.46 0.42 0.40 0.44 0.40 0.40 0.42 0.45 0.46 0.39 0.41 0.41 0.32 0.27 0.27 0.23 0.31 0.35 0.33 0.36 0.25 0.28 0.30 0.32 0.36 0.29 0.25 0.19 0.25 0.19 0.20 0.26 0.33 0.39 0.30 0.29 0.33 0.33 0.34 0.43 0.49 0.51 0.53 0.59 0.62
0.30 0.33 0.40 0.46 0.51 0.49 0.48 0.54 0.52 0.47 0.42 0.38 0.41 0.44 0.40 0.43 0.46 0.48 0.39 0.43 0.41 0.33 0.21 0.23 0.33 0.29 0.36 0.37 0.35 0.34 0.31 0.37 0.38 0.34 0.26 0.23 0.21 0.29 0.25 0.28 0.29 0.34 0.37 0.34 0.31 0.36 0.42 0.38 0.40 0.46 0.51 0.59 0.59 0.57
0.32 0.30 0.37 0.44 0.51 0.49 0.50 0.51 0.51 0.49 0.43 0.39 0.40 0.40 0.40 0.42 0.45 0.47 0.44 0.45 0.42 0.32 0.23 0.24 0.30 0.32 0.35 0.35 0.33 0.35 0.34 0.31 0.30 0.25 0.23 0.21 0.26 0.28 0.33 0.31 0.30 0.38 0.33 0.30 0.29 0.37 0.39 0.36 0.40 0.49 0.52 0.55 0.57 0.56
0.33 0.31 0.38 0.42 0.49 0.48 0.47 0.49 0.50 0.48 0.45 0.42 0.39 0.38 0.41 0.44 0.49 0.44 0.33 0.42 0.45 0.44 0.31 0.23 0.32 0.29 0.35 0.36 0.36 0.37 0.36 0.34 0.31 0.27 0.25 0.26 0.31 0.31 0.26 0.23 0.34 0.41 0.42 0.42 0.38 0.45 0.45 0.46 0.47 0.52 0.53 0.55 0.57 0.57
0.33 0.33 0.39 0.45 0.50 0.46 0.45 0.47 0.50 0.49 0.47 0.43 0.38 0.41 0.44 0.45 0.46 0.34 0.28 0.41 0.48 0.48 0.33 0.25 0.24 0.31 0.37 0.37 0.36 0.36 0.38 0.32 0.31 0.30 0.26 0.26 0.27 0.28 0.24 0.21 0.30 0.37 0.43 0.43 0.46 0.47 0.42 0.45 0.44 0.49 0.50 0.52 0.53 0.54
0.35 0.38 0.41 0.45 0.48 0.48 0.48 0.48 0.50 0.50 0.47 0.43 0.39 0.41 0.44 0.46 0.48 0.40 0.43 0.56 0.57 0.42 0.37 0.25 0.23 0.26 0.38 0.31 0.28 0.36 0.31 0.33 0.33 0.31 0.31 0.27 0.30 0.27 0.21 0.28 0.32 0.38 0.40 0.41 0.43 0.45 0.43 0.45 0.46 0.47 0.49 0.49 0.47 0.47
0.40 0.45 0.49 0.47 0.45 0.41 0.41 0.44 0.49 0.51 0.47 0.44 0.38 0.40 0.42 0.42 0.37 0.37 0.47 0.52 0.50 0.42 0.28 0.27 0.21 0.19 0.38 0.34 0.36 0.35 0.34 0.25 0.34 0.27 0.26 0.28 0.24 0.20 0.26 0.29 0.30 0.33 0.33 0.34 0.38 0.40 0.40 0.40 0.41 0.43 0.45 0.45 0.45 0.45
0.46 0.46 0.47 0.44 0.40 0.40 0.40 0.42 0.44 0.49 0.47 0.39 0.39 0.33 0.30 0.39 0.50 0.50 0.45 0.37 0.37 0.37 0.34 0.24 0.29 0.22 0.32 0.33 0.32 0.32 0.34 0.28 0.22 0.26 0.31 0.24 0.22 0.29 0.31 0.32 0.31 0.31 0.32 0.33 0.32 0.31 0.34 0.34 0.36 0.39 0.39 0.43 0.43 0.42
0.46 0.46 0.44 0.41 0.39 0.39 0.43 0.45 0.47 0.47 0.42 0.35 0.34 0.33 0.45 0.54 0.46 0.39 0.30 0.29 0.30 0.27 0.30 0.28 0.27 0.24 0.36 0.27 0.28 0.34 0.29 0.29 0.21 0.23 0.23 0.21 0.20 0.23 0.28 0.28 0.30 0.31 0.32 0.32 0.33 0.33 0.35 0.35 0.35 0.35 0.35 0.36 0.38 0.38
0.44 0.42 0.41 0.41 0.43 0.45 0.46 0.46 0.46 0.40 0.34 0.38 0.42 0.49 0.49 0.40 0.35 0.28 0.25 0.29 0.27 0.22 0.27 0.24 0.27 0.30 0.32 0.39 0.31 0.33 0.28 0.29 0.20 0.31 0.24 0.19 0.24 0.29 0.29 0.29 0.30 0.31 0.31 0.31 0.32 0.33 0.34 0.33 0.32 0.31 0.31 0.31 0.32 0.33
0.41 0.41 0.40 0.40 0.42 0.42 0.43 0.43 0.41 0.41 0.47 0.48 0.42 0.36 0.34 0.31 0.23 0.19 0.19 0.23 0.22 0.25 0.27 0.28 0.26 0.31 0.34 0.39 0.33 0.31 0.26 0.23 0.34 0.25 0.22 0.24 0.30 0.32 0.32 0.32 0.32 0.32 0.31 0.31 0.32 0.33 0.32 0.31 0.31 0.30 0.30 0.31 0.31 0.31
0.39 0.38 0.37 0.38 0.40 0.41 0.43 0.42 0.44 0.48 0.45 0.35 0.30 0.24 0.23 0.20 0.22 0.24 0.22 0.25 0.29 0.30 0.29 0.31 0.31 0.29 0.33 0.31 0.31 0.25 0.30 0.32 0.23 0.20 0.21 0.27 0.30 0.31 0.32 0.34 0.33 0.32 0.32 0.31 0.31 0.31 0.30 0.29 0.28 0.29 0.29 0.29 0.29 0.28
0.34 0.36 0.36 0.35 0.34 0.36 0.39 0.47 0.53 0.49 0.40 0.33 0.31 0.19 0.21 0.27 0.28 0.30 0.32 0.31 0.32 0.34 0.33 0.31 0.33 0.33 0.31 0.28 0.32 0.28 0.25 0.21 0.22 0.21 0.26 0.29 0.31 0.32 0.31 0.31 0.31 0.31 0.31 0.30 0.30 0.29 0.28 0.27 0.27 0.26 0.26 0.27 0.27 0.27
0.34 0.35 0.33 0.36 0.40 0.37 0.45 0.49 0.48 0.46 0.38 0.33 0.28 0.24 0.26 0.25 0.25 0.28 0.30 0.30 0.34 0.34 0.37 0.35 0.31 0.28 0.26 0.28 0.24 0.22 0.21 0.20 0.23 0.26 0.29 0.30 0.30 0.31 0.31 0.31 0.31 0.30 0.29 0.29 0.29 0.28 0.28 0.27 0.26 0.25 0.26 0.25 0.25 0.25
0.36 0.34 0.39 0.42 0.46 0.51 0.52 0.45 0.42 0.35 0.31 0.27 0.25 0.28 0.28 0.27 0.26 0.28 0.30 0.30 0.36 0.32 0.28 0.31 0.25 0.25 0.30 0.24 0.22 0.24 0.21 0.24 0.27 0.28 0.29 0.29 0.29 0.29 0.29 0.29 0.29 0.29 0.28 0.28 0.27 0.26 0.26 0.26 0.25 0.24 0.23 0.24 0.24 0.24
0.39 0.43 0.46 0.52 0.52 0.48 0.45 0.43 0.36 0.31 0.26 0.27 0.24 0.26 0.28 0.28 0.27 0.28 0.31 0.34 0.34 0.33 0.30 0.27 0.30 0.25 0.22 0.21 0.21 0.25 0.27 0.29 0.30 0.28 0.28 0.29 0.28 0.28 0.27 0.27 0.28 0.28 0.27 0.27 0.26 0.26 0.26 0.25 0.24 0.24 0.24 0.24 0.23 0.23
0.55 0.56 0.55 0.53 0.51 0.45 0.37 0.35 0.33 0.25 0.25 0.27 0.28 0.29 0.29 0.28 0.30 0.31 0.33 0.35 0.37 0.37 0.33 0.30 0.26 0.22 0.23 0.25 0.25 0.27 0.28 0.28 0.27 0.28 0.29 0.29 0.29 0.28 0.27 0.27 0.27 0.26 0.26 0.25 0.25 0.24 0.24 0.24 0.23 0.24 0.24 0.23 0.22 0.23
0.57 0.56 0.53 0.52 0.48 0.37 0.31 0.30 0.35 0.27 0.24 0.26 0.27 0.27 0.28 0.28 0.30 0.31 0.32 0.33 0.32 0.31 0.28 0.25 0.24 0.25 0.26 0.27 0.29 0.28 0.29 0.30 0.28 0.26 0.26 0.27 0.28 0.28 0.27 0.26 0.26 0.25 0.25 0.25 0.24 0.24 0.24 0.23 0.24 0.24 0.24 0.23 0.23 0.22
0.54 0.50 0.50 0.48 0.39 0.35 0.30 0.28 0.27 0.27 0.26 0.24 0.26 0.26 0.26 0.28 0.27 0.27 0.27 0.30 0.27 0.25 0.23 0.25 0.25 0.27 0.29 0.29 0.30 0.29 0.29 0.29 0.27 0.27 0.26 0.25 0.27 0.27 0.26 0.26 0.26 0.25 0.24 0.24 0.23 0.23 0.24 0.23 0.24 0.24 0.24 0.23 0.24 0.24
0.49 0.50 0.44 0.40 0.33 0.31 0.29 0.31 0.27 0.28 0.25 0.25 0.25 0.25 0.23 0.23 0.23 0.24 0.26 0.24 0.23 0.24 0.25 0.25 0.25 0.26 0.26 0.26 0.27 0.28 0.28 0.28 0.28 0.27 0.27 0.27 0.25 0.24 0.24 0.25 0.24 0.23 0.23 0.23 0.23 0.23 0.23 0.24 0.24 0.24 0.23 0.23 0.23 0.23
0.44 0.40 0.37 0.36 0.29 0.27 0.26 0.33 0.25 0.25 0.21 0.22 0.24 0.22 0.22 0.22 0.23 0.25 0.22 0.24 0.24 0.27 0.28 0.27 0.27 0.28 0.27 0.27 0.27 0.27 0.27 0.26 0.24 0.23 0.23 0.22 0.21 0.21 0.20 0.20 0.19 0.18 0.18 0.19 0.20 0.20 0.20 0.21 0.21 0.21 0.22 0.22 0.22 0.22
0.41 0.34 0.29 0.28 0.28 0.25 0.29 0.25 0.26 0.24 0.24 0.21 0.21 0.20 0.21 0.22 0.25 0.23 0.21 0.22 0.24 0.26 0.25 0.24 0.22 0.19 0.18 0.17 0.16 0.16 0.16 0.16 0.16 0.16 0.16 0.16 0.15 0.16 0.17 0.17 0.17 0.17 0.18 0.18 0.18 0.17 0.18 0.17 0.18 0.18 0.18 0.17 0.18 0.18
0.28 0.26 0.26 0.23 0.26 0.23 0.21 0.21 0.22 0.22 0.21 0.23 0.22 0.21 0.22 0.23 0.19 0.18 0.17 0.15 0.15 0.15 0.15 0.15 0.14 0.13 0.12 0.12 0.13 0.14 0.15 0.15 0.14 0.13 0.14 0.15 0.15 0.15 0.15 0.15 0.16 0.16 0.18 0.16 0.16 0.16 0.16 0.16 0.17 0.16 0.16 0.16 0.16 0.16
0.22 0.25 0.23 0.23 0.23 0.22 0.22 0.20 0.21 0.21 0.21 0.21 0.21 0.22 0.20 0.16 0.10 0.08 0.09 0.11 0.12 0.13 0.12 0.12 0.11 0.11 0.11 0.12 0.12 0.12 0.13 0.14 0.14 0.13 0.14 0.15 0.14 0.14 0.13 0.13 0.13 0.14 0.17 0.17 0.16 0.15 0.15 0.16 0.15 0.15 0.15 0.15 0.15 0.15
0.20 0.21 0.25 0.27 0.26 0.24 0.22 0.22 0.23 0.21 0.19 0.18 0.19 0.16 0.09 0.05 0.06 0.08 0.12 0.13 0.12 0.13 0.13 0.13 0.12 0.12 0.11 0.12 0.12 0.13 0.14 0.14 0.14 0.13 0.14 0.14 0.14 0.14 0.14 0.13 0.13 0.14 0.16 0.17 0.17 0.16 0.15 0.15 0.15 0.15 0.15 0.15 0.15 0.15
0.20 0.20 0.19 0.21 0.21 0.22 0.20 0.19 0.18 0.17 0.16 0.16 0.13 0.07 0.06 0.06 0.07 0.10 0.12 0.13 0.14 0.14 0.14 0.14 0.13 0.13 0.12 0.12 0.12 0.12 0.13 0.13 0.13 0.12 0.12 0.12 0.12 0.12 0.11 0.12 0.12 0.13 0.14 0.15 0.16 0.16 0.16 0.16 0.15 0.15 0.15 0.15 0.15 0.15
0.17 0.18 0.20 0.18 0.18 0.17 0.17 0.16 0.14 0.14 0.13 0.11 0.07 0.07 0.07 0.10 0.11 0.12 0.13 0.14 0.14 0.13 0.12 0.11 0.11 0.11 0.11 0.10 0.11 0.11 0.12 0.11 0.10 0.08 0.08 0.08 0.08 0.09 0.10 0.10 0.10 0.11 0.11 0.11 0.13 0.13 0.13 0.13 0.12 0.12 0.12 0.12 0.12 0.12
0.17 0.20 0.17 0.16 0.14 0.13 0.13 0.13 0.11 0.12 0.13 0.11 0.10 0.10 0.10 0.11 0.13 0.14 0.14 0.13 0.12 0.11 0.11 0.12 0.12 0.11 0.10 0.09 0.09 0.09 0.10 0.10 0.10 0.09 0.07 0.07 0.07 0.08 0.08 0.08 0.09 0.09 0.09 0.09 0.10 0.11 0.12 0.12 0.12 0.11 0.11 0.11 0.10 0.10
0.19 0.17 0.15 0.14 0.13 0.12 0.13 0.13 0.13 0.12 0.11 0.10 0.11 0.10 0.09 0.11 0.12 0.14 0.13 0.13 0.13 0.12 0.12 0.11 0.11 0.11 0.10 0.10 0.09 0.08 0.07 0.08 0.08 0.07 0.07 0.08 0.08 0.08 0.08 0.08 0.09 0.09 0.09 0.09 0.09 0.09 0.09 0.09 0.09 0.09 0.08 0.08 0.08 0.08
0.16 0.14 0.13 0.11 0.10 0.13 0.13 0.12 0.11 0.10 0.11 0.10 0.10 0.10 0.10 0.10 0.09 0.11 0.13 0.14 0.13 0.12 0.12 0.12 0.11 0.10 0.11 0.10 0.08 0.08 0.08 0.07 0.07 0.07 0.07 0.07 0.07 0.07 0.08 0.08 0.09 0.09 0.09 0.09 0.09 0.09 0.09 0.09 0.09 0.08 0.08 0.08 0.08 0.08
0.14 0.13 0.12 0.11 0.10 0.10 0.11 0.11 0.10 0.10 0.10 0.10 0.10 0.10 0.10 0.09 0.09 0.11 0.14 0.14 0.13 0.13 0.12 0.12 0.11 0.10 0.09 0.09 0.08 0.08 0.07 0.07 0.07 0.07 0.07 0.07 0.07 0.07 0.08 0.08 0.08 0.08 0.08 0.08 0.08 0.08 0.08 0.08 0.08 0.08 0.07 0.07 0.07 0.07

GFSWCAN_prec_pwat_114.txt.gz
Precipitable_Water
0.42 0.41 0.44 0.48 0.51 0.56 0.59 0.59 0.58 0.56 0.50 0.47 0.44 0.40 0.38 0.40 0.48 0.46 0.40 0.42 0.33 0.25 0.24 0.26 0.25 0.21 0.20 0.19 0.17 0.23 0.20 0.25 0.23 0.20 0.20 0.19 0.20 0.22 0.22 0.23 0.23 0.23 0.21 0.20 0.20 0.16 0.13 0.26 0.34 0.31 0.39 0.50 0.61 0.60
0.34 0.37 0.40 0.44 0.46 0.52 0.57 0.57 0.59 0.54 0.52 0.48 0.44 0.42 0.40 0.42 0.49 0.48 0.36 0.42 0.44 0.31 0.27 0.33 0.32 0.30 0.27 0.27 0.25 0.27 0.22 0.23 0.25 0.22 0.22 0.23 0.20 0.22 0.22 0.19 0.28 0.23 0.29 0.24 0.24 0.22 0.32 0.34 0.37 0.50 0.54 0.53 0.60 0.59
0.30 0.33 0.36 0.37 0.42 0.46 0.52 0.56 0.56 0.53 0.51 0.48 0.45 0.43 0.42 0.44 0.48 0.46 0.41 0.42 0.40 0.30 0.28 0.28 0.23 0.30 0.34 0.32 0.33 0.23 0.27 0.29 0.30 0.35 0.29 0.25 0.19 0.24 0.20 0.21 0.25 0.31 0.35 0.29 0.29 0.36 0.36 0.37 0.40 0.48 0.54 0.58 0.65 0.64
0.32 0.31 0.33 0.36 0.42 0.44 0.53 0.54 0.56 0.53 0.50 0.46 0.44 0.43 0.42 0.44 0.48 0.48 0.40 0.43 0.38 0.31 0.22 0.23 0.32 0.28 0.33 0.35 0.35 0.34 0.30 0.35 0.35 0.34 0.27 0.24 0.21 0.27 0.23 0.26 0.28 0.33 0.35 0.30 0.31 0.36 0.39 0.41 0.39 0.43 0.50 0.56 0.58 0.59
0.34 0.32 0.32 0.37 0.42 0.42 0.52 0.54 0.54 0.53 0.50 0.45 0.44 0.45 0.41 0.42 0.45 0.49 0.47 0.45 0.43 0.31 0.23 0.23 0.29 0.30 0.35 0.36 0.35 0.35 0.34 0.31 0.29 0.27 0.24 0.21 0.24 0.25 0.28 0.32 0.29 0.36 0.32 0.28 0.27 0.36 0.37 0.37 0.41 0.42 0.44 0.49 0.56 0.56
0.33 0.33 0.31 0.32 0.39 0.43 0.51 0.51 0.56 0.53 0.48 0.43 0.44 0.42 0.43 0.41 0.46 0.45 0.32 0.42 0.46 0.42 0.27 0.20 0.33 0.30 0.34 0.37 0.36 0.36 0.36 0.34 0.32 0.27 0.24 0.26 0.29 0.28 0.25 0.24 0.36 0.39 0.41 0.40 0.35 0.42 0.42 0.44 0.42 0.42 0.43 0.49 0.54 0.55
0.32 0.33 0.32 0.31 0.37 0.42 0.52 0.49 0.51 0.51 0.47 0.44 0.44 0.41 0.41 0.43 0.44 0.34 0.30 0.39 0.44 0.43 0.30 0.25 0.25 0.34 0.38 0.37 0.37 0.38 0.40 0.36 0.33 0.28 0.25 0.26 0.28 0.32 0.26 0.21 0.29 0.35 0.40 0.41 0.44 0.44 0.39 0.42 0.39 0.43 0.46 0.52 0.54 0.53
0.32 0.33 0.33 0.35 0.43 0.46 0.52 0.51 0.52 0.51 0.47 0.45 0.42 0.40 0.44 0.47 0.46 0.38 0.46 0.52 0.49 0.39 0.36 0.24 0.24 0.28 0.38 0.32 0.30 0.38 0.32 0.34 0.32 0.29 0.31 0.26 0.29 0.29 0.21 0.28 0.31 0.33 0.40 0.40 0.40 0.40 0.40 0.42 0.43 0.43 0.47 0.49 0.47 0.47
0.31 0.32 0.33 0.40 0.44 0.49 0.50 0.50 0.51 0.51 0.49 0.44 0.42 0.44 0.47 0.42 0.34 0.37 0.50 0.49 0.53 0.42 0.28 0.27 0.22 0.21 0.37 0.34 0.36 0.35 0.35 0.26 0.34 0.27 0.27 0.29 0.25 0.21 0.26 0.28 0.29 0.31 0.32 0.34 0.38 0.37 0.38 0.36 0.38 0.40 0.42 0.44 0.43 0.44
0.33 0.35 0.36 0.40 0.45 0.50 0.48 0.49 0.51 0.50 0.47 0.44 0.40 0.34 0.28 0.35 0.47 0.48 0.43 0.34 0.35 0.36 0.33 0.25 0.29 0.22 0.31 0.32 0.31 0.32 0.34 0.28 0.23 0.27 0.32 0.24 0.22 0.29 0.29 0.30 0.30 0.30 0.30 0.31 0.29 0.31 0.34 0.34 0.35 0.37 0.39 0.42 0.43 0.43
0.35 0.38 0.40 0.44 0.50 0.48 0.48 0.50 0.50 0.49 0.46 0.37 0.29 0.26 0.38 0.46 0.41 0.36 0.29 0.28 0.30 0.26 0.28 0.26 0.26 0.23 0.33 0.25 0.28 0.34 0.29 0.30 0.22 0.25 0.24 0.22 0.20 0.23 0.28 0.29 0.31 0.30 0.29 0.29 0.31 0.32 0.34 0.34 0.35 0.35 0.36 0.37 0.39 0.41
0.43 0.45 0.49 0.46 0.42 0.42 0.45 0.46 0.49 0.44 0.38 0.34 0.33 0.44 0.46 0.37 0.32 0.26 0.25 0.27 0.25 0.21 0.28 0.25 0.27 0.30 0.33 0.36 0.30 0.33 0.27 0.29 0.21 0.32 0.25 0.20 0.24 0.29 0.30 0.30 0.30 0.29 0.29 0.28 0.29 0.29 0.32 0.34 0.34 0.34 0.33 0.32 0.33 0.34
0.48 0.48 0.44 0.40 0.40 0.42 0.44 0.46 0.47 0.44 0.40 0.41 0.38 0.34 0.32 0.30 0.24 0.21 0.18 0.22 0.22 0.26 0.28 0.28 0.26 0.30 0.33 0.36 0.33 0.31 0.26 0.24 0.33 0.25 0.22 0.23 0.29 0.32 0.32 0.32 0.31 0.32 0.30 0.29 0.28 0.30 0.32 0.32 0.32 0.31 0.30 0.31 0.31 0.31
0.44 0.42 0.40 0.42 0.44 0.45 0.47 0.48 0.47 0.40 0.36 0.31 0.29 0.24 0.25 0.19 0.22 0.22 0.22 0.24 0.30 0.30 0.30 0.31 0.30 0.29 0.32 0.30 0.32 0.25 0.30 0.32 0.23 0.20 0.21 0.27 0.30 0.31 0.32 0.33 0.33 0.32 0.32 0.31 0.31 0.30 0.30 0.30 0.29 0.29 0.29 0.29 0.28 0.27
0.41 0.42 0.44 0.45 0.46 0.47 0.48 0.47 0.44 0.43 0.37 0.30 0.31 0.21 0.21 0.27 0.28 0.30 0.31 0.31 0.33 0.36 0.33 0.31 0.31 0.32 0.31 0.28 0.32 0.29 0.25 0.21 0.22 0.22 0.26 0.30 0.31 0.31 0.32 0.32 0.31 0.31 0.30 0.30 0.30 0.29 0.29 0.28 0.28 0.28 0.28 0.28 0.27 0.27
0.40 0.41 0.41 0.42 0.43 0.44 0.47 0.47 0.46 0.43 0.37 0.32 0.29 0.25 0.27 0.25 0.25 0.29 0.30 0.30 0.34 0.34 0.36 0.34 0.30 0.27 0.26 0.28 0.25 0.23 0.22 0.20 0.23 0.26 0.29 0.30 0.30 0.31 0.31 0.31 0.31 0.30 0.30 0.30 0.29 0.29 0.28 0.28 0.27 0.27 0.27 0.26 0.26 0.26
0.35 0.32 0.37 0.38 0.42 0.46 0.47 0.44 0.41 0.34 0.30 0.28 0.25 0.29 0.28 0.28 0.26 0.28 0.31 0.32 0.36 0.33 0.28 0.30 0.24 0.24 0.30 0.25 0.22 0.25 0.22 0.25 0.28 0.29 0.31 0.30 0.29 0.29 0.29 0.29 0.29 0.29 0.28 0.27 0.27 0.27 0.27 0.28 0.28 0.27 0.26 0.26 0.26 0.26
0.31 0.32 0.35 0.38 0.45 0.45 0.43 0.41 0.34 0.30 0.26 0.27 0.25 0.26 0.28 0.29 0.28 0.29 0.31 0.33 0.33 0.32 0.31 0.27 0.30 0.24 0.21 0.21 0.22 0.26 0.28 0.30 0.30 0.30 0.30 0.30 0.29 0.28 0.29 0.28 0.28 0.28 0.28 0.27 0.27 0.26 0.26 0.26 0.26 0.25 0.25 0.26 0.25 0.25
0.35 0.38 0.44 0.43 0.43 0.40 0.34 0.34 0.34 0.26 0.27 0.28 0.29 0.29 0.29 0.30 0.31 0.31 0.32 0.35 0.36 0.37 0.34 0.29 0.25 0.22 0.24 0.26 0.26 0.28 0.29 0.29 0.28 0.29 0.29 0.29 0.29 0.28 0.28 0.28 0.28 0.27 0.26 0.26 0.26 0.25 0.25 0.25 0.25 0.24 0.24 0.24 0.23 0.23
0.43 0.43 0.47 0.49 0.45 0.38 0.30 0.30 0.36 0.28 0.25 0.27 0.29 0.28 0.29 0.30 0.31 0.31 0.31 0.32 0.33 0.31 0.28 0.25 0.24 0.26 0.26 0.28 0.30 0.30 0.30 0.31 0.29 0.27 0.27 0.28 0.28 0.28 0.27 0.27 0.26 0.26 0.25 0.25 0.25 0.25 0.24 0.24 0.24 0.24 0.24 0.23 0.23 0.23
0.50 0.49 0.51 0.49 0.42 0.38 0.31 0.29 0.28 0.28 0.28 0.26 0.27 0.27 0.26 0.29 0.28 0.29 0.29 0.31 0.28 0.26 0.25 0.27 0.27 0.29 0.30 0.30 0.31 0.31 0.30 0.30 0.28 0.28 0.26 0.25 0.27 0.27 0.26 0.26 0.26 0.25 0.24 0.24 0.23 0.23 0.23 0.23 0.24 0.24 0.24 0.23 0.24 0.23
0.47 0.52 0.46 0.44 0.34 0.32 0.30 0.31 0.28 0.29 0.27 0.26 0.26 0.26 0.25 0.24 0.25 0.26 0.28 0.26 0.25 0.25 0.27 0.26 0.27 0.27 0.27 0.27 0.28 0.29 0.29 0.29 0.28 0.28 0.28 0.27 0.24 0.24 0.23 0.23 0.22 0.21 0.21 0.21 0.21 0.20 0.21 0.21 0.22 0.22 0.22 0.22 0.23 0.23
0.49 0.44 0.38 0.36 0.30 0.28 0.27 0.34 0.26 0.26 0.22 0.23 0.25 0.22 0.22 0.23 0.24 0.26 0.23 0.25 0.25 0.28 0.29 0.28 0.28 0.28 0.27 0.27 0.26 0.24 0.23 0.21 0.19 0.19 0.18 0.18 0.18 0.18 0.17 0.17 0.18 0.17 0.16 0.17 0.18 0.18 0.18 0.18 0.18 0.18 0.19 0.19 0.19 0.19
0.44 0.36 0.31 0.29 0.29 0.26 0.30 0.25 0.26 0.24 0.24 0.22 0.21 0.20 0.21 0.22 0.25 0.23 0.22 0.23 0.25 0.26 0.23 0.21 0.19 0.18 0.17 0.16 0.15 0.15 0.15 0.16 0.15 0.15 0.16 0.15 0.14 0.15 0.16 0.16 0.16 0.17 0.17 0.17 0.17 0.17 0.17 0.17 0.17 0.17 0.17 0.17 0.17 0.17
0.30 0.27 0.28 0.24 0.27 0.25 0.22 0.22 0.22 0.21 0.20 0.21 0.21 0.22 0.23 0.24 0.20 0.19 0.18 0.17 0.16 0.16 0.16 0.16 0.15 0.14 0.13 0.13 0.13 0.13 0.15 0.15 0.14 0.13 0.14 0.15 0.15 0.15 0.14 0.15 0.15 0.16 0.17 0.16 0.16 0.16 0.16 0.16 0.16 0.16 0.16 0.16 0.15 0.15
0.23 0.25 0.23 0.23 0.23 0.22 0.21 0.19 0.20 0.21 0.22 0.22 0.22 0.23 0.22 0.19 0.15 0.10 0.11 0.13 0.14 0.14 0.13 0.13 0.12 0.12 0.12 0.13 0.12 0.13 0.13 0.15 0.14 0.13 0.14 0.14 0.14 0.14 0.13 0.13 0.13 0.14 0.16 0.17 0.16 0.15 0.15 0.16 0.15 0.15 0.15 0.15 0.15 0.15
0.20 0.22 0.25 0.27 0.26 0.25 0.23 0.23 0.24 0.22 0.21 0.20 0.21 0.19 0.16 0.07 0.06 0.09 0.13 0.14 0.13 0.14 0.14 0.14 0.14 0.13 0.12 0.13 0.13 0.14 0.15 0.15 0.14 0.13 0.14 0.14 0.14 0.14 0.13 0.12 0.12 0.14 0.16 0.16 0.16 0.16 0.15 0.15 0.15 0.15 0.15 0.15 0.15 0.15
0.22 0.22 0.20 0.22 0.23 0.23 0.21 0.21 0.20 0.19 0.19 0.20 0.19 0.13 0.06 0.06 0.07 0.11 0.13 0.14 0.14 0.14 0.14 0.14 0.14 0.14 0.13 0.13 0.13 0.13 0.13 0.13 0.13 0.12 0.12 0.12 0.12 0.11 0.11 0.11 0.12 0.12 0.12 0.13 0.13 0.14 0.15 0.15 0.15 0.15 0.15 0.15 0.15 0.15
0.21 0.20 0.19 0.17 0.20 0.20 0.20 0.19 0.18 0.18 0.18 0.16 0.11 0.07 0.08 0.10 0.12 0.13 0.13 0.14 0.15 0.14 0.13 0.12 0.12 0.12 0.12 0.12 0.12 0.12 0.13 0.12 0.10 0.08 0.08 0.08 0.08 0.09 0.09 0.10 0.10 0.10 0.11 0.11 0.12 0.12 0.12 0.12 0.12 0.12 0.12 0.12 0.12 0.13
0.19 0.19 0.17 0.17 0.17 0.16 0.17 0.18 0.16 0.15 0.14 0.14 0.11 0.10 0.11 0.12 0.13 0.15 0.14 0.14 0.13 0.13 0.12 0.12 0.12 0.11 0.10 0.10 0.10 0.10 0.11 0.11 0.10 0.09 0.07 0.07 0.07 0.08 0.08 0.08 0.09 0.09 0.10 0.10 0.10 0.11 0.11 0.11 0.11 0.11 0.10 0.10 0.10 0.10
0.17 0.17 0.17 0.17 0.16 0.17 0.17 0.16 0.13 0.13 0.13 0.11 0.11 0.11 0.10 0.12 0.13 0.14 0.14 0.14 0.13 0.13 0.12 0.12 0.11 0.11 0.10 0.10 0.09 0.08 0.08 0.09 0.08 0.08 0.08 0.08 0.08 0.08 0.08 0.08 0.09 0.09 0.09 0.09 0.09 0.10 0.10 0.10 0.10 0.09 0.09 0.09 0.09 0.09
0.17 0.17 0.16 0.15 0.15 0.16 0.15 0.13 0.13 0.12 0.11 0.11 0.11 0.11 0.11 0.11 0.10 0.12 0.14 0.14 0.13 0.12 0.12 0.13 0.12 0.11 0.11 0.11 0.10 0.09 0.09 0.08 0.08 0.07 0.07 0.07 0.07 0.07 0.08 0.08 0.09 0.09 0.09 0.09 0.09 0.09 0.09 0.09 0.09 0.09 0.09 0.08 0.08 0.08
0.16 0.16 0.15 0.15 0.14 0.12 0.12 0.12 0.11 0.10 0.11 0.11 0.11 0.11 0.11 0.11 0.09 0.12 0.14 0.15 0.14 0.14 0.13 0.13 0.13 0.12 0.10 0.09 0.09 0.08 0.08 0.07 0.08 0.08 0.07 0.07 0.07 0.07 0.08 0.08 0.08 0.08 0.08 0.08 0.08 0.08 0.08 0.08 0.08 0.08 0.07 0.07 0.07 0.07

GFSWCAN_prec_pwat_117.txt.gz
Precipitable_Water
0.45 0.49 0.49 0.54 0.58 0.61 0.60 0.56 0.57 0.60 0.60 0.56 0.50 0.48 0.46 0.45 0.45 0.45 0.42 0.46 0.34 0.26 0.27 0.26 0.26 0.22 0.21 0.22 0.17 0.24 0.21 0.25 0.22 0.19 0.19 0.21 0.19 0.22 0.21 0.24 0.24 0.21 0.23 0.25 0.23 0.17 0.16 0.39 0.33 0.29 0.42 0.54 0.56 0.58
0.38 0.42 0.44 0.48 0.53 0.55 0.58 0.57 0.58 0.60 0.59 0.55 0.50 0.48 0.43 0.41 0.42 0.48 0.40 0.47 0.42 0.34 0.31 0.39 0.34 0.32 0.29 0.28 0.27 0.27 0.24 0.24 0.25 0.21 0.24 0.23 0.22 0.22 0.22 0.19 0.30 0.24 0.28 0.25 0.26 0.25 0.39 0.41 0.39 0.46 0.50 0.51 0.56 0.61
0.36 0.36 0.38 0.42 0.47 0.50 0.53 0.53 0.61 0.60 0.59 0.55 0.50 0.47 0.45 0.42 0.42 0.46 0.44 0.45 0.41 0.31 0.27 0.24 0.22 0.30 0.33 0.30 0.32 0.22 0.26 0.28 0.27 0.33 0.27 0.26 0.19 0.22 0.19 0.23 0.26 0.28 0.37 0.29 0.26 0.33 0.34 0.37 0.42 0.44 0.46 0.50 0.58 0.61
0.34 0.34 0.34 0.36 0.39 0.45 0.48 0.50 0.55 0.59 0.60 0.56 0.51 0.47 0.45 0.45 0.44 0.48 0.44 0.46 0.38 0.31 0.22 0.26 0.34 0.30 0.34 0.34 0.33 0.31 0.31 0.39 0.35 0.35 0.27 0.24 0.22 0.25 0.24 0.24 0.23 0.32 0.34 0.29 0.27 0.31 0.33 0.37 0.40 0.42 0.42 0.52 0.57 0.60
0.33 0.33 0.32 0.34 0.36 0.40 0.43 0.47 0.48 0.57 0.57 0.56 0.51 0.46 0.45 0.45 0.46 0.48 0.49 0.49 0.43 0.31 0.26 0.26 0.33 0.30 0.32 0.33 0.33 0.36 0.33 0.31 0.29 0.25 0.25 0.22 0.25 0.25 0.26 0.26 0.27 0.37 0.32 0.27 0.25 0.36 0.35 0.37 0.41 0.43 0.40 0.42 0.50 0.53
0.34 0.33 0.33 0.33 0.34 0.38 0.42 0.43 0.53 0.55 0.57 0.54 0.48 0.45 0.45 0.45 0.46 0.46 0.36 0.46 0.48 0.43 0.29 0.21 0.34 0.31 0.34 0.36 0.35 0.35 0.34 0.33 0.32 0.28 0.25 0.25 0.27 0.27 0.22 0.23 0.36 0.38 0.39 0.39 0.35 0.41 0.41 0.42 0.44 0.44 0.41 0.42 0.46 0.51
0.36 0.35 0.34 0.33 0.33 0.40 0.39 0.41 0.56 0.56 0.55 0.51 0.46 0.46 0.46 0.43 0.43 0.37 0.34 0.44 0.46 0.45 0.30 0.22 0.24 0.33 0.35 0.37 0.37 0.36 0.38 0.37 0.34 0.30 0.25 0.24 0.25 0.33 0.27 0.23 0.35 0.36 0.37 0.39 0.43 0.41 0.36 0.39 0.38 0.44 0.42 0.44 0.46 0.51
0.38 0.35 0.34 0.33 0.33 0.39 0.39 0.44 0.53 0.56 0.53 0.48 0.45 0.47 0.46 0.44 0.47 0.41 0.48 0.46 0.46 0.37 0.34 0.23 0.24 0.32 0.38 0.31 0.29 0.38 0.33 0.35 0.33 0.29 0.28 0.24 0.27 0.29 0.22 0.30 0.32 0.32 0.35 0.36 0.39 0.39 0.37 0.39 0.41 0.42 0.44 0.43 0.41 0.44
0.37 0.34 0.32 0.32 0.32 0.39 0.39 0.50 0.54 0.54 0.49 0.45 0.45 0.45 0.44 0.42 0.36 0.39 0.49 0.49 0.50 0.39 0.26 0.26 0.24 0.24 0.38 0.33 0.37 0.35 0.35 0.26 0.32 0.26 0.25 0.28 0.25 0.21 0.28 0.30 0.29 0.29 0.31 0.31 0.35 0.35 0.34 0.34 0.35 0.37 0.39 0.40 0.39 0.41
0.35 0.31 0.33 0.32 0.33 0.42 0.46 0.52 0.51 0.50 0.48 0.46 0.43 0.36 0.30 0.37 0.48 0.48 0.41 0.34 0.35 0.36 0.35 0.26 0.31 0.27 0.31 0.32 0.30 0.32 0.34 0.28 0.25 0.27 0.30 0.26 0.23 0.31 0.31 0.30 0.30 0.30 0.29 0.30 0.28 0.28 0.30 0.32 0.33 0.35 0.37 0.39 0.40 0.42
0.30 0.31 0.31 0.33 0.41 0.46 0.50 0.52 0.51 0.49 0.46 0.41 0.33 0.32 0.42 0.47 0.40 0.35 0.28 0.26 0.27 0.25 0.28 0.26 0.26 0.26 0.34 0.26 0.27 0.35 0.29 0.31 0.23 0.27 0.26 0.23 0.22 0.24 0.29 0.29 0.30 0.30 0.29 0.28 0.28 0.29 0.31 0.32 0.33 0.35 0.36 0.36 0.37 0.38
0.29 0.30 0.35 0.41 0.46 0.52 0.52 0.52 0.51 0.45 0.41 0.37 0.38 0.44 0.43 0.34 0.30 0.25 0.24 0.26 0.26 0.21 0.29 0.25 0.27 0.29 0.31 0.36 0.31 0.33 0.27 0.28 0.20 0.32 0.25 0.20 0.24 0.28 0.28 0.28 0.29 0.30 0.29 0.28 0.28 0.28 0.30 0.31 0.34 0.35 0.35 0.34 0.34 0.34
0.34 0.38 0.40 0.44 0.50 0.51 0.52 0.52 0.48 0.45 0.44 0.40 0.31 0.28 0.29 0.28 0.21 0.19 0.19 0.21 0.22 0.27 0.31 0.29 0.26 0.30 0.33 0.35 0.33 0.30 0.25 0.23 0.35 0.26 0.23 0.24 0.28 0.31 0.33 0.32 0.32 0.31 0.31 0.30 0.29 0.29 0.29 0.31 0.33 0.33 0.31 0.32 0.32 0.32
0.39 0.42 0.48 0.51 0.50 0.51 0.51 0.49 0.45 0.43 0.37 0.26 0.24 0.22 0.24 0.20 0.25 0.24 0.22 0.22 0.31 0.32 0.31 0.31 0.29 0.30 0.32 0.29 0.31 0.26 0.30 0.32 0.24 0.21 0.21 0.26 0.31 0.33 0.33 0.33 0.32 0.31 0.31 0.31 0.31 0.30 0.29 0.29 0.29 0.30 0.30 0.30 0.29 0.28
0.44 0.47 0.45 0.46 0.45 0.47 0.51 0.48 0.46 0.44 0.35 0.28 0.29 0.23 0.24 0.30 0.30 0.30 0.33 0.33 0.35 0.36 0.34 0.32 0.31 0.31 0.30 0.27 0.31 0.29 0.25 0.22 0.23 0.23 0.27 0.31 0.33 0.32 0.32 0.32 0.32 0.31 0.31 0.31 0.30 0.29 0.29 0.29 0.29 0.28 0.29 0.29 0.28 0.27
0.42 0.41 0.41 0.44 0.46 0.49 0.48 0.46 0.42 0.38 0.34 0.31 0.30 0.26 0.28 0.27 0.26 0.30 0.30 0.29 0.36 0.37 0.38 0.34 0.28 0.26 0.25 0.28 0.25 0.23 0.22 0.21 0.24 0.28 0.29 0.30 0.30 0.31 0.31 0.31 0.30 0.30 0.29 0.29 0.28 0.28 0.28 0.28 0.28 0.28 0.29 0.28 0.28 0.27
0.43 0.41 0.46 0.48 0.50 0.49 0.47 0.41 0.37 0.31 0.30 0.28 0.26 0.30 0.28 0.28 0.29 0.30 0.33 0.32 0.37 0.34 0.28 0.29 0.23 0.24 0.31 0.24 0.23 0.26 0.23 0.26 0.28 0.30 0.31 0.31 0.30 0.29 0.29 0.29 0.29 0.28 0.28 0.28 0.27 0.27 0.27 0.27 0.28 0.27 0.27 0.28 0.28 0.27
0.40 0.46 0.49 0.48 0.47 0.44 0.42 0.40 0.34 0.29 0.26 0.28 0.26 0.28 0.30 0.30 0.29 0.30 0.33 0.36 0.35 0.33 0.31 0.28 0.31 0.25 0.23 0.21 0.22 0.26 0.29 0.31 0.32 0.31 0.30 0.30 0.30 0.30 0.30 0.29 0.28 0.28 0.28 0.27 0.27 0.27 0.27 0.26 0.26 0.25 0.26 0.26 0.27 0.27
0.41 0.44 0.47 0.45 0.42 0.40 0.34 0.33 0.34 0.26 0.28 0.29 0.29 0.30 0.30 0.30 0.33 0.33 0.33 0.35 0.35 0.36 0.33 0.30 0.26 0.23 0.23 0.25 0.26 0.28 0.30 0.30 0.29 0.30 0.30 0.31 0.30 0.29 0.29 0.28 0.28 0.28 0.27 0.27 0.27 0.26 0.26 0.26 0.25 0.25 0.25 0.25 0.24 0.25
0.39 0.42 0.42 0.44 0.45 0.37 0.29 0.30 0.35 0.29 0.27 0.28 0.30 0.28 0.29 0.30 0.32 0.32 0.31 0.32 0.34 0.33 0.29 0.26 0.25 0.26 0.27 0.29 0.32 0.32 0.32 0.33 0.31 0.28 0.28 0.29 0.30 0.29 0.28 0.28 0.27 0.27 0.26 0.26 0.26 0.26 0.25 0.25 0.25 0.25 0.25 0.25 0.24 0.24
0.38 0.41 0.44 0.46 0.41 0.36 0.32 0.28 0.28 0.31 0.29 0.27 0.29 0.29 0.28 0.31 0.30 0.30 0.30 0.32 0.29 0.27 0.25 0.28 0.28 0.30 0.32 0.33 0.33 0.33 0.32 0.32 0.30 0.30 0.28 0.26 0.28 0.28 0.27 0.27 0.26 0.26 0.24 0.24 0.23 0.23 0.24 0.23 0.24 0.24 0.24 0.24 0.24 0.25
0.42 0.46 0.42 0.42 0.35 0.34 0.31 0.31 0.29 0.30 0.28 0.28 0.28 0.28 0.26 0.27 0.27 0.28 0.30 0.28 0.26 0.27 0.29 0.29 0.30 0.30 0.29 0.29 0.30 0.31 0.31 0.31 0.30 0.28 0.27 0.24 0.21 0.20 0.19 0.19 0.18 0.17 0.17 0.18 0.18 0.18 0.18 0.19 0.19 0.20 0.20 0.20 0.20 0.21
0.45 0.44 0.39 0.37 0.31 0.29 0.28 0.34 0.26 0.27 0.23 0.24 0.26 0.24 0.24 0.24 0.26 0.27 0.24 0.25 0.26 0.29 0.30 0.30 0.30 0.30 0.27 0.26 0.24 0.22 0.21 0.20 0.18 0.18 0.17 0.17 0.17 0.17 0.17 0.17 0.17 0.16 0.16 0.16 0.17 0.17 0.17 0.17 0.18 0.18 0.18 0.18 0.18 0.18
0.45 0.37 0.32 0.30 0.30 0.26 0.30 0.28 0.28 0.26 0.25 0.24 0.22 0.21 0.22 0.24 0.25 0.24 0.22 0.24 0.27 0.28 0.26 0.23 0.21 0.19 0.18 0.17 0.16 0.15 0.16 0.16 0.15 0.15 0.16 0.15 0.14 0.15 0.16 0.16 0.16 0.16 0.16 0.17 0.16 0.17 0.17 0.17 0.16 0.17 0.17 0.16 0.16 0.16
0.31 0.29 0.30 0.25 0.29 0.26 0.24 0.24 0.24 0.23 0.21 0.22 0.21 0.22 0.23 0.26 0.23 0.22 0.21 0.21 0.20 0.19 0.18 0.18 0.17 0.16 0.14 0.14 0.14 0.14 0.16 0.16 0.15 0.14 0.15 0.16 0.15 0.15 0.14 0.15 0.15 0.16 0.17 0.17 0.16 0.16 0.16 0.16 0.16 0.16 0.16 0.16 0.15 0.15
0.25 0.27 0.24 0.25 0.24 0.23 0.23 0.20 0.21 0.21 0.22 0.22 0.23 0.25 0.25 0.23 0.19 0.17 0.15 0.16 0.16 0.16 0.16 0.15 0.14 0.14 0.14 0.15 0.14 0.14 0.14 0.16 0.15 0.14 0.14 0.15 0.14 0.14 0.13 0.13 0.13 0.14 0.16 0.16 0.16 0.15 0.16 0.15 0.15 0.15 0.15 0.15 0.15 0.15
0.22 0.23 0.26 0.27 0.26 0.25 0.24 0.25 0.25 0.23 0.22 0.21 0.23 0.23 0.21 0.16 0.13 0.11 0.15 0.17 0.16 0.17 0.17 0.16 0.16 0.15 0.14 0.14 0.15 0.15 0.15 0.15 0.15 0.14 0.14 0.14 0.14 0.14 0.13 0.12 0.11 0.12 0.14 0.15 0.15 0.15 0.15 0.15 0.16 0.16 0.15 0.16 0.16 0.15
0.24 0.23 0.21 0.24 0.24 0.25 0.23 0.23 0.23 0.22 0.23 0.24 0.23 0.19 0.16 0.11 0.09 0.13 0.15 0.18 0.17 0.16 0.16 0.16 0.16 0.15 0.15 0.14 0.15 0.15 0.14 0.14 0.13 0.13 0.13 0.12 0.12 0.12 0.11 0.12 0.11 0.11 0.12 0.12 0.12 0.13 0.13 0.14 0.14 0.14 0.15 0.15 0.15 0.16
0.24 0.25 0.23 0.20 0.20 0.21 0.21 0.21 0.22 0.23 0.23 0.23 0.20 0.16 0.13 0.11 0.14 0.14 0.16 0.16 0.16 0.15 0.13 0.13 0.14 0.15 0.14 0.14 0.14 0.14 0.14 0.13 0.12 0.09 0.09 0.09 0.10 0.11 0.10 0.10 0.10 0.10 0.11 0.11 0.12 0.12 0.12 0.12 0.12 0.12 0.12 0.12 0.12 0.13
0.24 0.26 0.22 0.20 0.17 0.17 0.20 0.23 0.22 0.23 0.22 0.20 0.18 0.13 0.11 0.12 0.14 0.17 0.16 0.16 0.15 0.14 0.15 0.14 0.13 0.13 0.12 0.12 0.11 0.11 0.12 0.12 0.12 0.10 0.09 0.09 0.09 0.09 0.09 0.09 0.09 0.10 0.10 0.11 0.11 0.12 0.11 0.12 0.12 0.12 0.11 0.11 0.11 0.10
0.23 0.22 0.18 0.17 0.16 0.19 0.21 0.22 0.22 0.20 0.17 0.16 0.15 0.12 0.11 0.12 0.14 0.16 0.17 0.17 0.17 0.16 0.14 0.13 0.13 0.13 0.12 0.11 0.11 0.10 0.10 0.10 0.10 0.09 0.09 0.09 0.09 0.09 0.09 0.09 0.09 0.10 0.10 0.10 0.10 0.10 0.10 0.10 0.10 0.10 0.10 0.09 0.09 0.10
0.19 0.17 0.15 0.14 0.16 0.20 0.21 0.19 0.18 0.14 0.14 0.14 0.12 0.12 0.12 0.13 0.11 0.13 0.15 0.16 0.15 0.14 0.14 0.14 0.13 0.12 0.14 0.14 0.13 0.12 0.11 0.10 0.09 0.08 0.08 0.08 0.09 0.08 0.09 0.09 0.09 0.09 0.09 0.09 0.09 0.09 0.09 0.09 0.09 0.09 0.09 0.09 0.08 0.08
0.15 0.15 0.16 0.17 0.17 0.17 0.18 0.17 0.14 0.13 0.13 0.12 0.12 0.13 0.13 0.13 0.11 0.14 0.17 0.18 0.16 0.15 0.15 0.15 0.16 0.15 0.13 0.12 0.11 0.10 0.10 0.09 0.09 0.08 0.07 0.07 0.07 0.08 0.09 0.09 0.09 0.08 0.08 0.08 0.08 0.08 0.08 0.08 0.08 0.08 0.08 0.08 0.08 0.08

GFSWCAN_prec_pwat_120.txt.gz
Precipitable_Water
0.45 0.49 0.52 0.53 0.55 0.59 0.61 0.64 0.63 0.61 0.60 0.59 0.60 0.60 0.57 0.55 0.51 0.48 0.43 0.48 0.38 0.30 0.30 0.32 0.27 0.25 0.25 0.22 0.19 0.28 0.23 0.22 0.21 0.18 0.17 0.18 0.20 0.23 0.22 0.24 0.25 0.23 0.21 0.22 0.24 0.21 0.19 0.38 0.33 0.28 0.38 0.43 0.50 0.54
0.41 0.48 0.50 0.52 0.54 0.55 0.56 0.59 0.59 0.59 0.60 0.60 0.59 0.57 0.53 0.50 0.48 0.47 0.41 0.51 0.46 0.35 0.33 0.40 0.37 0.36 0.29 0.28 0.27 0.29 0.24 0.27 0.26 0.22 0.25 0.24 0.21 0.23 0.21 0.18 0.32 0.24 0.29 0.26 0.29 0.27 0.38 0.40 0.38 0.43 0.47 0.43 0.49 0.52
0.33 0.39 0.46 0.48 0.53 0.55 0.57 0.59 0.60 0.58 0.59 0.59 0.58 0.54 0.50 0.48 0.46 0.44 0.43 0.50 0.44 0.33 0.29 0.26 0.24 0.28 0.30 0.28 0.36 0.24 0.24 0.27 0.28 0.32 0.26 0.24 0.20 0.22 0.18 0.21 0.26 0.27 0.36 0.29 0.27 0.35 0.33 0.35 0.39 0.42 0.45 0.43 0.50 0.55
0.32 0.33 0.38 0.43 0.45 0.48 0.53 0.55 0.61 0.59 0.60 0.59 0.58 0.54 0.50 0.48 0.45 0.41 0.42 0.51 0.43 0.34 0.22 0.26 0.33 0.31 0.35 0.35 0.30 0.30 0.27 0.35 0.36 0.35 0.30 0.25 0.20 0.26 0.21 0.24 0.22 0.30 0.32 0.28 0.29 0.31 0.33 0.35 0.38 0.40 0.42 0.45 0.46 0.54
0.32 0.32 0.34 0.36 0.37 0.42 0.48 0.53 0.56 0.57 0.60 0.58 0.57 0.53 0.50 0.48 0.44 0.42 0.48 0.52 0.48 0.34 0.27 0.29 0.36 0.37 0.34 0.32 0.31 0.31 0.29 0.29 0.30 0.27 0.24 0.21 0.24 0.23 0.24 0.23 0.22 0.34 0.31 0.26 0.24 0.33 0.33 0.34 0.40 0.42 0.41 0.40 0.42 0.48
0.34 0.33 0.33 0.33 0.33 0.36 0.44 0.51 0.52 0.52 0.57 0.60 0.58 0.54 0.50 0.47 0.46 0.45 0.36 0.49 0.51 0.46 0.31 0.21 0.34 0.33 0.35 0.32 0.31 0.31 0.34 0.33 0.30 0.28 0.26 0.25 0.26 0.23 0.19 0.19 0.32 0.39 0.39 0.37 0.32 0.38 0.39 0.40 0.42 0.43 0.42 0.43 0.42 0.47
0.36 0.35 0.33 0.33 0.32 0.33 0.38 0.45 0.50 0.49 0.57 0.58 0.58 0.54 0.49 0.48 0.48 0.38 0.34 0.45 0.49 0.47 0.32 0.22 0.22 0.28 0.35 0.35 0.33 0.34 0.37 0.35 0.33 0.30 0.26 0.24 0.23 0.28 0.27 0.21 0.34 0.38 0.38 0.37 0.38 0.39 0.36 0.35 0.33 0.42 0.44 0.44 0.45 0.44
0.37 0.37 0.34 0.33 0.32 0.32 0.37 0.41 0.46 0.51 0.51 0.56 0.56 0.51 0.48 0.49 0.50 0.43 0.49 0.48 0.51 0.40 0.33 0.23 0.22 0.33 0.35 0.30 0.30 0.38 0.32 0.34 0.33 0.29 0.28 0.26 0.25 0.26 0.22 0.30 0.34 0.36 0.35 0.34 0.33 0.37 0.36 0.35 0.35 0.38 0.41 0.43 0.41 0.39
0.37 0.37 0.36 0.35 0.33 0.34 0.40 0.38 0.40 0.51 0.54 0.55 0.52 0.49 0.47 0.42 0.36 0.41 0.52 0.49 0.49 0.40 0.26 0.25 0.19 0.24 0.38 0.32 0.34 0.33 0.34 0.25 0.32 0.27 0.25 0.27 0.24 0.22 0.30 0.33 0.32 0.33 0.31 0.30 0.31 0.34 0.32 0.30 0.32 0.35 0.36 0.38 0.38 0.38
0.37 0.37 0.36 0.34 0.34 0.34 0.37 0.37 0.41 0.53 0.55 0.52 0.48 0.39 0.30 0.35 0.49 0.50 0.43 0.34 0.32 0.33 0.32 0.23 0.29 0.29 0.35 0.31 0.29 0.30 0.33 0.26 0.24 0.27 0.31 0.25 0.23 0.33 0.34 0.33 0.32 0.31 0.30 0.29 0.27 0.26 0.27 0.27 0.29 0.32 0.34 0.38 0.38 0.39
0.37 0.38 0.37 0.33 0.33 0.36 0.38 0.39 0.51 0.54 0.52 0.43 0.35 0.32 0.40 0.46 0.39 0.36 0.27 0.26 0.26 0.24 0.26 0.24 0.26 0.29 0.40 0.27 0.27 0.34 0.29 0.30 0.23 0.26 0.27 0.25 0.24 0.29 0.33 0.31 0.31 0.30 0.29 0.28 0.28 0.28 0.27 0.28 0.29 0.32 0.35 0.37 0.37 0.37
0.38 0.36 0.33 0.33 0.35 0.38 0.41 0.51 0.52 0.46 0.41 0.38 0.42 0.46 0.42 0.33 0.30 0.25 0.23 0.24 0.23 0.18 0.26 0.24 0.26 0.26 0.32 0.37 0.30 0.32 0.27 0.28 0.20 0.34 0.27 0.21 0.26 0.32 0.31 0.30 0.29 0.29 0.29 0.28 0.29 0.28 0.29 0.30 0.30 0.32 0.35 0.35 0.35 0.35
0.34 0.31 0.32 0.33 0.38 0.43 0.48 0.51 0.49 0.46 0.46 0.41 0.36 0.30 0.28 0.27 0.20 0.17 0.16 0.19 0.19 0.26 0.32 0.29 0.26 0.29 0.32 0.35 0.31 0.30 0.24 0.23 0.33 0.27 0.23 0.24 0.29 0.31 0.31 0.32 0.32 0.32 0.32 0.32 0.30 0.31 0.31 0.30 0.30 0.31 0.32 0.33 0.33 0.32
0.28 0.31 0.35 0.43 0.47 0.48 0.51 0.49 0.47 0.44 0.36 0.27 0.22 0.18 0.21 0.17 0.19 0.18 0.19 0.21 0.27 0.31 0.33 0.32 0.28 0.29 0.31 0.28 0.29 0.24 0.29 0.31 0.24 0.21 0.22 0.28 0.31 0.33 0.34 0.35 0.33 0.31 0.31 0.31 0.30 0.30 0.29 0.30 0.30 0.30 0.30 0.32 0.31 0.30
0.33 0.38 0.45 0.47 0.50 0.52 0.50 0.49 0.44 0.42 0.34 0.26 0.24 0.18 0.21 0.30 0.31 0.34 0.37 0.35 0.38 0.39 0.34 0.32 0.30 0.30 0.30 0.27 0.28 0.26 0.25 0.22 0.24 0.22 0.27 0.31 0.33 0.34 0.33 0.33 0.32 0.31 0.30 0.30 0.29 0.28 0.27 0.28 0.29 0.29 0.29 0.30 0.30 0.30
0.43 0.45 0.48 0.51 0.51 0.51 0.50 0.46 0.44 0.40 0.35 0.29 0.29 0.26 0.32 0.29 0.29 0.32 0.33 0.33 0.39 0.38 0.37 0.36 0.30 0.25 0.24 0.27 0.25 0.23 0.22 0.21 0.24 0.27 0.30 0.31 0.31 0.32 0.31 0.31 0.30 0.29 0.29 0.28 0.28 0.27 0.27 0.26 0.26 0.27 0.28 0.28 0.28 0.28
0.47 0.43 0.49 0.50 0.51 0.49 0.47 0.39 0.35 0.30 0.28 0.28 0.28 0.32 0.31 0.31 0.28 0.29 0.32 0.32 0.39 0.35 0.29 0.30 0.23 0.21 0.32 0.25 0.23 0.26 0.22 0.25 0.29 0.30 0.32 0.32 0.30 0.29 0.30 0.29 0.29 0.29 0.28 0.27 0.26 0.26 0.26 0.26 0.27 0.26 0.25 0.25 0.27 0.26
0.39 0.45 0.48 0.49 0.49 0.44 0.41 0.39 0.31 0.27 0.24 0.29 0.27 0.28 0.30 0.32 0.31 0.32 0.34 0.35 0.35 0.34 0.33 0.29 0.31 0.23 0.23 0.23 0.23 0.25 0.27 0.30 0.31 0.31 0.31 0.31 0.30 0.30 0.30 0.29 0.29 0.29 0.28 0.26 0.27 0.27 0.27 0.26 0.27 0.26 0.26 0.26 0.26 0.26
0.43 0.46 0.46 0.45 0.43 0.38 0.32 0.32 0.33 0.25 0.27 0.29 0.31 0.32 0.31 0.31 0.33 0.34 0.35 0.37 0.38 0.38 0.34 0.30 0.26 0.23 0.22 0.26 0.26 0.27 0.29 0.29 0.29 0.30 0.31 0.31 0.30 0.30 0.29 0.29 0.29 0.28 0.27 0.27 0.26 0.26 0.26 0.26 0.26 0.26 0.26 0.26 0.25 0.24
0.47 0.47 0.47 0.45 0.44 0.34 0.28 0.30 0.36 0.31 0.28 0.30 0.31 0.29 0.30 0.31 0.33 0.34 0.33 0.34 0.33 0.32 0.28 0.25 0.24 0.26 0.27 0.29 0.32 0.32 0.33 0.33 0.31 0.28 0.28 0.30 0.31 0.30 0.29 0.28 0.27 0.27 0.27 0.27 0.26 0.25 0.26 0.26 0.26 0.25 0.25 0.25 0.25 0.24
0.45 0.45 0.44 0.44 0.38 0.35 0.32 0.29 0.28 0.30 0.31 0.30 0.31 0.31 0.29 0.32 0.31 0.31 0.29 0.32 0.29 0.27 0.26 0.28 0.29 0.31 0.33 0.34 0.35 0.35 0.33 0.34 0.31 0.31 0.28 0.27 0.29 0.28 0.26 0.24 0.22 0.21 0.19 0.18 0.18 0.18 0.18 0.18 0.19 0.20 0.20 0.20 0.21 0.21
0.40 0.43 0.40 0.42 0.35 0.33 0.32 0.33 0.29 0.32 0.30 0.29 0.29 0.30 0.27 0.27 0.28 0.30 0.32 0.28 0.26 0.27 0.29 0.29 0.30 0.31 0.31 0.31 0.32 0.33 0.32 0.31 0.29 0.25 0.23 0.22 0.18 0.18 0.17 0.17 0.17 0.16 0.16 0.16 0.17 0.16 0.17 0.17 0.18 0.19 0.18 0.18 0.19 0.18
0.40 0.41 0.37 0.36 0.30 0.28 0.28 0.34 0.26 0.28 0.24 0.25 0.27 0.25 0.25 0.26 0.27 0.29 0.25 0.26 0.27 0.31 0.32 0.31 0.31 0.31 0.28 0.27 0.25 0.23 0.23 0.21 0.18 0.18 0.17 0.17 0.17 0.17 0.17 0.16 0.17 0.16 0.16 0.15 0.17 0.16 0.16 0.16 0.17 0.17 0.18 0.18 0.18 0.17
0.44 0.36 0.31 0.30 0.30 0.27 0.31 0.28 0.30 0.26 0.26 0.24 0.24 0.22 0.23 0.25 0.26 0.24 0.23 0.25 0.27 0.29 0.28 0.27 0.25 0.22 0.21 0.20 0.17 0.17 0.17 0.17 0.16 0.17 0.17 0.16 0.15 0.15 0.16 0.16 0.16 0.16 0.16 0.16 0.16 0.16 0.16 0.16 0.16 0.17 0.16 0.16 0.16 0.16
0.28 0.27 0.29 0.26 0.31 0.27 0.25 0.24 0.25 0.24 0.22 0.23 0.22 0.22 0.23 0.25 0.23 0.22 0.22 0.24 0.24 0.24 0.22 0.21 0.19 0.18 0.16 0.15 0.15 0.15 0.17 0.18 0.15 0.14 0.15 0.16 0.15 0.15 0.14 0.15 0.15 0.15 0.16 0.16 0.15 0.16 0.16 0.15 0.16 0.15 0.15 0.15 0.14 0.15
0.24 0.29 0.26 0.26 0.26 0.25 0.24 0.21 0.22 0.22 0.23 0.22 0.23 0.25 0.26 0.24 0.21 0.20 0.21 0.22 0.20 0.20 0.18 0.18 0.16 0.15 0.15 0.16 0.14 0.14 0.15 0.17 0.17 0.14 0.14 0.15 0.15 0.14 0.14 0.14 0.14 0.13 0.15 0.15 0.15 0.14 0.15 0.16 0.15 0.14 0.15 0.15 0.14 0.14
0.23 0.24 0.27 0.30 0.29 0.27 0.26 0.27 0.27 0.25 0.22 0.21 0.23 0.23 0.23 0.19 0.18 0.20 0.20 0.20 0.19 0.19 0.20 0.19 0.17 0.16 0.15 0.16 0.16 0.16 0.16 0.17 0.16 0.15 0.15 0.14 0.14 0.14 0.13 0.12 0.11 0.12 0.13 0.13 0.13 0.13 0.13 0.13 0.14 0.15 0.15 0.16 0.15 0.15
0.27 0.25 0.22 0.25 0.25 0.27 0.24 0.25 0.23 0.23 0.24 0.26 0.25 0.21 0.20 0.19 0.18 0.17 0.17 0.21 0.21 0.20 0.19 0.18 0.18 0.17 0.16 0.16 0.16 0.16 0.15 0.15 0.15 0.14 0.13 0.13 0.13 0.12 0.12 0.12 0.11 0.10 0.11 0.11 0.11 0.12 0.12 0.12 0.12 0.13 0.13 0.13 0.13 0.13
0.24 0.26 0.26 0.22 0.23 0.23 0.23 0.22 0.23 0.25 0.26 0.25 0.23 0.22 0.21 0.23 0.21 0.17 0.19 0.20 0.20 0.18 0.15 0.14 0.15 0.17 0.16 0.16 0.16 0.16 0.15 0.14 0.13 0.10 0.09 0.11 0.11 0.11 0.12 0.10 0.11 0.10 0.11 0.12 0.12 0.11 0.10 0.11 0.11 0.12 0.12 0.12 0.12 0.12
0.25 0.28 0.24 0.22 0.21 0.21 0.24 0.24 0.22 0.25 0.25 0.26 0.25 0.23 0.21 0.19 0.16 0.20 0.19 0.18 0.16 0.15 0.15 0.15 0.15 0.15 0.13 0.13 0.13 0.13 0.15 0.15 0.14 0.13 0.11 0.10 0.11 0.11 0.10 0.10 0.10 0.10 0.10 0.11 0.11 0.12 0.12 0.12 0.12 0.12 0.11 0.11 0.12 0.11
0.27 0.27 0.25 0.24 0.22 0.24 0.24 0.23 0.22 0.23 0.24 0.23 0.23 0.20 0.17 0.13 0.15 0.19 0.19 0.19 0.19 0.18 0.16 0.15 0.14 0.15 0.13 0.14 0.13 0.12 0.11 0.13 0.12 0.11 0.11 0.11 0.10 0.10 0.10 0.09 0.10 0.10 0.10 0.10 0.10 0.10 0.10 0.10 0.10 0.10 0.10 0.09 0.09 0.09
0.24 0.23 0.22 0.20 0.20 0.21 0.20 0.18 0.19 0.21 0.21 0.20 0.17 0.17 0.15 0.13 0.12 0.15 0.17 0.19 0.17 0.15 0.15 0.15 0.14 0.14 0.15 0.16 0.16 0.15 0.15 0.12 0.10 0.10 0.10 0.10 0.10 0.10 0.09 0.09 0.10 0.10 0.09 0.09 0.09 0.09 0.09 0.09 0.09 0.09 0.09 0.09 0.08 0.08
0.19 0.19 0.19 0.18 0.17 0.16 0.17 0.19 0.19 0.19 0.19 0.17 0.15 0.15 0.14 0.14 0.13 0.15 0.19 0.19 0.18 0.17 0.16 0.16 0.17 0.16 0.15 0.15 0.14 0.13 0.12 0.11 0.10 0.10 0.09 0.09 0.09 0.09 0.10 0.10 0.09 0.09 0.08 0.09 0.09 0.09 0.09 0.09 0.09 0.09 0.09 0.08 0.08 0.08

GFSWCAN_prec_pwat_123.txt.gz
Precipitable_Water
0.43 0.47 0.54 0.55 0.60 0.65 0.65 0.65 0.66 0.65 0.62 0.60 0.57 0.57 0.58 0.58 0.56 0.50 0.43 0.46 0.37 0.30 0.31 0.34 0.34 0.27 0.26 0.24 0.19 0.25 0.23 0.26 0.22 0.15 0.17 0.17 0.17 0.21 0.21 0.23 0.23 0.23 0.21 0.20 0.22 0.20 0.17 0.35 0.32 0.24 0.33 0.43 0.46 0.48
0.40 0.43 0.48 0.53 0.55 0.59 0.62 0.64 0.64 0.65 0.65 0.62 0.60 0.58 0.60 0.59 0.55 0.53 0.39 0.48 0.49 0.35 0.32 0.38 0.36 0.35 0.34 0.32 0.26 0.26 0.24 0.26 0.26 0.23 0.25 0.23 0.20 0.20 0.19 0.16 0.27 0.21 0.26 0.23 0.26 0.25 0.36 0.38 0.36 0.39 0.41 0.42 0.43 0.47
0.34 0.39 0.45 0.47 0.50 0.53 0.55 0.59 0.62 0.65 0.63 0.62 0.60 0.60 0.62 0.59 0.54 0.51 0.44 0.51 0.46 0.35 0.30 0.27 0.23 0.28 0.33 0.32 0.34 0.22 0.26 0.30 0.29 0.33 0.25 0.21 0.16 0.20 0.16 0.19 0.23 0.26 0.33 0.26 0.27 0.33 0.33 0.36 0.37 0.40 0.41 0.43 0.45 0.48
0.34 0.32 0.37 0.45 0.47 0.50 0.52 0.53 0.57 0.63 0.63 0.62 0.61 0.60 0.57 0.54 0.49 0.49 0.43 0.49 0.46 0.35 0.22 0.24 0.36 0.29 0.34 0.32 0.30 0.28 0.28 0.33 0.32 0.32 0.26 0.23 0.20 0.25 0.20 0.22 0.20 0.26 0.30 0.26 0.28 0.30 0.32 0.36 0.36 0.38 0.41 0.44 0.44 0.45
0.31 0.32 0.32 0.40 0.46 0.49 0.51 0.52 0.53 0.57 0.60 0.60 0.59 0.58 0.55 0.51 0.50 0.48 0.46 0.50 0.51 0.36 0.25 0.26 0.31 0.32 0.34 0.32 0.29 0.30 0.26 0.26 0.25 0.24 0.25 0.22 0.24 0.23 0.23 0.22 0.17 0.29 0.26 0.24 0.22 0.31 0.32 0.32 0.36 0.38 0.39 0.41 0.43 0.41
0.34 0.34 0.32 0.38 0.44 0.45 0.48 0.52 0.54 0.55 0.61 0.60 0.59 0.58 0.56 0.51 0.49 0.41 0.29 0.43 0.50 0.48 0.30 0.19 0.31 0.27 0.33 0.33 0.30 0.28 0.28 0.27 0.26 0.26 0.24 0.25 0.27 0.23 0.17 0.17 0.27 0.35 0.38 0.36 0.31 0.35 0.36 0.38 0.36 0.37 0.40 0.42 0.44 0.42
0.35 0.34 0.33 0.35 0.38 0.40 0.43 0.48 0.54 0.56 0.58 0.61 0.58 0.57 0.54 0.50 0.44 0.36 0.32 0.42 0.48 0.47 0.29 0.21 0.20 0.28 0.33 0.32 0.30 0.30 0.33 0.33 0.32 0.30 0.26 0.24 0.24 0.26 0.22 0.18 0.29 0.35 0.38 0.39 0.39 0.37 0.31 0.33 0.30 0.35 0.38 0.42 0.44 0.42
0.36 0.35 0.34 0.33 0.33 0.33 0.36 0.43 0.50 0.53 0.52 0.59 0.59 0.57 0.53 0.50 0.47 0.42 0.46 0.51 0.50 0.38 0.34 0.21 0.20 0.27 0.37 0.29 0.27 0.36 0.31 0.33 0.32 0.29 0.28 0.24 0.27 0.26 0.17 0.25 0.32 0.35 0.38 0.37 0.34 0.35 0.32 0.33 0.31 0.32 0.36 0.37 0.38 0.39
0.37 0.36 0.35 0.33 0.33 0.32 0.32 0.38 0.45 0.52 0.53 0.57 0.58 0.55 0.50 0.45 0.38 0.43 0.48 0.50 0.50 0.38 0.25 0.23 0.17 0.21 0.39 0.34 0.34 0.33 0.32 0.24 0.31 0.26 0.26 0.27 0.22 0.20 0.24 0.30 0.30 0.33 0.33 0.32 0.33 0.32 0.31 0.29 0.28 0.30 0.32 0.36 0.35 0.37
0.37 0.36 0.36 0.34 0.33 0.32 0.33 0.38 0.45 0.52 0.52 0.55 0.49 0.38 0.31 0.39 0.52 0.50 0.42 0.32 0.31 0.31 0.31 0.21 0.27 0.23 0.37 0.33 0.27 0.28 0.31 0.26 0.21 0.26 0.33 0.27 0.24 0.31 0.33 0.34 0.33 0.33 0.32 0.32 0.28 0.26 0.27 0.27 0.27 0.28 0.31 0.34 0.36 0.36
0.38 0.35 0.36 0.35 0.35 0.34 0.41 0.40 0.45 0.55 0.54 0.45 0.35 0.32 0.40 0.49 0.41 0.35 0.27 0.24 0.24 0.21 0.24 0.21 0.21 0.23 0.39 0.30 0.26 0.32 0.27 0.29 0.21 0.26 0.27 0.26 0.24 0.30 0.34 0.34 0.33 0.32 0.30 0.29 0.29 0.29 0.29 0.28 0.28 0.28 0.30 0.33 0.36 0.35
0.38 0.37 0.36 0.35 0.35 0.36 0.38 0.39 0.49 0.49 0.44 0.40 0.40 0.44 0.42 0.34 0.29 0.24 0.21 0.22 0.20 0.17 0.21 0.21 0.20 0.24 0.33 0.43 0.30 0.31 0.26 0.27 0.19 0.33 0.28 0.22 0.27 0.33 0.33 0.32 0.31 0.30 0.28 0.29 0.30 0.30 0.31 0.30 0.30 0.29 0.30 0.32 0.36 0.34
0.38 0.38 0.37 0.35 0.35 0.35 0.37 0.40 0.47 0.49 0.51 0.41 0.33 0.31 0.28 0.26 0.19 0.15 0.13 0.16 0.16 0.22 0.26 0.27 0.24 0.28 0.30 0.35 0.31 0.28 0.23 0.21 0.31 0.25 0.22 0.24 0.30 0.32 0.32 0.32 0.32 0.33 0.32 0.31 0.31 0.31 0.31 0.31 0.31 0.31 0.31 0.32 0.33 0.33
0.38 0.37 0.35 0.35 0.37 0.38 0.42 0.48 0.50 0.49 0.38 0.28 0.25 0.19 0.21 0.16 0.16 0.16 0.15 0.16 0.21 0.24 0.31 0.33 0.29 0.27 0.30 0.26 0.28 0.22 0.26 0.28 0.22 0.22 0.21 0.28 0.31 0.33 0.34 0.34 0.33 0.32 0.32 0.31 0.30 0.29 0.29 0.29 0.29 0.30 0.31 0.32 0.32 0.32
0.35 0.34 0.34 0.36 0.41 0.43 0.50 0.50 0.51 0.46 0.36 0.26 0.24 0.16 0.16 0.23 0.24 0.26 0.26 0.26 0.32 0.35 0.36 0.32 0.29 0.31 0.27 0.24 0.26 0.25 0.22 0.21 0.24 0.22 0.25 0.30 0.32 0.33 0.33 0.33 0.32 0.30 0.30 0.29 0.28 0.27 0.26 0.27 0.27 0.26 0.28 0.28 0.29 0.29
0.32 0.35 0.37 0.43 0.45 0.49 0.51 0.52 0.50 0.41 0.32 0.26 0.23 0.20 0.26 0.24 0.26 0.31 0.31 0.32 0.40 0.41 0.39 0.34 0.29 0.23 0.23 0.25 0.23 0.21 0.21 0.21 0.24 0.28 0.30 0.31 0.31 0.31 0.30 0.30 0.29 0.30 0.29 0.27 0.27 0.27 0.26 0.26 0.26 0.26 0.26 0.26 0.25 0.26
0.39 0.38 0.46 0.47 0.49 0.51 0.52 0.43 0.35 0.28 0.25 0.24 0.24 0.29 0.30 0.30 0.29 0.31 0.33 0.34 0.41 0.36 0.28 0.31 0.24 0.22 0.29 0.23 0.23 0.27 0.23 0.25 0.28 0.29 0.32 0.31 0.30 0.29 0.29 0.28 0.28 0.28 0.27 0.27 0.26 0.26 0.26 0.27 0.27 0.26 0.24 0.25 0.26 0.26
0.42 0.44 0.47 0.51 0.50 0.47 0.41 0.37 0.29 0.25 0.22 0.25 0.25 0.28 0.31 0.33 0.31 0.31 0.33 0.36 0.37 0.34 0.33 0.30 0.32 0.24 0.22 0.21 0.23 0.27 0.28 0.29 0.29 0.30 0.30 0.31 0.31 0.31 0.30 0.28 0.29 0.28 0.27 0.27 0.27 0.26 0.25 0.26 0.26 0.26 0.26 0.27 0.26 0.26
0.46 0.48 0.49 0.47 0.42 0.35 0.29 0.30 0.31 0.23 0.25 0.29 0.31 0.31 0.31 0.31 0.34 0.35 0.36 0.36 0.38 0.39 0.34 0.31 0.26 0.23 0.22 0.25 0.25 0.27 0.28 0.28 0.28 0.29 0.30 0.30 0.30 0.29 0.29 0.29 0.28 0.26 0.26 0.25 0.25 0.25 0.24 0.25 0.24 0.24 0.25 0.26 0.23 0.24
0.48 0.48 0.47 0.44 0.42 0.31 0.26 0.27 0.34 0.29 0.26 0.30 0.32 0.30 0.30 0.30 0.32 0.34 0.34 0.35 0.35 0.33 0.28 0.25 0.24 0.25 0.26 0.28 0.31 0.31 0.32 0.31 0.29 0.27 0.27 0.29 0.30 0.30 0.29 0.28 0.25 0.25 0.23 0.21 0.19 0.20 0.20 0.19 0.19 0.19 0.19 0.19 0.19 0.18
0.45 0.46 0.46 0.41 0.35 0.32 0.30 0.29 0.28 0.31 0.31 0.30 0.30 0.30 0.28 0.32 0.31 0.31 0.30 0.33 0.30 0.27 0.24 0.27 0.28 0.31 0.34 0.35 0.35 0.35 0.34 0.34 0.31 0.30 0.27 0.24 0.24 0.21 0.19 0.18 0.18 0.17 0.16 0.16 0.16 0.16 0.16 0.16 0.16 0.17 0.16 0.17 0.17 0.17
0.40 0.43 0.39 0.37 0.31 0.32 0.32 0.34 0.30 0.32 0.31 0.29 0.30 0.31 0.28 0.27 0.28 0.29 0.32 0.28 0.25 0.26 0.29 0.28 0.29 0.30 0.31 0.31 0.33 0.33 0.33 0.30 0.27 0.24 0.22 0.20 0.17 0.17 0.16 0.17 0.16 0.15 0.14 0.15 0.15 0.15 0.15 0.15 0.16 0.17 0.16 0.17 0.17 0.15
0.39 0.38 0.36 0.36 0.30 0.28 0.28 0.35 0.26 0.27 0.23 0.25 0.28 0.25 0.25 0.26 0.28 0.30 0.26 0.27 0.28 0.31 0.32 0.31 0.32 0.31 0.30 0.30 0.29 0.27 0.25 0.22 0.19 0.19 0.18 0.17 0.17 0.17 0.16 0.15 0.16 0.16 0.14 0.15 0.16 0.15 0.14 0.16 0.15 0.16 0.16 0.16 0.16 0.16
0.38 0.32 0.29 0.28 0.29 0.26 0.31 0.27 0.30 0.27 0.27 0.24 0.24 0.22 0.24 0.25 0.26 0.24 0.22 0.24 0.27 0.29 0.28 0.28 0.28 0.25 0.23 0.22 0.19 0.18 0.18 0.18 0.17 0.17 0.17 0.15 0.14 0.14 0.15 0.14 0.14 0.15 0.15 0.16 0.15 0.15 0.15 0.14 0.15 0.16 0.15 0.16 0.15 0.15
0.24 0.24 0.28 0.25 0.30 0.27 0.25 0.25 0.26 0.24 0.22 0.23 0.22 0.22 0.23 0.25 0.21 0.22 0.22 0.24 0.26 0.25 0.25 0.24 0.22 0.20 0.17 0.17 0.16 0.16 0.18 0.17 0.14 0.14 0.16 0.16 0.14 0.14 0.13 0.13 0.13 0.14 0.15 0.14 0.14 0.14 0.15 0.14 0.15 0.14 0.14 0.14 0.13 0.14
0.22 0.27 0.24 0.26 0.26 0.25 0.24 0.22 0.22 0.22 0.23 0.22 0.23 0.26 0.25 0.23 0.21 0.20 0.23 0.23 0.23 0.22 0.21 0.20 0.18 0.18 0.16 0.15 0.14 0.14 0.16 0.18 0.16 0.13 0.14 0.15 0.15 0.15 0.14 0.12 0.11 0.12 0.14 0.13 0.12 0.12 0.13 0.14 0.14 0.13 0.13 0.14 0.13 0.13
0.22 0.24 0.29 0.31 0.30 0.29 0.26 0.28 0.28 0.25 0.22 0.22 0.24 0.23 0.22 0.19 0.19 0.22 0.26 0.24 0.21 0.21 0.21 0.21 0.20 0.17 0.15 0.15 0.16 0.16 0.16 0.17 0.17 0.15 0.15 0.15 0.15 0.15 0.14 0.12 0.11 0.12 0.13 0.11 0.10 0.11 0.11 0.11 0.11 0.12 0.13 0.14 0.13 0.13
0.27 0.27 0.23 0.25 0.26 0.27 0.24 0.24 0.23 0.23 0.24 0.27 0.26 0.22 0.20 0.20 0.21 0.25 0.21 0.22 0.22 0.22 0.21 0.20 0.20 0.19 0.17 0.16 0.17 0.16 0.15 0.16 0.16 0.15 0.14 0.13 0.13 0.12 0.12 0.11 0.10 0.10 0.10 0.11 0.10 0.10 0.10 0.11 0.11 0.12 0.12 0.12 0.12 0.12
0.24 0.27 0.27 0.23 0.24 0.24 0.24 0.24 0.25 0.27 0.27 0.25 0.23 0.22 0.23 0.26 0.27 0.27 0.22 0.21 0.22 0.20 0.18 0.17 0.17 0.18 0.17 0.17 0.16 0.15 0.15 0.15 0.12 0.11 0.10 0.10 0.11 0.11 0.12 0.11 0.10 0.10 0.11 0.11 0.11 0.11 0.10 0.10 0.10 0.11 0.11 0.11 0.12 0.11
0.25 0.28 0.24 0.22 0.21 0.21 0.24 0.27 0.26 0.28 0.27 0.26 0.25 0.25 0.25 0.25 0.27 0.29 0.22 0.20 0.19 0.18 0.17 0.17 0.17 0.15 0.14 0.13 0.13 0.14 0.16 0.16 0.16 0.12 0.10 0.10 0.11 0.12 0.11 0.10 0.10 0.09 0.10 0.10 0.10 0.10 0.11 0.10 0.11 0.11 0.11 0.10 0.10 0.10
0.27 0.27 0.25 0.24 0.23 0.25 0.27 0.28 0.27 0.27 0.26 0.22 0.22 0.23 0.23 0.23 0.24 0.25 0.20 0.19 0.20 0.19 0.16 0.15 0.15 0.15 0.14 0.13 0.12 0.12 0.13 0.15 0.15 0.15 0.14 0.13 0.12 0.11 0.10 0.10 0.10 0.10 0.10 0.09 0.09 0.09 0.09 0.09 0.10 0.09 0.09 0.08 0.08 0.08
0.25 0.25 0.23 0.21 0.22 0.25 0.25 0.24 0.22 0.21 0.20 0.18 0.19 0.22 0.22 0.20 0.16 0.17 0.18 0.19 0.19 0.17 0.16 0.16 0.15 0.15 0.16 0.16 0.15 0.15 0.15 0.13 0.13 0.12 0.11 0.11 0.11 0.10 0.10 0.10 0.10 0.09 0.09 0.09 0.09 0.09 0.09 0.09 0.09 0.09 0.09 0.08 0.08 0.08
0.21 0.22 0.23 0.22 0.21 0.20 0.20 0.20 0.19 0.18 0.17 0.17 0.19 0.21 0.20 0.17 0.14 0.16 0.18 0.21 0.20 0.18 0.17 0.17 0.18 0.17 0.17 0.16 0.15 0.15 0.15 0.13 0.12 0.12 0.12 0.11 0.10 0.10 0.10 0.10 0.09 0.09 0.09 0.09 0.09 0.09 0.08 0.08 0.08 0.08 0.08 0.07 0.07 0.07

GFSWCAN_prec_pwat_126.txt.gz
Precipitable_Water
0.50 0.56 0.61 0.62 0.66 0.67 0.68 0.66 0.65 0.64 0.62 0.58 0.59 0.60 0.60 0.55 0.49 0.47 0.48 0.51 0.40 0.31 0.34 0.38 0.36 0.30 0.27 0.24 0.18 0.24 0.23 0.24 0.21 0.16 0.14 0.15 0.15 0.18 0.18 0.21 0.20 0.18 0.18 0.18 0.21 0.17 0.14 0.32 0.28 0.21 0.30 0.37 0.42 0.44
0.45 0.48 0.53 0.59 0.60 0.64 0.67 0.67 0.66 0.64 0.63 0.59 0.58 0.58 0.59 0.59 0.56 0.49 0.41 0.48 0.44 0.32 0.30 0.39 0.38 0.39 0.37 0.33 0.25 0.25 0.25 0.24 0.24 0.20 0.21 0.20 0.17 0.19 0.18 0.13 0.25 0.18 0.22 0.20 0.22 0.21 0.32 0.34 0.32 0.36 0.39 0.37 0.41 0.43
0.34 0.41 0.49 0.52 0.56 0.59 0.64 0.66 0.66 0.66 0.64 0.62 0.59 0.58 0.60 0.60 0.56 0.51 0.45 0.45 0.40 0.29 0.27 0.27 0.25 0.31 0.37 0.36 0.35 0.22 0.27 0.30 0.28 0.31 0.24 0.21 0.16 0.20 0.13 0.15 0.20 0.22 0.30 0.24 0.24 0.30 0.31 0.33 0.35 0.37 0.40 0.39 0.43 0.45
0.32 0.33 0.43 0.48 0.51 0.54 0.59 0.63 0.66 0.66 0.65 0.64 0.61 0.59 0.60 0.61 0.57 0.51 0.44 0.50 0.44 0.35 0.23 0.26 0.36 0.28 0.33 0.32 0.29 0.27 0.29 0.32 0.32 0.30 0.22 0.19 0.17 0.23 0.18 0.20 0.19 0.21 0.25 0.24 0.25 0.31 0.32 0.35 0.36 0.34 0.38 0.42 0.42 0.45
0.32 0.32 0.34 0.45 0.48 0.50 0.53 0.56 0.60 0.65 0.65 0.64 0.61 0.61 0.62 0.60 0.56 0.51 0.49 0.52 0.52 0.35 0.25 0.25 0.30 0.31 0.33 0.31 0.28 0.29 0.25 0.26 0.25 0.22 0.20 0.18 0.23 0.22 0.21 0.21 0.16 0.22 0.20 0.21 0.21 0.29 0.29 0.32 0.36 0.36 0.34 0.38 0.42 0.42
0.31 0.32 0.33 0.40 0.46 0.48 0.49 0.51 0.54 0.57 0.60 0.64 0.63 0.62 0.59 0.55 0.51 0.43 0.33 0.43 0.51 0.48 0.29 0.18 0.31 0.28 0.31 0.31 0.30 0.28 0.27 0.25 0.23 0.21 0.21 0.23 0.26 0.22 0.17 0.14 0.20 0.29 0.36 0.37 0.31 0.36 0.34 0.35 0.35 0.36 0.32 0.38 0.42 0.41
0.32 0.32 0.32 0.35 0.40 0.44 0.46 0.47 0.48 0.53 0.58 0.61 0.62 0.60 0.57 0.50 0.44 0.34 0.29 0.40 0.48 0.48 0.27 0.19 0.19 0.29 0.32 0.32 0.30 0.29 0.30 0.28 0.26 0.25 0.23 0.23 0.24 0.26 0.20 0.15 0.21 0.31 0.36 0.35 0.38 0.37 0.31 0.31 0.30 0.34 0.33 0.36 0.40 0.41
0.34 0.33 0.34 0.34 0.38 0.39 0.43 0.48 0.49 0.51 0.56 0.61 0.60 0.58 0.55 0.48 0.46 0.38 0.45 0.49 0.48 0.37 0.32 0.19 0.18 0.25 0.35 0.27 0.25 0.33 0.28 0.31 0.31 0.28 0.28 0.24 0.26 0.25 0.18 0.22 0.26 0.32 0.35 0.35 0.35 0.40 0.33 0.33 0.34 0.31 0.32 0.34 0.35 0.36
0.37 0.34 0.33 0.34 0.35 0.35 0.41 0.49 0.52 0.52 0.58 0.59 0.59 0.57 0.50 0.42 0.37 0.41 0.54 0.52 0.49 0.36 0.23 0.22 0.16 0.18 0.37 0.33 0.32 0.32 0.32 0.23 0.29 0.25 0.25 0.27 0.23 0.18 0.22 0.26 0.28 0.32 0.32 0.32 0.35 0.34 0.33 0.31 0.31 0.30 0.29 0.30 0.31 0.34
0.37 0.36 0.34 0.34 0.33 0.33 0.40 0.48 0.52 0.56 0.55 0.56 0.51 0.40 0.32 0.39 0.52 0.47 0.39 0.31 0.30 0.30 0.29 0.20 0.25 0.19 0.33 0.32 0.28 0.26 0.28 0.23 0.20 0.25 0.32 0.26 0.24 0.31 0.30 0.30 0.31 0.32 0.33 0.34 0.31 0.29 0.29 0.28 0.28 0.28 0.27 0.29 0.31 0.34
0.39 0.38 0.35 0.33 0.33 0.32 0.38 0.47 0.55 0.54 0.53 0.46 0.38 0.33 0.42 0.52 0.42 0.35 0.25 0.22 0.22 0.18 0.20 0.21 0.21 0.20 0.35 0.29 0.26 0.29 0.26 0.27 0.20 0.24 0.26 0.24 0.23 0.30 0.34 0.33 0.33 0.33 0.33 0.33 0.32 0.30 0.29 0.29 0.29 0.29 0.29 0.29 0.30 0.34
0.38 0.37 0.36 0.34 0.32 0.32 0.39 0.51 0.52 0.46 0.43 0.42 0.42 0.48 0.46 0.35 0.30 0.23 0.19 0.20 0.19 0.14 0.18 0.18 0.19 0.20 0.27 0.36 0.30 0.31 0.25 0.27 0.19 0.32 0.26 0.21 0.26 0.31 0.32 0.33 0.34 0.33 0.31 0.30 0.30 0.31 0.30 0.30 0.31 0.31 0.29 0.28 0.29 0.33
0.37 0.36 0.35 0.34 0.33 0.36 0.41 0.51 0.48 0.47 0.47 0.41 0.35 0.31 0.27 0.26 0.17 0.14 0.11 0.14 0.14 0.18 0.20 0.21 0.21 0.22 0.29 0.31 0.34 0.29 0.23 0.21 0.31 0.24 0.21 0.24 0.29 0.31 0.32 0.33 0.32 0.33 0.32 0.31 0.31 0.31 0.31 0.30 0.30 0.31 0.30 0.31 0.32 0.31
0.37 0.36 0.34 0.33 0.35 0.39 0.42 0.45 0.52 0.47 0.40 0.28 0.24 0.19 0.18 0.15 0.15 0.14 0.14 0.15 0.17 0.19 0.24 0.28 0.27 0.25 0.30 0.29 0.30 0.22 0.24 0.27 0.20 0.19 0.21 0.27 0.31 0.32 0.33 0.34 0.33 0.32 0.32 0.31 0.30 0.29 0.28 0.28 0.27 0.28 0.28 0.29 0.30 0.30
0.37 0.38 0.34 0.34 0.36 0.39 0.43 0.49 0.53 0.51 0.37 0.25 0.22 0.15 0.16 0.19 0.20 0.21 0.23 0.22 0.24 0.27 0.29 0.31 0.31 0.30 0.28 0.25 0.26 0.22 0.21 0.18 0.22 0.22 0.25 0.29 0.31 0.32 0.33 0.33 0.32 0.30 0.29 0.27 0.27 0.26 0.27 0.27 0.26 0.26 0.26 0.27 0.27 0.26
0.38 0.38 0.34 0.35 0.34 0.38 0.42 0.51 0.50 0.44 0.33 0.26 0.24 0.20 0.21 0.19 0.19 0.23 0.26 0.25 0.32 0.33 0.36 0.35 0.28 0.25 0.24 0.23 0.21 0.19 0.19 0.18 0.24 0.27 0.30 0.32 0.31 0.31 0.30 0.30 0.29 0.28 0.27 0.26 0.26 0.26 0.26 0.26 0.25 0.25 0.26 0.26 0.26 0.26
0.35 0.29 0.35 0.37 0.38 0.45 0.49 0.46 0.40 0.30 0.27 0.25 0.20 0.25 0.23 0.23 0.24 0.29 0.32 0.33 0.40 0.36 0.28 0.31 0.25 0.20 0.26 0.21 0.21 0.25 0.22 0.25 0.27 0.28 0.30 0.31 0.30 0.29 0.29 0.28 0.28 0.28 0.27 0.26 0.26 0.26 0.26 0.26 0.26 0.25 0.24 0.25 0.25 0.26
0.31 0.37 0.42 0.44 0.48 0.47 0.44 0.39 0.28 0.25 0.21 0.23 0.20 0.22 0.27 0.31 0.31 0.31 0.33 0.37 0.36 0.35 0.34 0.29 0.33 0.24 0.21 0.20 0.22 0.27 0.28 0.29 0.29 0.29 0.29 0.30 0.29 0.29 0.29 0.29 0.29 0.28 0.27 0.27 0.26 0.26 0.26 0.25 0.25 0.24 0.24 0.25 0.25 0.25
0.40 0.45 0.49 0.49 0.46 0.37 0.28 0.29 0.28 0.19 0.22 0.24 0.27 0.28 0.29 0.31 0.33 0.34 0.33 0.35 0.37 0.39 0.34 0.31 0.26 0.22 0.22 0.25 0.25 0.26 0.27 0.27 0.26 0.28 0.29 0.30 0.30 0.29 0.29 0.29 0.27 0.25 0.23 0.22 0.21 0.19 0.18 0.17 0.17 0.18 0.19 0.19 0.17 0.19
0.47 0.49 0.48 0.47 0.43 0.27 0.23 0.25 0.33 0.27 0.24 0.28 0.31 0.29 0.30 0.29 0.31 0.33 0.34 0.34 0.35 0.34 0.28 0.25 0.24 0.25 0.26 0.28 0.30 0.28 0.29 0.29 0.28 0.26 0.27 0.28 0.29 0.26 0.22 0.20 0.18 0.17 0.16 0.16 0.16 0.17 0.16 0.16 0.16 0.16 0.16 0.16 0.15 0.15
0.46 0.44 0.40 0.35 0.31 0.30 0.28 0.26 0.27 0.30 0.30 0.29 0.30 0.29 0.27 0.31 0.30 0.30 0.30 0.35 0.30 0.27 0.25 0.27 0.27 0.29 0.32 0.33 0.34 0.34 0.33 0.32 0.29 0.28 0.24 0.20 0.20 0.18 0.17 0.17 0.17 0.17 0.15 0.15 0.15 0.15 0.15 0.14 0.15 0.16 0.15 0.15 0.15 0.15
0.38 0.40 0.34 0.35 0.29 0.30 0.31 0.33 0.30 0.34 0.31 0.29 0.29 0.30 0.26 0.26 0.27 0.29 0.32 0.28 0.26 0.27 0.28 0.27 0.29 0.31 0.31 0.31 0.33 0.34 0.33 0.32 0.28 0.24 0.21 0.20 0.16 0.15 0.15 0.16 0.15 0.14 0.14 0.14 0.14 0.14 0.14 0.14 0.16 0.15 0.15 0.15 0.15 0.15
0.39 0.37 0.33 0.32 0.26 0.27 0.29 0.35 0.27 0.28 0.23 0.25 0.28 0.25 0.25 0.26 0.29 0.32 0.26 0.27 0.26 0.29 0.30 0.30 0.30 0.31 0.31 0.32 0.32 0.30 0.28 0.24 0.21 0.20 0.19 0.18 0.18 0.17 0.16 0.16 0.16 0.14 0.13 0.14 0.14 0.14 0.13 0.14 0.14 0.15 0.15 0.15 0.15 0.15
0.38 0.31 0.29 0.28 0.28 0.25 0.31 0.27 0.30 0.28 0.27 0.24 0.24 0.22 0.24 0.25 0.27 0.24 0.21 0.23 0.26 0.29 0.29 0.29 0.29 0.28 0.28 0.27 0.24 0.22 0.21 0.20 0.18 0.18 0.18 0.17 0.15 0.15 0.15 0.15 0.15 0.15 0.15 0.15 0.15 0.14 0.14 0.13 0.14 0.14 0.14 0.14 0.14 0.14
0.23 0.24 0.27 0.24 0.29 0.26 0.25 0.25 0.26 0.24 0.22 0.23 0.22 0.22 0.23 0.25 0.20 0.20 0.20 0.23 0.25 0.26 0.27 0.27 0.26 0.24 0.21 0.20 0.19 0.19 0.19 0.18 0.15 0.14 0.16 0.15 0.14 0.14 0.14 0.14 0.14 0.14 0.15 0.14 0.13 0.13 0.14 0.13 0.13 0.12 0.12 0.13 0.12 0.13
0.20 0.25 0.24 0.25 0.26 0.25 0.24 0.22 0.22 0.22 0.23 0.22 0.23 0.25 0.25 0.22 0.20 0.19 0.22 0.24 0.25 0.25 0.24 0.23 0.21 0.19 0.18 0.17 0.16 0.15 0.16 0.17 0.16 0.14 0.16 0.17 0.15 0.14 0.13 0.12 0.12 0.12 0.14 0.13 0.12 0.11 0.11 0.12 0.12 0.12 0.11 0.12 0.12 0.12
0.21 0.23 0.28 0.32 0.30 0.30 0.27 0.28 0.28 0.25 0.22 0.21 0.23 0.23 0.22 0.18 0.18 0.23 0.26 0.26 0.24 0.23 0.24 0.22 0.21 0.19 0.17 0.16 0.16 0.17 0.18 0.18 0.16 0.15 0.16 0.17 0.17 0.17 0.16 0.13 0.12 0.13 0.14 0.12 0.10 0.10 0.10 0.10 0.10 0.11 0.11 0.12 0.12 0.12
0.26 0.27 0.23 0.26 0.27 0.28 0.24 0.24 0.23 0.22 0.24 0.26 0.24 0.20 0.20 0.20 0.21 0.26 0.26 0.22 0.22 0.22 0.22 0.22 0.23 0.20 0.18 0.17 0.16 0.17 0.17 0.17 0.17 0.17 0.16 0.15 0.14 0.13 0.13 0.13 0.13 0.12 0.11 0.10 0.10 0.10 0.10 0.10 0.10 0.11 0.11 0.11 0.11 0.12
0.23 0.26 0.27 0.23 0.24 0.24 0.24 0.23 0.24 0.26 0.28 0.27 0.23 0.21 0.21 0.26 0.29 0.29 0.29 0.26 0.20 0.21 0.20 0.19 0.19 0.19 0.18 0.18 0.17 0.17 0.16 0.15 0.14 0.12 0.11 0.10 0.11 0.12 0.13 0.11 0.10 0.11 0.11 0.11 0.11 0.10 0.10 0.10 0.10 0.10 0.10 0.11 0.11 0.10
0.25 0.27 0.23 0.22 0.21 0.20 0.24 0.27 0.26 0.28 0.29 0.29 0.28 0.27 0.25 0.25 0.29 0.32 0.31 0.28 0.19 0.19 0.19 0.19 0.18 0.17 0.16 0.15 0.14 0.14 0.15 0.15 0.15 0.13 0.11 0.11 0.11 0.12 0.12 0.11 0.10 0.10 0.11 0.10 0.10 0.10 0.11 0.10 0.11 0.10 0.10 0.09 0.09 0.09
0.27 0.27 0.25 0.23 0.22 0.24 0.26 0.28 0.28 0.27 0.27 0.26 0.27 0.25 0.23 0.21 0.25 0.30 0.30 0.28 0.23 0.19 0.19 0.17 0.17 0.17 0.16 0.15 0.14 0.12 0.12 0.15 0.16 0.16 0.15 0.14 0.14 0.13 0.12 0.11 0.10 0.10 0.10 0.10 0.09 0.09 0.09 0.09 0.09 0.09 0.09 0.08 0.08 0.08
0.25 0.24 0.23 0.21 0.21 0.25 0.26 0.24 0.24 0.23 0.23 0.22 0.22 0.23 0.22 0.19 0.18 0.23 0.28 0.27 0.23 0.17 0.18 0.18 0.16 0.16 0.17 0.17 0.16 0.15 0.15 0.15 0.15 0.16 0.15 0.14 0.13 0.12 0.11 0.10 0.11 0.10 0.10 0.10 0.09 0.09 0.09 0.09 0.09 0.09 0.08 0.08 0.08 0.08
0.22 0.23 0.23 0.21 0.20 0.20 0.22 0.21 0.20 0.19 0.19 0.18 0.18 0.18 0.18 0.17 0.16 0.21 0.25 0.26 0.22 0.18 0.19 0.19 0.18 0.18 0.17 0.17 0.16 0.15 0.15 0.14 0.14 0.14 0.14 0.13 0.12 0.11 0.11 0.11 0.10 0.10 0.10 0.10 0.09 0.09 0.09 0.09 0.08 0.08 0.07 0.07 0.07 0.07

GFSWCAN_prec_pwat_132.txt.gz
Precipitable_Water
0.57 0.61 0.64 0.65 0.64 0.62 0.62 0.62 0.60 0.58 0.57 0.56 0.50 0.53 0.53 0.54 0.51 0.46 0.44 0.49 0.39 0.36 0.38 0.40 0.38 0.32 0.30 0.29 0.25 0.32 0.30 0.29 0.23 0.16 0.15 0.15 0.14 0.17 0.16 0.18 0.17 0.15 0.14 0.14 0.16 0.14 0.10 0.27 0.24 0.17 0.24 0.30 0.33 0.36
0.56 0.59 0.62 0.64 0.65 0.63 0.63 0.62 0.60 0.57 0.56 0.53 0.46 0.47 0.51 0.53 0.49 0.45 0.32 0.43 0.43 0.36 0.38 0.45 0.43 0.43 0.39 0.37 0.32 0.33 0.28 0.25 0.24 0.19 0.19 0.19 0.16 0.18 0.16 0.11 0.22 0.14 0.17 0.14 0.16 0.15 0.25 0.28 0.27 0.31 0.31 0.29 0.32 0.36
0.53 0.58 0.60 0.62 0.64 0.65 0.63 0.62 0.59 0.59 0.58 0.57 0.54 0.46 0.44 0.46 0.45 0.44 0.40 0.41 0.37 0.34 0.34 0.36 0.36 0.42 0.45 0.40 0.39 0.26 0.29 0.31 0.27 0.28 0.21 0.20 0.15 0.19 0.13 0.14 0.17 0.20 0.25 0.17 0.17 0.18 0.22 0.27 0.32 0.33 0.34 0.32 0.34 0.36
0.49 0.55 0.59 0.60 0.64 0.65 0.63 0.62 0.59 0.57 0.57 0.58 0.56 0.50 0.46 0.44 0.46 0.44 0.39 0.43 0.37 0.31 0.27 0.33 0.45 0.39 0.45 0.41 0.36 0.34 0.32 0.34 0.32 0.28 0.21 0.18 0.14 0.20 0.15 0.16 0.16 0.19 0.21 0.18 0.17 0.20 0.23 0.26 0.32 0.32 0.33 0.33 0.34 0.36
0.41 0.51 0.56 0.60 0.60 0.63 0.64 0.62 0.60 0.58 0.58 0.59 0.60 0.58 0.52 0.51 0.50 0.49 0.47 0.47 0.43 0.29 0.24 0.28 0.35 0.37 0.38 0.35 0.31 0.32 0.30 0.28 0.26 0.22 0.19 0.16 0.20 0.18 0.20 0.19 0.13 0.18 0.14 0.13 0.12 0.19 0.23 0.26 0.34 0.36 0.31 0.32 0.34 0.32
0.34 0.44 0.54 0.58 0.59 0.62 0.63 0.64 0.61 0.59 0.58 0.58 0.61 0.60 0.56 0.54 0.51 0.42 0.32 0.42 0.43 0.37 0.25 0.21 0.34 0.33 0.33 0.32 0.30 0.27 0.26 0.26 0.25 0.21 0.20 0.21 0.24 0.19 0.13 0.11 0.15 0.19 0.23 0.24 0.21 0.30 0.31 0.34 0.38 0.38 0.33 0.35 0.35 0.33
0.32 0.35 0.46 0.52 0.55 0.58 0.62 0.62 0.64 0.62 0.59 0.58 0.60 0.60 0.55 0.51 0.45 0.34 0.31 0.40 0.46 0.39 0.25 0.22 0.26 0.35 0.35 0.33 0.31 0.29 0.29 0.26 0.23 0.21 0.18 0.19 0.20 0.21 0.17 0.12 0.17 0.22 0.25 0.27 0.30 0.35 0.31 0.34 0.33 0.38 0.37 0.37 0.36 0.34
0.30 0.31 0.40 0.46 0.51 0.55 0.60 0.62 0.62 0.63 0.62 0.60 0.61 0.58 0.53 0.51 0.48 0.40 0.47 0.49 0.44 0.32 0.27 0.21 0.24 0.28 0.36 0.27 0.25 0.32 0.25 0.26 0.25 0.23 0.25 0.21 0.22 0.21 0.15 0.19 0.22 0.25 0.28 0.29 0.31 0.34 0.34 0.37 0.37 0.37 0.37 0.35 0.32 0.30
0.30 0.30 0.37 0.43 0.48 0.51 0.59 0.62 0.62 0.62 0.62 0.62 0.59 0.53 0.46 0.42 0.36 0.40 0.49 0.46 0.42 0.30 0.21 0.21 0.19 0.18 0.35 0.29 0.31 0.28 0.28 0.20 0.28 0.22 0.22 0.24 0.21 0.17 0.21 0.24 0.27 0.28 0.26 0.27 0.30 0.33 0.33 0.32 0.33 0.33 0.33 0.34 0.31 0.31
0.31 0.30 0.35 0.42 0.44 0.47 0.54 0.59 0.63 0.62 0.60 0.58 0.48 0.38 0.32 0.42 0.51 0.46 0.36 0.30 0.29 0.28 0.27 0.20 0.26 0.22 0.30 0.28 0.25 0.25 0.27 0.21 0.16 0.20 0.27 0.21 0.19 0.26 0.28 0.30 0.31 0.31 0.29 0.28 0.27 0.27 0.29 0.29 0.30 0.30 0.30 0.31 0.31 0.30
0.32 0.31 0.33 0.40 0.42 0.45 0.49 0.56 0.60 0.58 0.56 0.49 0.37 0.33 0.46 0.52 0.37 0.30 0.23 0.21 0.22 0.18 0.22 0.23 0.25 0.24 0.36 0.24 0.23 0.26 0.21 0.22 0.16 0.20 0.21 0.19 0.18 0.24 0.29 0.31 0.33 0.35 0.35 0.34 0.33 0.32 0.30 0.29 0.29 0.30 0.30 0.31 0.31 0.31
0.33 0.32 0.33 0.38 0.39 0.43 0.48 0.52 0.55 0.52 0.47 0.42 0.44 0.50 0.45 0.33 0.26 0.21 0.19 0.21 0.18 0.14 0.19 0.17 0.20 0.25 0.30 0.36 0.26 0.26 0.21 0.23 0.15 0.28 0.21 0.15 0.20 0.26 0.29 0.32 0.33 0.33 0.33 0.32 0.32 0.30 0.30 0.30 0.31 0.30 0.29 0.29 0.30 0.32
0.34 0.31 0.33 0.35 0.37 0.40 0.47 0.51 0.50 0.54 0.50 0.44 0.38 0.33 0.29 0.26 0.17 0.14 0.12 0.13 0.13 0.16 0.18 0.18 0.16 0.22 0.28 0.30 0.26 0.25 0.20 0.18 0.28 0.20 0.16 0.19 0.25 0.28 0.31 0.31 0.31 0.32 0.33 0.32 0.32 0.32 0.31 0.30 0.29 0.28 0.27 0.28 0.28 0.27
0.37 0.33 0.33 0.34 0.36 0.40 0.50 0.51 0.52 0.50 0.43 0.33 0.27 0.21 0.20 0.18 0.16 0.15 0.14 0.14 0.16 0.18 0.18 0.19 0.17 0.17 0.22 0.18 0.24 0.21 0.24 0.25 0.18 0.15 0.14 0.24 0.27 0.29 0.31 0.31 0.31 0.30 0.31 0.31 0.31 0.30 0.27 0.26 0.26 0.26 0.26 0.26 0.26 0.26
0.37 0.33 0.34 0.34 0.35 0.41 0.48 0.52 0.52 0.50 0.38 0.28 0.25 0.17 0.17 0.19 0.19 0.18 0.19 0.18 0.22 0.23 0.21 0.21 0.22 0.23 0.21 0.19 0.24 0.24 0.20 0.16 0.17 0.15 0.23 0.26 0.28 0.29 0.29 0.30 0.30 0.29 0.27 0.26 0.26 0.25 0.25 0.25 0.25 0.25 0.25 0.25 0.25 0.25
0.36 0.36 0.33 0.35 0.41 0.48 0.49 0.50 0.49 0.45 0.36 0.29 0.26 0.19 0.21 0.19 0.17 0.18 0.17 0.17 0.24 0.24 0.27 0.27 0.23 0.20 0.19 0.21 0.18 0.17 0.15 0.14 0.17 0.23 0.27 0.28 0.28 0.29 0.29 0.30 0.28 0.27 0.26 0.25 0.25 0.26 0.26 0.25 0.25 0.24 0.25 0.25 0.24 0.24
0.33 0.29 0.33 0.38 0.42 0.47 0.49 0.45 0.41 0.33 0.29 0.24 0.23 0.27 0.23 0.19 0.17 0.18 0.21 0.20 0.27 0.25 0.19 0.23 0.19 0.18 0.25 0.18 0.16 0.20 0.17 0.20 0.24 0.27 0.27 0.28 0.27 0.28 0.29 0.28 0.26 0.26 0.26 0.26 0.24 0.22 0.20 0.20 0.20 0.19 0.17 0.18 0.18 0.18
0.30 0.34 0.41 0.44 0.43 0.44 0.44 0.42 0.30 0.27 0.22 0.24 0.22 0.23 0.23 0.22 0.19 0.20 0.22 0.26 0.26 0.25 0.23 0.22 0.32 0.22 0.20 0.17 0.18 0.21 0.24 0.26 0.28 0.26 0.27 0.28 0.29 0.28 0.28 0.26 0.27 0.24 0.21 0.19 0.17 0.17 0.16 0.15 0.14 0.14 0.15 0.16 0.15 0.16
0.32 0.36 0.40 0.45 0.44 0.40 0.33 0.31 0.30 0.22 0.23 0.24 0.24 0.24 0.23 0.23 0.25 0.27 0.28 0.30 0.33 0.35 0.31 0.29 0.24 0.23 0.22 0.24 0.23 0.24 0.26 0.27 0.25 0.27 0.28 0.28 0.27 0.26 0.27 0.26 0.21 0.18 0.17 0.15 0.14 0.13 0.13 0.13 0.13 0.14 0.14 0.14 0.13 0.14
0.33 0.35 0.40 0.45 0.46 0.33 0.27 0.28 0.32 0.24 0.21 0.23 0.24 0.22 0.22 0.23 0.27 0.29 0.31 0.33 0.34 0.32 0.28 0.26 0.25 0.26 0.26 0.27 0.28 0.27 0.27 0.27 0.26 0.24 0.24 0.25 0.27 0.28 0.25 0.19 0.17 0.16 0.15 0.14 0.14 0.14 0.14 0.13 0.14 0.14 0.13 0.12 0.12 0.12
0.38 0.41 0.45 0.47 0.37 0.32 0.27 0.25 0.24 0.24 0.24 0.21 0.23 0.21 0.20 0.23 0.23 0.26 0.28 0.33 0.28 0.25 0.24 0.27 0.27 0.31 0.32 0.31 0.31 0.30 0.29 0.28 0.26 0.26 0.26 0.26 0.27 0.22 0.18 0.16 0.15 0.14 0.13 0.13 0.13 0.14 0.14 0.13 0.13 0.14 0.13 0.13 0.13 0.13
0.41 0.47 0.41 0.41 0.31 0.28 0.26 0.30 0.26 0.27 0.23 0.21 0.21 0.22 0.21 0.21 0.23 0.26 0.30 0.27 0.25 0.26 0.26 0.26 0.27 0.29 0.30 0.30 0.29 0.30 0.29 0.29 0.29 0.29 0.29 0.25 0.18 0.16 0.15 0.15 0.14 0.13 0.14 0.14 0.14 0.13 0.13 0.14 0.15 0.14 0.13 0.13 0.14 0.13
0.45 0.41 0.35 0.31 0.26 0.25 0.24 0.31 0.22 0.22 0.18 0.21 0.25 0.22 0.23 0.24 0.26 0.31 0.25 0.26 0.27 0.30 0.30 0.29 0.29 0.31 0.30 0.31 0.30 0.30 0.31 0.30 0.28 0.27 0.23 0.19 0.17 0.16 0.16 0.15 0.15 0.14 0.13 0.14 0.15 0.14 0.13 0.14 0.14 0.14 0.14 0.13 0.13 0.13
0.41 0.31 0.25 0.24 0.24 0.21 0.27 0.25 0.28 0.25 0.25 0.24 0.23 0.21 0.23 0.24 0.27 0.24 0.21 0.24 0.26 0.28 0.28 0.28 0.29 0.28 0.29 0.29 0.28 0.29 0.30 0.30 0.26 0.22 0.20 0.17 0.15 0.15 0.16 0.16 0.16 0.16 0.15 0.15 0.15 0.14 0.13 0.13 0.13 0.13 0.12 0.12 0.11 0.11
0.21 0.23 0.26 0.23 0.28 0.26 0.24 0.24 0.24 0.23 0.20 0.22 0.21 0.21 0.23 0.25 0.21 0.21 0.20 0.22 0.24 0.24 0.26 0.27 0.28 0.28 0.27 0.28 0.30 0.30 0.30 0.27 0.22 0.19 0.18 0.17 0.17 0.16 0.16 0.16 0.16 0.16 0.16 0.15 0.14 0.13 0.13 0.13 0.13 0.12 0.12 0.11 0.11 0.10
0.20 0.25 0.24 0.24 0.26 0.25 0.24 0.22 0.23 0.23 0.23 0.22 0.23 0.25 0.25 0.22 0.19 0.18 0.21 0.25 0.25 0.25 0.26 0.26 0.27 0.27 0.27 0.28 0.27 0.26 0.25 0.25 0.21 0.17 0.17 0.18 0.17 0.15 0.14 0.13 0.13 0.14 0.15 0.15 0.14 0.13 0.12 0.12 0.12 0.12 0.12 0.11 0.11 0.11
0.19 0.22 0.27 0.33 0.30 0.30 0.27 0.27 0.27 0.25 0.22 0.21 0.22 0.22 0.22 0.19 0.18 0.22 0.27 0.27 0.26 0.28 0.29 0.29 0.29 0.27 0.26 0.26 0.26 0.25 0.24 0.21 0.18 0.17 0.18 0.18 0.18 0.17 0.15 0.14 0.13 0.14 0.16 0.15 0.14 0.13 0.11 0.11 0.11 0.11 0.11 0.11 0.11 0.11
0.24 0.27 0.23 0.26 0.27 0.28 0.24 0.24 0.23 0.22 0.23 0.25 0.25 0.20 0.19 0.20 0.21 0.25 0.27 0.29 0.29 0.26 0.24 0.28 0.29 0.28 0.27 0.26 0.24 0.22 0.19 0.18 0.17 0.16 0.16 0.17 0.18 0.18 0.18 0.18 0.17 0.17 0.16 0.15 0.13 0.12 0.11 0.11 0.10 0.10 0.10 0.10 0.11 0.11
0.23 0.27 0.27 0.24 0.26 0.25 0.24 0.23 0.22 0.25 0.27 0.26 0.23 0.22 0.23 0.26 0.28 0.28 0.29 0.30 0.31 0.29 0.23 0.20 0.23 0.26 0.25 0.24 0.22 0.19 0.18 0.16 0.13 0.11 0.11 0.12 0.13 0.15 0.18 0.18 0.17 0.16 0.15 0.12 0.11 0.11 0.12 0.12 0.11 0.11 0.11 0.11 0.10 0.10
0.21 0.24 0.22 0.22 0.22 0.22 0.24 0.26 0.25 0.27 0.28 0.28 0.29 0.28 0.28 0.29 0.31 0.33 0.32 0.30 0.28 0.27 0.26 0.24 0.22 0.22 0.21 0.20 0.18 0.16 0.17 0.17 0.16 0.14 0.12 0.12 0.13 0.14 0.15 0.15 0.14 0.13 0.12 0.12 0.12 0.12 0.12 0.11 0.11 0.11 0.10 0.10 0.10 0.09
0.25 0.25 0.23 0.23 0.22 0.23 0.25 0.26 0.27 0.27 0.26 0.26 0.26 0.25 0.25 0.26 0.28 0.30 0.31 0.30 0.29 0.27 0.26 0.26 0.24 0.22 0.20 0.19 0.16 0.14 0.14 0.16 0.16 0.16 0.16 0.15 0.14 0.13 0.14 0.14 0.13 0.13 0.13 0.13 0.12 0.12 0.11 0.11 0.11 0.10 0.10 0.10 0.09 0.09
0.25 0.24 0.23 0.21 0.22 0.25 0.26 0.24 0.23 0.22 0.22 0.22 0.21 0.22 0.23 0.23 0.21 0.24 0.28 0.29 0.28 0.27 0.25 0.26 0.26 0.25 0.24 0.22 0.20 0.19 0.18 0.17 0.17 0.16 0.16 0.15 0.14 0.14 0.14 0.14 0.13 0.13 0.13 0.12 0.12 0.12 0.11 0.11 0.11 0.10 0.10 0.09 0.09 0.08
0.23 0.22 0.22 0.21 0.20 0.20 0.20 0.20 0.19 0.18 0.19 0.18 0.19 0.19 0.19 0.19 0.18 0.22 0.25 0.25 0.24 0.25 0.25 0.26 0.27 0.28 0.28 0.25 0.21 0.20 0.19 0.17 0.17 0.17 0.17 0.16 0.15 0.14 0.13 0.13 0.13 0.12 0.12 0.12 0.12 0.12 0.11 0.11 0.10 0.10 0.10 0.09 0.08 0.08

GFSWCAN_prec_pwat_138.txt.gz
Precipitable_Water
0.56 0.59 0.63 0.62 0.61 0.60 0.59 0.57 0.59 0.61 0.62 0.64 0.65 0.64 0.64 0.64 0.62 0.60 0.61 0.69 0.58 0.47 0.47 0.47 0.43 0.39 0.38 0.34 0.30 0.35 0.32 0.32 0.30 0.25 0.23 0.22 0.21 0.23 0.24 0.25 0.21 0.18 0.17 0.17 0.18 0.15 0.13 0.26 0.24 0.18 0.24 0.26 0.27 0.27
0.55 0.59 0.62 0.61 0.61 0.60 0.57 0.56 0.58 0.60 0.62 0.63 0.61 0.59 0.58 0.58 0.56 0.57 0.51 0.61 0.57 0.47 0.44 0.49 0.47 0.46 0.42 0.38 0.35 0.37 0.34 0.32 0.31 0.26 0.25 0.24 0.23 0.24 0.22 0.19 0.28 0.20 0.22 0.19 0.19 0.19 0.26 0.27 0.26 0.28 0.29 0.26 0.28 0.27
0.55 0.59 0.62 0.62 0.61 0.60 0.56 0.55 0.56 0.57 0.58 0.59 0.58 0.53 0.53 0.53 0.55 0.52 0.52 0.54 0.49 0.43 0.41 0.41 0.39 0.45 0.47 0.46 0.45 0.32 0.36 0.36 0.34 0.36 0.30 0.27 0.21 0.24 0.18 0.20 0.21 0.24 0.26 0.19 0.19 0.23 0.25 0.27 0.28 0.28 0.29 0.28 0.30 0.31
0.55 0.59 0.62 0.61 0.60 0.59 0.57 0.53 0.52 0.54 0.57 0.55 0.53 0.50 0.48 0.53 0.53 0.51 0.47 0.52 0.47 0.44 0.36 0.38 0.49 0.44 0.51 0.46 0.42 0.41 0.38 0.41 0.38 0.33 0.26 0.23 0.20 0.25 0.20 0.21 0.22 0.24 0.24 0.22 0.20 0.24 0.25 0.25 0.26 0.28 0.29 0.32 0.31 0.32
0.55 0.58 0.62 0.62 0.60 0.58 0.58 0.55 0.53 0.50 0.53 0.53 0.51 0.49 0.45 0.47 0.48 0.49 0.49 0.51 0.50 0.39 0.34 0.36 0.42 0.45 0.46 0.42 0.39 0.39 0.37 0.34 0.30 0.26 0.23 0.20 0.22 0.21 0.22 0.20 0.19 0.23 0.21 0.18 0.17 0.22 0.18 0.23 0.27 0.30 0.29 0.30 0.32 0.31
0.54 0.58 0.61 0.61 0.59 0.59 0.57 0.54 0.51 0.48 0.49 0.51 0.48 0.47 0.43 0.43 0.42 0.40 0.35 0.46 0.48 0.46 0.37 0.31 0.43 0.41 0.43 0.41 0.36 0.34 0.34 0.32 0.29 0.26 0.23 0.23 0.24 0.19 0.14 0.13 0.18 0.20 0.21 0.21 0.19 0.24 0.26 0.28 0.31 0.33 0.31 0.33 0.34 0.34
0.53 0.57 0.60 0.62 0.60 0.59 0.58 0.58 0.57 0.54 0.48 0.46 0.44 0.44 0.43 0.41 0.40 0.36 0.34 0.42 0.47 0.46 0.35 0.31 0.32 0.39 0.40 0.36 0.36 0.33 0.33 0.30 0.27 0.24 0.22 0.21 0.20 0.19 0.14 0.12 0.17 0.20 0.24 0.26 0.28 0.27 0.24 0.28 0.30 0.36 0.35 0.36 0.36 0.35
0.52 0.57 0.59 0.61 0.60 0.58 0.57 0.58 0.59 0.54 0.53 0.51 0.50 0.49 0.48 0.46 0.44 0.38 0.43 0.44 0.44 0.37 0.36 0.29 0.30 0.32 0.38 0.29 0.24 0.31 0.25 0.26 0.24 0.22 0.22 0.19 0.19 0.19 0.14 0.18 0.20 0.24 0.26 0.27 0.27 0.29 0.29 0.31 0.32 0.32 0.35 0.34 0.31 0.30
0.52 0.56 0.58 0.62 0.59 0.58 0.58 0.59 0.60 0.56 0.53 0.51 0.50 0.47 0.43 0.40 0.36 0.39 0.44 0.40 0.37 0.31 0.26 0.29 0.23 0.21 0.35 0.30 0.29 0.27 0.27 0.19 0.25 0.20 0.20 0.20 0.17 0.14 0.18 0.21 0.24 0.27 0.27 0.27 0.28 0.28 0.29 0.28 0.29 0.30 0.31 0.30 0.29 0.28
0.51 0.55 0.57 0.59 0.59 0.58 0.58 0.58 0.56 0.53 0.51 0.45 0.41 0.34 0.33 0.40 0.45 0.39 0.32 0.26 0.25 0.28 0.31 0.27 0.32 0.24 0.30 0.27 0.23 0.23 0.25 0.20 0.16 0.20 0.23 0.19 0.17 0.23 0.25 0.27 0.29 0.31 0.31 0.31 0.27 0.25 0.28 0.29 0.29 0.29 0.29 0.29 0.29 0.29
0.48 0.55 0.55 0.58 0.61 0.60 0.59 0.56 0.54 0.49 0.47 0.40 0.35 0.32 0.43 0.45 0.34 0.28 0.23 0.21 0.22 0.21 0.27 0.29 0.28 0.22 0.32 0.21 0.21 0.26 0.21 0.20 0.15 0.18 0.18 0.17 0.17 0.21 0.26 0.28 0.31 0.32 0.33 0.33 0.32 0.32 0.32 0.32 0.31 0.30 0.29 0.29 0.28 0.28
0.44 0.51 0.53 0.57 0.58 0.59 0.59 0.56 0.52 0.47 0.43 0.40 0.36 0.41 0.37 0.28 0.23 0.19 0.18 0.20 0.19 0.18 0.26 0.25 0.28 0.29 0.29 0.32 0.23 0.24 0.19 0.21 0.14 0.23 0.17 0.14 0.21 0.25 0.26 0.26 0.29 0.32 0.31 0.30 0.31 0.31 0.31 0.31 0.31 0.30 0.29 0.28 0.28 0.28
0.42 0.44 0.50 0.56 0.59 0.60 0.59 0.58 0.53 0.49 0.45 0.37 0.29 0.24 0.23 0.22 0.16 0.14 0.13 0.15 0.16 0.21 0.25 0.25 0.23 0.28 0.29 0.29 0.24 0.22 0.16 0.16 0.24 0.17 0.15 0.19 0.23 0.26 0.28 0.28 0.29 0.30 0.31 0.30 0.29 0.30 0.30 0.29 0.28 0.26 0.26 0.26 0.27 0.27
0.40 0.40 0.47 0.56 0.58 0.59 0.58 0.56 0.51 0.46 0.38 0.27 0.22 0.16 0.17 0.15 0.15 0.16 0.16 0.16 0.20 0.22 0.24 0.25 0.22 0.23 0.24 0.22 0.23 0.17 0.21 0.21 0.15 0.13 0.13 0.21 0.26 0.28 0.30 0.31 0.30 0.29 0.29 0.28 0.27 0.25 0.25 0.25 0.24 0.25 0.24 0.24 0.23 0.22
0.38 0.38 0.43 0.53 0.55 0.56 0.56 0.55 0.52 0.45 0.33 0.24 0.22 0.16 0.16 0.19 0.19 0.19 0.19 0.18 0.21 0.24 0.21 0.19 0.19 0.20 0.18 0.17 0.21 0.20 0.17 0.14 0.15 0.14 0.20 0.26 0.27 0.29 0.29 0.29 0.28 0.27 0.27 0.25 0.24 0.24 0.23 0.22 0.19 0.17 0.17 0.17 0.16 0.16
0.35 0.36 0.39 0.48 0.53 0.54 0.54 0.53 0.49 0.45 0.33 0.27 0.23 0.18 0.19 0.18 0.17 0.18 0.18 0.16 0.21 0.22 0.23 0.21 0.16 0.14 0.14 0.16 0.14 0.15 0.14 0.12 0.17 0.22 0.27 0.28 0.27 0.28 0.28 0.28 0.27 0.26 0.24 0.24 0.24 0.21 0.18 0.16 0.15 0.14 0.15 0.14 0.14 0.14
0.29 0.30 0.41 0.44 0.47 0.49 0.51 0.47 0.44 0.36 0.29 0.24 0.22 0.25 0.22 0.20 0.20 0.20 0.21 0.20 0.24 0.22 0.17 0.18 0.13 0.13 0.19 0.14 0.13 0.17 0.15 0.20 0.24 0.26 0.28 0.28 0.28 0.28 0.28 0.27 0.26 0.24 0.24 0.24 0.19 0.17 0.16 0.15 0.15 0.14 0.13 0.14 0.15 0.14
0.29 0.33 0.36 0.40 0.45 0.44 0.41 0.40 0.34 0.30 0.24 0.25 0.22 0.23 0.24 0.23 0.21 0.22 0.24 0.25 0.22 0.20 0.20 0.17 0.20 0.16 0.14 0.14 0.14 0.18 0.20 0.25 0.28 0.28 0.27 0.28 0.28 0.28 0.28 0.26 0.25 0.24 0.24 0.19 0.16 0.15 0.15 0.15 0.14 0.14 0.15 0.15 0.15 0.14
0.33 0.33 0.37 0.43 0.45 0.39 0.30 0.29 0.30 0.21 0.23 0.24 0.24 0.25 0.26 0.24 0.25 0.26 0.26 0.26 0.27 0.28 0.24 0.21 0.17 0.17 0.19 0.22 0.24 0.25 0.25 0.23 0.24 0.26 0.27 0.29 0.30 0.29 0.27 0.25 0.24 0.25 0.20 0.16 0.15 0.15 0.15 0.15 0.15 0.15 0.15 0.15 0.14 0.14
0.35 0.37 0.43 0.44 0.46 0.34 0.26 0.26 0.30 0.23 0.21 0.23 0.25 0.23 0.23 0.23 0.24 0.24 0.24 0.26 0.26 0.23 0.19 0.17 0.17 0.22 0.25 0.27 0.29 0.29 0.29 0.30 0.28 0.26 0.26 0.28 0.28 0.27 0.25 0.25 0.25 0.21 0.16 0.15 0.15 0.14 0.14 0.14 0.15 0.15 0.14 0.14 0.14 0.14
0.43 0.45 0.46 0.44 0.38 0.33 0.28 0.26 0.24 0.26 0.26 0.23 0.25 0.24 0.22 0.24 0.22 0.21 0.21 0.24 0.21 0.20 0.18 0.22 0.23 0.25 0.32 0.32 0.32 0.33 0.31 0.30 0.28 0.27 0.25 0.25 0.27 0.27 0.27 0.27 0.21 0.17 0.15 0.14 0.14 0.14 0.15 0.14 0.15 0.15 0.15 0.15 0.15 0.15
0.41 0.47 0.41 0.39 0.30 0.29 0.27 0.29 0.24 0.26 0.24 0.24 0.24 0.24 0.21 0.20 0.20 0.21 0.26 0.22 0.22 0.25 0.27 0.27 0.28 0.29 0.29 0.30 0.31 0.32 0.31 0.31 0.30 0.29 0.28 0.27 0.26 0.26 0.25 0.20 0.17 0.15 0.15 0.15 0.16 0.15 0.15 0.15 0.16 0.15 0.15 0.15 0.15 0.15
0.43 0.40 0.33 0.30 0.23 0.23 0.22 0.29 0.22 0.22 0.18 0.19 0.21 0.18 0.18 0.19 0.21 0.25 0.20 0.21 0.24 0.28 0.29 0.28 0.29 0.31 0.30 0.30 0.31 0.32 0.31 0.30 0.28 0.28 0.27 0.28 0.29 0.27 0.22 0.18 0.17 0.15 0.15 0.16 0.17 0.16 0.15 0.16 0.15 0.15 0.15 0.14 0.14 0.14
0.40 0.30 0.24 0.22 0.22 0.19 0.25 0.21 0.23 0.21 0.21 0.19 0.18 0.16 0.17 0.18 0.22 0.20 0.18 0.21 0.25 0.28 0.28 0.28 0.30 0.28 0.29 0.28 0.27 0.28 0.29 0.31 0.30 0.29 0.30 0.29 0.26 0.22 0.18 0.16 0.17 0.17 0.17 0.16 0.16 0.16 0.15 0.15 0.15 0.15 0.14 0.13 0.13 0.13
0.22 0.21 0.23 0.19 0.23 0.19 0.17 0.18 0.18 0.18 0.17 0.18 0.17 0.16 0.18 0.22 0.20 0.20 0.20 0.23 0.25 0.27 0.28 0.29 0.30 0.30 0.28 0.28 0.29 0.30 0.31 0.30 0.28 0.27 0.29 0.29 0.25 0.20 0.16 0.16 0.17 0.17 0.18 0.17 0.16 0.15 0.15 0.15 0.15 0.14 0.14 0.13 0.13 0.12
0.18 0.22 0.21 0.21 0.21 0.19 0.17 0.15 0.16 0.16 0.16 0.17 0.20 0.23 0.25 0.22 0.20 0.19 0.22 0.26 0.27 0.28 0.28 0.27 0.27 0.27 0.28 0.29 0.29 0.28 0.29 0.31 0.30 0.28 0.29 0.28 0.23 0.17 0.14 0.14 0.14 0.15 0.18 0.19 0.17 0.16 0.15 0.15 0.15 0.14 0.14 0.13 0.13 0.13
0.19 0.22 0.26 0.31 0.29 0.27 0.24 0.26 0.26 0.24 0.22 0.21 0.22 0.22 0.22 0.20 0.20 0.22 0.27 0.28 0.28 0.29 0.28 0.30 0.29 0.28 0.29 0.29 0.31 0.32 0.32 0.32 0.32 0.31 0.30 0.28 0.23 0.20 0.18 0.15 0.15 0.17 0.19 0.19 0.18 0.18 0.16 0.15 0.15 0.14 0.14 0.14 0.14 0.14
0.25 0.27 0.23 0.27 0.27 0.28 0.25 0.25 0.24 0.23 0.24 0.26 0.25 0.21 0.20 0.21 0.22 0.27 0.29 0.31 0.32 0.31 0.30 0.30 0.30 0.32 0.32 0.32 0.32 0.33 0.32 0.32 0.32 0.31 0.29 0.26 0.22 0.20 0.19 0.18 0.18 0.17 0.18 0.18 0.18 0.18 0.17 0.16 0.15 0.14 0.14 0.13 0.13 0.14
0.23 0.28 0.28 0.25 0.26 0.26 0.26 0.24 0.24 0.25 0.27 0.27 0.24 0.23 0.24 0.27 0.29 0.29 0.31 0.32 0.34 0.32 0.29 0.27 0.28 0.29 0.27 0.29 0.32 0.32 0.32 0.32 0.29 0.26 0.24 0.21 0.17 0.17 0.17 0.16 0.15 0.16 0.16 0.16 0.16 0.16 0.16 0.15 0.15 0.14 0.14 0.14 0.13 0.13
0.22 0.26 0.24 0.25 0.24 0.23 0.25 0.27 0.26 0.28 0.28 0.28 0.28 0.28 0.27 0.28 0.29 0.32 0.32 0.31 0.31 0.30 0.30 0.30 0.29 0.28 0.27 0.24 0.22 0.26 0.30 0.31 0.31 0.28 0.24 0.18 0.16 0.18 0.16 0.16 0.16 0.16 0.16 0.16 0.15 0.14 0.14 0.15 0.15 0.15 0.14 0.13 0.12 0.12
0.23 0.23 0.21 0.21 0.20 0.21 0.22 0.24 0.25 0.26 0.26 0.26 0.27 0.26 0.26 0.27 0.28 0.29 0.28 0.28 0.29 0.29 0.29 0.29 0.29 0.28 0.26 0.27 0.26 0.23 0.24 0.27 0.27 0.27 0.24 0.20 0.17 0.17 0.17 0.17 0.17 0.17 0.16 0.15 0.12 0.12 0.12 0.13 0.14 0.14 0.14 0.13 0.12 0.12
0.21 0.20 0.19 0.18 0.20 0.23 0.24 0.24 0.24 0.23 0.24 0.24 0.23 0.24 0.24 0.23 0.21 0.23 0.25 0.25 0.24 0.24 0.25 0.27 0.27 0.28 0.30 0.30 0.29 0.30 0.30 0.28 0.25 0.24 0.21 0.19 0.17 0.16 0.16 0.16 0.15 0.15 0.13 0.11 0.11 0.11 0.11 0.12 0.13 0.14 0.14 0.13 0.12 0.12
0.23 0.24 0.23 0.23 0.22 0.22 0.22 0.21 0.20 0.19 0.20 0.19 0.19 0.20 0.20 0.20 0.18 0.20 0.23 0.24 0.23 0.23 0.23 0.25 0.27 0.28 0.29 0.30 0.30 0.30 0.30 0.29 0.28 0.26 0.24 0.22 0.19 0.17 0.16 0.14 0.14 0.12 0.11 0.11 0.11 0.11 0.11 0.11 0.13 0.14 0.14 0.13 0.12 0.11

GFSWCAN_prec_pwat_141.txt.gz
Precipitable_Water
0.52 0.56 0.59 0.62 0.61 0.60 0.60 0.59 0.60 0.61 0.63 0.64 0.67 0.70 0.72 0.75 0.75 0.72 0.68 0.73 0.59 0.49 0.52 0.55 0.54 0.46 0.44 0.42 0.35 0.41 0.38 0.39 0.37 0.31 0.29 0.29 0.27 0.26 0.27 0.26 0.22 0.20 0.19 0.20 0.21 0.19 0.17 0.34 0.28 0.18 0.29 0.34 0.33 0.29
0.53 0.57 0.62 0.61 0.59 0.58 0.58 0.60 0.60 0.62 0.61 0.63 0.65 0.67 0.68 0.72 0.74 0.74 0.62 0.72 0.69 0.54 0.52 0.63 0.61 0.60 0.55 0.49 0.43 0.42 0.38 0.37 0.39 0.34 0.33 0.30 0.28 0.30 0.28 0.24 0.26 0.20 0.24 0.23 0.22 0.23 0.33 0.32 0.30 0.32 0.30 0.29 0.30 0.29
0.54 0.58 0.62 0.61 0.58 0.58 0.57 0.59 0.60 0.60 0.62 0.58 0.59 0.59 0.65 0.65 0.67 0.67 0.63 0.65 0.61 0.52 0.49 0.50 0.48 0.58 0.58 0.54 0.52 0.41 0.42 0.44 0.42 0.43 0.35 0.33 0.30 0.31 0.26 0.28 0.29 0.32 0.32 0.27 0.25 0.29 0.29 0.29 0.30 0.30 0.30 0.30 0.31 0.30
0.55 0.58 0.62 0.60 0.56 0.56 0.56 0.57 0.58 0.56 0.56 0.57 0.57 0.58 0.58 0.60 0.61 0.64 0.61 0.63 0.57 0.49 0.39 0.42 0.56 0.51 0.57 0.54 0.54 0.51 0.47 0.45 0.43 0.41 0.35 0.32 0.25 0.33 0.28 0.32 0.28 0.30 0.28 0.25 0.23 0.27 0.30 0.30 0.30 0.31 0.30 0.31 0.30 0.30
0.55 0.60 0.60 0.60 0.56 0.54 0.54 0.55 0.55 0.55 0.52 0.54 0.58 0.59 0.60 0.61 0.62 0.62 0.61 0.58 0.56 0.44 0.37 0.40 0.48 0.51 0.51 0.50 0.48 0.49 0.44 0.38 0.36 0.32 0.30 0.27 0.30 0.29 0.29 0.28 0.29 0.30 0.26 0.22 0.22 0.30 0.27 0.31 0.33 0.32 0.29 0.28 0.29 0.29
0.57 0.60 0.61 0.59 0.57 0.55 0.54 0.53 0.54 0.52 0.49 0.48 0.51 0.53 0.51 0.54 0.56 0.54 0.46 0.55 0.54 0.49 0.39 0.32 0.48 0.45 0.47 0.46 0.43 0.41 0.41 0.39 0.38 0.36 0.30 0.32 0.31 0.26 0.21 0.19 0.27 0.29 0.30 0.31 0.26 0.30 0.27 0.29 0.30 0.31 0.29 0.31 0.32 0.32
0.57 0.60 0.60 0.58 0.57 0.55 0.54 0.51 0.51 0.52 0.48 0.47 0.45 0.47 0.49 0.53 0.53 0.46 0.44 0.51 0.56 0.50 0.39 0.33 0.33 0.41 0.45 0.42 0.40 0.40 0.42 0.39 0.35 0.31 0.27 0.22 0.20 0.24 0.19 0.15 0.20 0.22 0.24 0.25 0.28 0.27 0.23 0.26 0.25 0.32 0.34 0.34 0.34 0.33
0.57 0.60 0.60 0.58 0.56 0.54 0.52 0.50 0.49 0.48 0.46 0.46 0.45 0.46 0.46 0.47 0.47 0.42 0.48 0.52 0.55 0.43 0.40 0.31 0.31 0.34 0.42 0.33 0.30 0.36 0.32 0.31 0.29 0.25 0.25 0.23 0.20 0.21 0.17 0.20 0.23 0.26 0.27 0.27 0.27 0.28 0.27 0.28 0.29 0.30 0.32 0.32 0.30 0.29
0.57 0.59 0.60 0.58 0.58 0.57 0.55 0.52 0.50 0.49 0.46 0.45 0.45 0.45 0.43 0.43 0.39 0.39 0.46 0.48 0.48 0.41 0.33 0.32 0.28 0.26 0.41 0.33 0.31 0.30 0.30 0.23 0.29 0.24 0.21 0.22 0.18 0.18 0.21 0.21 0.24 0.26 0.25 0.25 0.27 0.27 0.27 0.27 0.27 0.29 0.30 0.29 0.28 0.28
0.57 0.59 0.59 0.58 0.58 0.57 0.56 0.52 0.51 0.48 0.47 0.45 0.44 0.38 0.33 0.39 0.45 0.45 0.36 0.30 0.31 0.36 0.39 0.34 0.35 0.28 0.33 0.29 0.27 0.25 0.28 0.22 0.19 0.23 0.24 0.23 0.23 0.26 0.28 0.29 0.29 0.30 0.31 0.30 0.26 0.24 0.27 0.27 0.29 0.29 0.28 0.29 0.29 0.29
0.56 0.58 0.60 0.58 0.57 0.59 0.58 0.56 0.53 0.46 0.45 0.42 0.36 0.35 0.42 0.44 0.37 0.32 0.24 0.24 0.27 0.28 0.34 0.36 0.31 0.27 0.35 0.23 0.23 0.28 0.23 0.23 0.18 0.19 0.20 0.18 0.20 0.22 0.27 0.28 0.30 0.31 0.32 0.32 0.32 0.31 0.32 0.32 0.30 0.30 0.30 0.30 0.30 0.29
0.55 0.57 0.58 0.59 0.57 0.57 0.55 0.52 0.47 0.46 0.44 0.42 0.37 0.40 0.35 0.29 0.24 0.20 0.20 0.23 0.22 0.23 0.32 0.29 0.30 0.30 0.32 0.34 0.24 0.25 0.19 0.22 0.17 0.23 0.18 0.16 0.23 0.26 0.26 0.27 0.28 0.31 0.31 0.30 0.31 0.30 0.31 0.30 0.30 0.29 0.28 0.27 0.26 0.27
0.54 0.56 0.58 0.60 0.59 0.56 0.54 0.51 0.49 0.45 0.44 0.38 0.32 0.27 0.26 0.23 0.19 0.17 0.16 0.19 0.21 0.27 0.30 0.29 0.25 0.28 0.28 0.29 0.23 0.22 0.18 0.18 0.24 0.17 0.16 0.23 0.25 0.26 0.26 0.27 0.28 0.30 0.30 0.29 0.29 0.29 0.28 0.28 0.28 0.26 0.24 0.24 0.23 0.22
0.53 0.55 0.58 0.59 0.60 0.57 0.53 0.50 0.45 0.41 0.37 0.30 0.24 0.18 0.21 0.20 0.21 0.24 0.22 0.22 0.27 0.27 0.28 0.28 0.26 0.26 0.27 0.23 0.24 0.17 0.20 0.21 0.15 0.14 0.15 0.21 0.23 0.26 0.28 0.29 0.28 0.28 0.28 0.27 0.27 0.27 0.24 0.24 0.22 0.22 0.20 0.19 0.18 0.17
0.51 0.55 0.58 0.58 0.59 0.57 0.54 0.47 0.43 0.39 0.32 0.23 0.24 0.17 0.18 0.22 0.23 0.24 0.26 0.26 0.30 0.31 0.28 0.26 0.24 0.24 0.20 0.19 0.21 0.18 0.15 0.13 0.16 0.17 0.24 0.26 0.28 0.29 0.29 0.29 0.29 0.27 0.26 0.26 0.24 0.23 0.22 0.20 0.18 0.17 0.17 0.17 0.16 0.15
0.47 0.53 0.53 0.56 0.57 0.57 0.54 0.48 0.45 0.39 0.30 0.25 0.23 0.19 0.22 0.18 0.19 0.22 0.24 0.23 0.28 0.26 0.26 0.20 0.16 0.15 0.14 0.16 0.15 0.15 0.15 0.14 0.19 0.26 0.27 0.28 0.28 0.29 0.29 0.29 0.28 0.27 0.25 0.23 0.23 0.21 0.18 0.16 0.15 0.15 0.15 0.15 0.14 0.14
0.39 0.42 0.53 0.54 0.56 0.57 0.53 0.46 0.40 0.31 0.25 0.23 0.20 0.25 0.24 0.22 0.20 0.20 0.23 0.23 0.29 0.24 0.17 0.18 0.12 0.13 0.18 0.14 0.14 0.18 0.18 0.25 0.26 0.28 0.30 0.30 0.28 0.28 0.29 0.28 0.27 0.25 0.24 0.24 0.21 0.18 0.16 0.16 0.15 0.14 0.13 0.14 0.15 0.14
0.33 0.44 0.50 0.51 0.54 0.51 0.47 0.42 0.35 0.29 0.22 0.25 0.21 0.21 0.23 0.25 0.23 0.23 0.25 0.28 0.27 0.22 0.21 0.17 0.20 0.15 0.14 0.12 0.14 0.20 0.23 0.27 0.30 0.30 0.29 0.29 0.29 0.29 0.28 0.27 0.26 0.25 0.24 0.23 0.19 0.16 0.15 0.14 0.15 0.15 0.16 0.16 0.15 0.15
0.32 0.38 0.45 0.47 0.47 0.43 0.35 0.33 0.33 0.24 0.25 0.26 0.26 0.27 0.25 0.26 0.28 0.28 0.27 0.28 0.29 0.29 0.24 0.21 0.16 0.16 0.18 0.25 0.27 0.25 0.24 0.25 0.26 0.28 0.28 0.29 0.29 0.28 0.28 0.27 0.25 0.24 0.25 0.20 0.16 0.15 0.16 0.17 0.17 0.17 0.16 0.16 0.15 0.16
0.34 0.36 0.40 0.43 0.42 0.33 0.29 0.29 0.34 0.27 0.24 0.25 0.26 0.24 0.26 0.25 0.27 0.27 0.26 0.25 0.25 0.22 0.17 0.15 0.18 0.26 0.28 0.29 0.30 0.31 0.29 0.27 0.25 0.25 0.25 0.27 0.29 0.29 0.27 0.25 0.25 0.26 0.23 0.17 0.17 0.16 0.16 0.16 0.17 0.17 0.17 0.17 0.16 0.15
0.34 0.37 0.42 0.42 0.34 0.31 0.27 0.26 0.25 0.26 0.26 0.23 0.24 0.24 0.22 0.25 0.23 0.23 0.22 0.26 0.22 0.20 0.18 0.21 0.24 0.24 0.29 0.31 0.33 0.34 0.32 0.31 0.29 0.29 0.27 0.25 0.28 0.28 0.27 0.27 0.28 0.25 0.18 0.16 0.15 0.16 0.16 0.16 0.16 0.16 0.16 0.16 0.17 0.17
0.39 0.45 0.41 0.38 0.31 0.29 0.25 0.27 0.24 0.26 0.25 0.24 0.24 0.24 0.21 0.20 0.20 0.21 0.24 0.20 0.19 0.20 0.25 0.26 0.27 0.26 0.27 0.29 0.30 0.34 0.34 0.34 0.34 0.32 0.31 0.29 0.26 0.27 0.27 0.28 0.25 0.19 0.17 0.17 0.17 0.16 0.17 0.17 0.17 0.17 0.17 0.17 0.17 0.17
0.42 0.40 0.35 0.32 0.25 0.25 0.24 0.32 0.24 0.24 0.20 0.21 0.23 0.20 0.20 0.20 0.23 0.25 0.20 0.21 0.23 0.26 0.29 0.29 0.29 0.31 0.30 0.31 0.32 0.34 0.34 0.33 0.31 0.30 0.30 0.30 0.29 0.30 0.30 0.28 0.22 0.18 0.17 0.17 0.19 0.18 0.18 0.17 0.17 0.17 0.18 0.17 0.17 0.16
0.40 0.32 0.26 0.24 0.23 0.20 0.26 0.22 0.24 0.22 0.23 0.21 0.19 0.17 0.19 0.20 0.23 0.20 0.17 0.20 0.23 0.25 0.25 0.27 0.29 0.28 0.29 0.29 0.29 0.30 0.32 0.33 0.32 0.31 0.31 0.30 0.29 0.29 0.29 0.25 0.21 0.19 0.19 0.19 0.19 0.18 0.18 0.17 0.17 0.17 0.17 0.17 0.17 0.16
0.24 0.23 0.25 0.20 0.23 0.20 0.18 0.19 0.19 0.19 0.17 0.19 0.17 0.17 0.18 0.21 0.17 0.17 0.17 0.22 0.24 0.25 0.27 0.28 0.29 0.29 0.29 0.30 0.31 0.30 0.32 0.32 0.29 0.28 0.31 0.31 0.30 0.29 0.27 0.23 0.19 0.19 0.20 0.18 0.18 0.18 0.17 0.18 0.17 0.18 0.17 0.17 0.16 0.15
0.19 0.23 0.21 0.20 0.19 0.18 0.18 0.16 0.16 0.17 0.18 0.17 0.18 0.21 0.21 0.19 0.17 0.17 0.21 0.26 0.27 0.28 0.28 0.29 0.28 0.28 0.29 0.31 0.30 0.30 0.30 0.34 0.33 0.30 0.31 0.32 0.31 0.29 0.25 0.19 0.16 0.17 0.20 0.20 0.19 0.18 0.17 0.17 0.17 0.17 0.17 0.17 0.17 0.16
0.18 0.19 0.23 0.27 0.24 0.22 0.19 0.20 0.21 0.19 0.17 0.16 0.18 0.19 0.20 0.18 0.20 0.23 0.28 0.30 0.29 0.30 0.31 0.30 0.31 0.30 0.29 0.30 0.32 0.34 0.34 0.34 0.33 0.32 0.33 0.33 0.33 0.32 0.28 0.19 0.16 0.18 0.19 0.20 0.20 0.19 0.18 0.17 0.17 0.17 0.17 0.18 0.17 0.16
0.25 0.26 0.22 0.25 0.25 0.27 0.22 0.22 0.21 0.21 0.23 0.26 0.26 0.22 0.21 0.22 0.23 0.28 0.29 0.32 0.33 0.34 0.33 0.32 0.32 0.33 0.33 0.32 0.33 0.33 0.33 0.34 0.34 0.34 0.33 0.33 0.34 0.33 0.31 0.25 0.22 0.21 0.20 0.20 0.19 0.19 0.19 0.18 0.17 0.17 0.17 0.17 0.17 0.17
0.25 0.29 0.29 0.25 0.26 0.26 0.26 0.25 0.25 0.27 0.29 0.29 0.26 0.24 0.25 0.28 0.29 0.29 0.31 0.34 0.36 0.35 0.33 0.31 0.30 0.32 0.32 0.32 0.34 0.34 0.34 0.33 0.30 0.28 0.27 0.27 0.27 0.28 0.30 0.24 0.21 0.20 0.19 0.18 0.18 0.18 0.17 0.17 0.16 0.16 0.16 0.16 0.17 0.16
0.23 0.28 0.26 0.26 0.24 0.23 0.26 0.28 0.27 0.28 0.29 0.29 0.29 0.28 0.28 0.29 0.30 0.33 0.32 0.32 0.31 0.31 0.31 0.32 0.31 0.31 0.28 0.28 0.27 0.27 0.30 0.33 0.33 0.31 0.28 0.27 0.28 0.31 0.29 0.23 0.19 0.18 0.18 0.17 0.15 0.15 0.15 0.14 0.13 0.14 0.14 0.14 0.15 0.14
0.24 0.24 0.23 0.23 0.22 0.25 0.26 0.27 0.27 0.28 0.28 0.27 0.29 0.28 0.26 0.28 0.29 0.31 0.30 0.30 0.30 0.30 0.29 0.28 0.29 0.30 0.29 0.28 0.27 0.27 0.26 0.28 0.28 0.30 0.32 0.33 0.32 0.30 0.27 0.23 0.19 0.18 0.18 0.17 0.16 0.14 0.12 0.11 0.11 0.11 0.11 0.12 0.13 0.14
0.22 0.20 0.19 0.18 0.19 0.23 0.25 0.24 0.23 0.24 0.25 0.25 0.25 0.27 0.26 0.25 0.23 0.25 0.27 0.26 0.25 0.24 0.25 0.26 0.26 0.27 0.30 0.31 0.32 0.32 0.31 0.31 0.31 0.31 0.30 0.28 0.28 0.27 0.25 0.22 0.20 0.19 0.18 0.16 0.15 0.13 0.11 0.11 0.11 0.11 0.11 0.11 0.12 0.14
0.22 0.22 0.22 0.21 0.21 0.21 0.22 0.23 0.22 0.22 0.23 0.22 0.21 0.22 0.22 0.21 0.19 0.21 0.24 0.25 0.23 0.23 0.23 0.24 0.26 0.27 0.28 0.29 0.31 0.32 0.33 0.33 0.33 0.31 0.31 0.30 0.29 0.27 0.25 0.22 0.20 0.19 0.17 0.16 0.14 0.13 0.12 0.12 0.12 0.12 0.12 0.12 0.13 0.13

GFSWCAN_prec_pwat_144.txt.gz
Precipitable_Water
0.45 0.48 0.54 0.57 0.62 0.61 0.60 0.58 0.58 0.59 0.59 0.61 0.65 0.65 0.72 0.73 0.78 0.62 0.51 0.57 0.43 0.34 0.36 0.38 0.42 0.35 0.32 0.40 0.35 0.43 0.39 0.40 0.39 0.32 0.31 0.29 0.27 0.26 0.26 0.27 0.25 0.25 0.25 0.24 0.25 0.24 0.20 0.40 0.34 0.25 0.32 0.36 0.35 0.33
0.46 0.52 0.56 0.59 0.60 0.59 0.58 0.59 0.59 0.59 0.62 0.63 0.66 0.68 0.71 0.63 0.63 0.62 0.50 0.60 0.58 0.48 0.47 0.54 0.58 0.52 0.49 0.53 0.41 0.39 0.35 0.38 0.42 0.36 0.34 0.34 0.29 0.30 0.29 0.24 0.31 0.25 0.29 0.27 0.26 0.27 0.38 0.40 0.39 0.40 0.38 0.35 0.33 0.31
0.49 0.54 0.58 0.60 0.59 0.57 0.58 0.59 0.59 0.61 0.62 0.63 0.66 0.68 0.71 0.69 0.65 0.63 0.55 0.60 0.59 0.50 0.50 0.51 0.50 0.60 0.63 0.57 0.56 0.40 0.47 0.47 0.44 0.48 0.41 0.38 0.33 0.34 0.29 0.30 0.26 0.31 0.30 0.32 0.31 0.36 0.37 0.40 0.39 0.34 0.33 0.34 0.33 0.33
0.51 0.56 0.60 0.59 0.57 0.58 0.58 0.57 0.59 0.61 0.61 0.62 0.65 0.69 0.72 0.73 0.72 0.66 0.62 0.67 0.57 0.50 0.39 0.45 0.66 0.59 0.64 0.62 0.61 0.59 0.54 0.55 0.51 0.50 0.42 0.38 0.32 0.39 0.34 0.38 0.29 0.33 0.33 0.34 0.32 0.36 0.35 0.35 0.34 0.33 0.33 0.35 0.30 0.30
0.54 0.58 0.60 0.57 0.55 0.57 0.56 0.55 0.56 0.61 0.62 0.63 0.66 0.69 0.71 0.73 0.74 0.72 0.70 0.68 0.66 0.50 0.39 0.44 0.56 0.61 0.59 0.62 0.61 0.58 0.55 0.52 0.47 0.41 0.37 0.32 0.36 0.36 0.38 0.37 0.36 0.38 0.34 0.30 0.27 0.34 0.30 0.31 0.35 0.35 0.30 0.28 0.28 0.27
0.55 0.59 0.59 0.56 0.55 0.56 0.56 0.54 0.53 0.59 0.62 0.63 0.64 0.65 0.66 0.66 0.67 0.61 0.50 0.63 0.63 0.61 0.45 0.36 0.53 0.53 0.55 0.56 0.57 0.53 0.49 0.46 0.43 0.38 0.34 0.36 0.38 0.34 0.28 0.28 0.40 0.42 0.39 0.37 0.32 0.36 0.37 0.37 0.35 0.34 0.27 0.28 0.30 0.30
0.57 0.60 0.58 0.56 0.55 0.55 0.54 0.54 0.52 0.52 0.56 0.55 0.62 0.63 0.62 0.62 0.60 0.51 0.48 0.57 0.58 0.53 0.41 0.36 0.37 0.49 0.53 0.52 0.50 0.47 0.47 0.43 0.40 0.35 0.33 0.31 0.30 0.32 0.28 0.24 0.33 0.33 0.34 0.34 0.36 0.35 0.30 0.31 0.24 0.27 0.29 0.32 0.32 0.30
0.58 0.60 0.58 0.57 0.55 0.53 0.54 0.52 0.50 0.49 0.51 0.54 0.58 0.56 0.55 0.56 0.56 0.50 0.56 0.59 0.58 0.45 0.41 0.32 0.34 0.39 0.48 0.39 0.37 0.43 0.38 0.39 0.37 0.35 0.32 0.28 0.28 0.25 0.22 0.25 0.27 0.28 0.28 0.27 0.28 0.28 0.25 0.27 0.27 0.27 0.29 0.29 0.28 0.27
0.59 0.59 0.57 0.53 0.52 0.52 0.52 0.50 0.47 0.47 0.49 0.51 0.53 0.55 0.52 0.48 0.42 0.48 0.56 0.57 0.55 0.47 0.35 0.33 0.29 0.28 0.42 0.37 0.37 0.36 0.37 0.30 0.36 0.31 0.28 0.23 0.20 0.21 0.21 0.24 0.26 0.27 0.26 0.26 0.27 0.25 0.26 0.25 0.25 0.27 0.27 0.28 0.27 0.27
0.59 0.59 0.58 0.57 0.53 0.52 0.51 0.49 0.47 0.47 0.46 0.46 0.46 0.38 0.33 0.39 0.50 0.52 0.42 0.35 0.39 0.42 0.42 0.34 0.36 0.29 0.35 0.33 0.32 0.32 0.32 0.25 0.24 0.26 0.28 0.25 0.26 0.27 0.27 0.29 0.30 0.31 0.29 0.28 0.24 0.23 0.24 0.25 0.26 0.27 0.27 0.28 0.29 0.29
0.59 0.59 0.58 0.56 0.55 0.53 0.51 0.50 0.47 0.47 0.47 0.42 0.37 0.35 0.41 0.46 0.39 0.33 0.27 0.30 0.32 0.32 0.39 0.35 0.34 0.30 0.37 0.26 0.27 0.31 0.26 0.26 0.19 0.20 0.23 0.24 0.22 0.29 0.33 0.31 0.32 0.31 0.31 0.31 0.30 0.29 0.29 0.29 0.28 0.27 0.27 0.28 0.29 0.28
0.59 0.59 0.59 0.58 0.58 0.55 0.51 0.49 0.46 0.46 0.44 0.42 0.39 0.43 0.39 0.31 0.26 0.23 0.24 0.27 0.27 0.28 0.36 0.33 0.34 0.37 0.36 0.33 0.27 0.28 0.22 0.28 0.20 0.26 0.23 0.20 0.25 0.27 0.29 0.28 0.30 0.32 0.31 0.29 0.30 0.29 0.30 0.29 0.29 0.28 0.27 0.25 0.24 0.23
0.59 0.58 0.58 0.58 0.58 0.53 0.50 0.49 0.48 0.47 0.45 0.40 0.33 0.28 0.28 0.27 0.21 0.19 0.17 0.22 0.24 0.33 0.36 0.34 0.31 0.33 0.31 0.28 0.24 0.24 0.21 0.20 0.26 0.18 0.20 0.25 0.27 0.26 0.26 0.28 0.28 0.28 0.28 0.28 0.27 0.28 0.28 0.27 0.28 0.26 0.22 0.22 0.21 0.19
0.57 0.58 0.58 0.57 0.56 0.53 0.49 0.45 0.44 0.45 0.41 0.31 0.26 0.20 0.25 0.23 0.27 0.29 0.24 0.26 0.32 0.33 0.32 0.31 0.29 0.26 0.28 0.23 0.25 0.18 0.22 0.25 0.18 0.15 0.18 0.24 0.25 0.25 0.27 0.27 0.25 0.25 0.27 0.27 0.27 0.26 0.25 0.24 0.22 0.21 0.20 0.18 0.17 0.16
0.60 0.60 0.60 0.56 0.55 0.52 0.48 0.42 0.45 0.40 0.33 0.27 0.28 0.21 0.23 0.29 0.32 0.34 0.32 0.30 0.34 0.34 0.30 0.27 0.25 0.25 0.22 0.21 0.22 0.20 0.18 0.15 0.16 0.18 0.23 0.25 0.25 0.26 0.26 0.26 0.26 0.27 0.27 0.25 0.25 0.23 0.22 0.20 0.18 0.17 0.17 0.16 0.15 0.14
0.57 0.56 0.55 0.57 0.53 0.51 0.46 0.43 0.41 0.37 0.30 0.27 0.29 0.24 0.27 0.27 0.29 0.32 0.33 0.30 0.35 0.33 0.29 0.25 0.21 0.17 0.19 0.21 0.17 0.16 0.15 0.15 0.21 0.27 0.27 0.26 0.27 0.28 0.28 0.29 0.28 0.27 0.25 0.24 0.22 0.22 0.19 0.17 0.15 0.15 0.15 0.14 0.14 0.14
0.53 0.47 0.56 0.57 0.54 0.50 0.43 0.41 0.35 0.27 0.24 0.23 0.24 0.30 0.27 0.27 0.27 0.29 0.32 0.31 0.34 0.25 0.18 0.19 0.14 0.15 0.19 0.15 0.15 0.20 0.20 0.25 0.27 0.28 0.28 0.29 0.28 0.29 0.29 0.28 0.27 0.26 0.24 0.23 0.23 0.20 0.17 0.16 0.14 0.14 0.13 0.14 0.15 0.14
0.46 0.51 0.54 0.56 0.54 0.48 0.42 0.36 0.29 0.24 0.20 0.24 0.20 0.23 0.24 0.26 0.25 0.26 0.29 0.32 0.28 0.23 0.21 0.16 0.20 0.15 0.14 0.13 0.17 0.22 0.25 0.28 0.30 0.29 0.28 0.29 0.30 0.29 0.29 0.27 0.26 0.25 0.24 0.23 0.22 0.18 0.16 0.14 0.14 0.15 0.15 0.15 0.15 0.14
0.45 0.50 0.53 0.53 0.52 0.43 0.33 0.32 0.31 0.21 0.22 0.24 0.25 0.26 0.26 0.25 0.27 0.28 0.29 0.30 0.29 0.27 0.23 0.20 0.16 0.18 0.22 0.28 0.26 0.23 0.24 0.27 0.27 0.28 0.29 0.30 0.30 0.29 0.28 0.28 0.26 0.25 0.24 0.24 0.20 0.16 0.15 0.16 0.17 0.17 0.16 0.15 0.15 0.15
0.44 0.46 0.47 0.48 0.47 0.35 0.29 0.30 0.35 0.26 0.23 0.24 0.26 0.24 0.24 0.24 0.26 0.26 0.26 0.26 0.23 0.20 0.16 0.17 0.21 0.26 0.27 0.29 0.32 0.30 0.29 0.29 0.28 0.24 0.25 0.27 0.28 0.28 0.27 0.26 0.25 0.25 0.25 0.24 0.19 0.17 0.16 0.17 0.18 0.18 0.17 0.17 0.18 0.16
0.39 0.44 0.44 0.43 0.38 0.36 0.31 0.29 0.27 0.28 0.28 0.24 0.26 0.25 0.24 0.27 0.24 0.22 0.21 0.24 0.21 0.20 0.20 0.24 0.22 0.23 0.28 0.31 0.34 0.34 0.31 0.28 0.26 0.27 0.25 0.24 0.28 0.28 0.27 0.27 0.27 0.26 0.26 0.21 0.16 0.16 0.16 0.16 0.17 0.18 0.18 0.18 0.19 0.19
0.32 0.43 0.38 0.36 0.30 0.30 0.29 0.32 0.27 0.30 0.27 0.25 0.25 0.25 0.22 0.21 0.21 0.21 0.24 0.21 0.20 0.23 0.26 0.26 0.25 0.23 0.23 0.26 0.31 0.34 0.34 0.33 0.32 0.31 0.31 0.29 0.27 0.26 0.26 0.28 0.27 0.26 0.24 0.19 0.16 0.16 0.17 0.18 0.18 0.18 0.18 0.19 0.19 0.19
0.38 0.39 0.32 0.30 0.25 0.24 0.24 0.33 0.24 0.26 0.21 0.21 0.24 0.20 0.20 0.21 0.23 0.25 0.19 0.21 0.23 0.27 0.28 0.28 0.28 0.30 0.28 0.29 0.32 0.33 0.35 0.34 0.32 0.32 0.30 0.30 0.30 0.30 0.29 0.29 0.29 0.28 0.21 0.18 0.19 0.18 0.19 0.18 0.18 0.18 0.19 0.18 0.18 0.18
0.42 0.32 0.27 0.24 0.23 0.20 0.26 0.22 0.23 0.21 0.21 0.22 0.20 0.17 0.19 0.20 0.23 0.19 0.17 0.22 0.25 0.27 0.24 0.24 0.26 0.27 0.27 0.28 0.29 0.30 0.34 0.35 0.33 0.33 0.32 0.31 0.29 0.29 0.30 0.29 0.30 0.28 0.22 0.19 0.19 0.18 0.19 0.18 0.18 0.18 0.19 0.17 0.18 0.18
0.27 0.24 0.27 0.20 0.25 0.22 0.20 0.21 0.21 0.20 0.18 0.20 0.18 0.18 0.19 0.22 0.18 0.17 0.18 0.23 0.24 0.24 0.24 0.25 0.26 0.28 0.27 0.29 0.31 0.31 0.35 0.35 0.32 0.30 0.32 0.32 0.30 0.30 0.29 0.30 0.30 0.27 0.23 0.19 0.18 0.19 0.19 0.18 0.17 0.18 0.17 0.17 0.17 0.17
0.19 0.23 0.22 0.21 0.20 0.19 0.19 0.17 0.18 0.19 0.20 0.19 0.19 0.21 0.22 0.19 0.16 0.16 0.20 0.22 0.23 0.25 0.25 0.26 0.26 0.26 0.28 0.32 0.30 0.31 0.33 0.36 0.34 0.29 0.31 0.32 0.31 0.30 0.28 0.28 0.27 0.25 0.23 0.21 0.19 0.19 0.17 0.18 0.17 0.17 0.17 0.17 0.17 0.16
0.19 0.19 0.23 0.28 0.24 0.22 0.20 0.22 0.23 0.20 0.18 0.17 0.18 0.18 0.18 0.15 0.16 0.20 0.24 0.26 0.27 0.28 0.29 0.30 0.30 0.30 0.31 0.32 0.35 0.36 0.36 0.36 0.35 0.33 0.35 0.35 0.35 0.34 0.32 0.29 0.28 0.27 0.23 0.20 0.20 0.19 0.17 0.17 0.16 0.16 0.16 0.16 0.17 0.17
0.23 0.23 0.19 0.21 0.22 0.24 0.19 0.18 0.18 0.17 0.19 0.21 0.20 0.17 0.17 0.18 0.19 0.25 0.28 0.31 0.32 0.34 0.33 0.33 0.34 0.34 0.34 0.34 0.35 0.35 0.35 0.36 0.37 0.36 0.35 0.35 0.36 0.36 0.36 0.35 0.34 0.32 0.25 0.21 0.21 0.20 0.19 0.17 0.16 0.16 0.15 0.16 0.17 0.17
0.26 0.28 0.27 0.23 0.24 0.24 0.23 0.21 0.21 0.22 0.25 0.26 0.24 0.22 0.23 0.26 0.29 0.29 0.31 0.33 0.36 0.35 0.33 0.33 0.33 0.34 0.34 0.34 0.35 0.35 0.35 0.34 0.31 0.28 0.27 0.27 0.29 0.31 0.36 0.35 0.33 0.32 0.28 0.22 0.21 0.21 0.21 0.19 0.17 0.17 0.17 0.16 0.17 0.16
0.24 0.30 0.26 0.25 0.24 0.23 0.25 0.28 0.28 0.31 0.32 0.32 0.31 0.29 0.28 0.28 0.29 0.32 0.32 0.32 0.31 0.31 0.32 0.33 0.33 0.33 0.31 0.30 0.29 0.30 0.33 0.34 0.34 0.31 0.28 0.28 0.30 0.33 0.34 0.33 0.33 0.32 0.30 0.25 0.20 0.18 0.18 0.18 0.17 0.16 0.15 0.14 0.13 0.13
0.25 0.25 0.24 0.25 0.24 0.26 0.28 0.31 0.31 0.30 0.30 0.28 0.30 0.27 0.26 0.27 0.29 0.30 0.30 0.31 0.31 0.31 0.30 0.30 0.30 0.31 0.30 0.30 0.30 0.28 0.27 0.31 0.32 0.32 0.32 0.33 0.33 0.32 0.32 0.32 0.32 0.31 0.29 0.24 0.20 0.17 0.16 0.15 0.14 0.12 0.12 0.11 0.12 0.12
0.22 0.21 0.21 0.20 0.20 0.24 0.26 0.25 0.25 0.24 0.25 0.25 0.24 0.27 0.27 0.26 0.24 0.26 0.28 0.28 0.27 0.26 0.26 0.26 0.26 0.26 0.29 0.31 0.32 0.33 0.33 0.32 0.31 0.32 0.33 0.33 0.32 0.32 0.31 0.30 0.30 0.28 0.26 0.22 0.19 0.18 0.16 0.14 0.13 0.13 0.12 0.12 0.12 0.12
0.24 0.23 0.23 0.21 0.20 0.21 0.23 0.23 0.22 0.21 0.22 0.22 0.23 0.24 0.24 0.23 0.20 0.23 0.26 0.26 0.25 0.24 0.24 0.24 0.25 0.27 0.28 0.29 0.30 0.31 0.32 0.33 0.34 0.34 0.34 0.34 0.33 0.32 0.31 0.30 0.29 0.28 0.25 0.23 0.21 0.19 0.17 0.16 0.15 0.14 0.14 0.13 0.13 0.13

GFSWCAN_prec_pwat_150.txt.gz
Precipitable_Water
0.34 0.33 0.37 0.44 0.46 0.47 0.50 0.55 0.57 0.62 0.61 0.61 0.60 0.60 0.62 0.62 0.55 0.49 0.42 0.50 0.41 0.31 0.29 0.30 0.27 0.26 0.32 0.31 0.27 0.31 0.28 0.28 0.31 0.27 0.29 0.28 0.26 0.29 0.27 0.28 0.27 0.25 0.24 0.24 0.28 0.23 0.17 0.33 0.31 0.25 0.34 0.42 0.42 0.41
0.35 0.40 0.44 0.45 0.47 0.51 0.56 0.59 0.60 0.58 0.58 0.58 0.58 0.58 0.59 0.58 0.61 0.64 0.47 0.55 0.51 0.35 0.30 0.37 0.36 0.32 0.33 0.39 0.36 0.35 0.28 0.25 0.28 0.29 0.33 0.35 0.29 0.26 0.23 0.19 0.28 0.20 0.26 0.26 0.27 0.26 0.36 0.38 0.38 0.43 0.43 0.41 0.43 0.41
0.39 0.44 0.45 0.47 0.54 0.56 0.59 0.57 0.57 0.58 0.59 0.59 0.60 0.62 0.61 0.60 0.60 0.59 0.53 0.57 0.52 0.40 0.35 0.37 0.30 0.36 0.38 0.35 0.43 0.38 0.39 0.40 0.37 0.39 0.35 0.38 0.31 0.31 0.21 0.20 0.23 0.29 0.34 0.29 0.29 0.36 0.37 0.41 0.46 0.47 0.47 0.45 0.46 0.43
0.43 0.45 0.48 0.54 0.56 0.58 0.57 0.58 0.59 0.61 0.63 0.62 0.62 0.62 0.63 0.63 0.62 0.61 0.52 0.55 0.54 0.42 0.30 0.32 0.50 0.39 0.48 0.34 0.37 0.43 0.43 0.50 0.49 0.48 0.39 0.35 0.33 0.41 0.29 0.29 0.28 0.31 0.33 0.33 0.35 0.41 0.43 0.43 0.45 0.48 0.48 0.47 0.43 0.39
0.44 0.49 0.53 0.56 0.58 0.56 0.57 0.59 0.62 0.62 0.63 0.65 0.64 0.61 0.64 0.65 0.64 0.62 0.60 0.57 0.57 0.41 0.29 0.34 0.42 0.43 0.46 0.43 0.35 0.32 0.40 0.42 0.40 0.42 0.38 0.35 0.41 0.40 0.38 0.35 0.31 0.35 0.32 0.29 0.30 0.41 0.40 0.43 0.49 0.50 0.43 0.37 0.32 0.27
0.48 0.53 0.56 0.58 0.56 0.56 0.57 0.60 0.61 0.63 0.64 0.65 0.64 0.64 0.63 0.63 0.67 0.59 0.40 0.56 0.58 0.52 0.37 0.28 0.42 0.41 0.41 0.40 0.44 0.45 0.41 0.46 0.46 0.43 0.41 0.41 0.47 0.43 0.35 0.32 0.39 0.40 0.40 0.41 0.40 0.48 0.47 0.47 0.47 0.44 0.37 0.29 0.26 0.27
0.51 0.55 0.57 0.56 0.56 0.57 0.58 0.61 0.62 0.63 0.64 0.66 0.66 0.64 0.56 0.59 0.60 0.45 0.37 0.45 0.56 0.54 0.40 0.30 0.31 0.46 0.52 0.52 0.50 0.48 0.55 0.50 0.50 0.44 0.40 0.41 0.44 0.45 0.37 0.30 0.39 0.41 0.44 0.44 0.48 0.48 0.42 0.43 0.38 0.39 0.33 0.26 0.28 0.29
0.55 0.57 0.57 0.56 0.55 0.56 0.57 0.61 0.62 0.63 0.64 0.66 0.68 0.67 0.63 0.62 0.58 0.45 0.50 0.56 0.58 0.51 0.48 0.32 0.33 0.40 0.53 0.42 0.41 0.51 0.45 0.48 0.47 0.43 0.43 0.41 0.43 0.41 0.33 0.41 0.43 0.44 0.45 0.45 0.45 0.46 0.44 0.42 0.38 0.33 0.27 0.24 0.24 0.23
0.57 0.57 0.56 0.55 0.54 0.55 0.54 0.59 0.61 0.61 0.61 0.63 0.66 0.66 0.62 0.57 0.45 0.50 0.60 0.61 0.59 0.52 0.36 0.36 0.30 0.29 0.50 0.44 0.45 0.44 0.42 0.33 0.40 0.36 0.37 0.36 0.31 0.27 0.36 0.40 0.41 0.42 0.41 0.41 0.44 0.42 0.40 0.35 0.29 0.24 0.22 0.22 0.22 0.24
0.58 0.55 0.55 0.54 0.54 0.54 0.51 0.56 0.58 0.58 0.56 0.59 0.57 0.49 0.42 0.53 0.65 0.63 0.53 0.45 0.45 0.45 0.44 0.36 0.42 0.34 0.43 0.40 0.37 0.36 0.38 0.33 0.29 0.33 0.37 0.32 0.30 0.37 0.42 0.43 0.44 0.42 0.42 0.40 0.35 0.32 0.28 0.22 0.20 0.21 0.22 0.25 0.26 0.25
0.55 0.55 0.54 0.53 0.52 0.51 0.50 0.51 0.49 0.55 0.55 0.50 0.40 0.38 0.49 0.56 0.51 0.44 0.36 0.35 0.37 0.33 0.40 0.39 0.39 0.34 0.42 0.31 0.31 0.35 0.31 0.30 0.25 0.29 0.28 0.27 0.27 0.35 0.40 0.40 0.41 0.40 0.37 0.33 0.28 0.25 0.22 0.20 0.21 0.23 0.25 0.26 0.25 0.23
0.56 0.55 0.53 0.53 0.51 0.50 0.49 0.48 0.49 0.48 0.45 0.44 0.43 0.48 0.46 0.40 0.32 0.30 0.30 0.34 0.32 0.29 0.37 0.36 0.37 0.39 0.38 0.40 0.30 0.33 0.29 0.28 0.21 0.32 0.26 0.23 0.31 0.34 0.34 0.32 0.31 0.31 0.27 0.24 0.24 0.23 0.24 0.25 0.26 0.26 0.25 0.23 0.21 0.19
0.57 0.55 0.55 0.53 0.52 0.48 0.49 0.51 0.51 0.51 0.48 0.43 0.35 0.33 0.31 0.32 0.25 0.22 0.23 0.27 0.28 0.35 0.38 0.36 0.33 0.35 0.34 0.34 0.31 0.30 0.24 0.24 0.31 0.25 0.23 0.27 0.33 0.33 0.32 0.30 0.29 0.31 0.29 0.27 0.26 0.27 0.27 0.27 0.27 0.25 0.22 0.20 0.17 0.16
0.56 0.55 0.54 0.52 0.50 0.49 0.50 0.50 0.50 0.46 0.39 0.32 0.25 0.21 0.24 0.24 0.27 0.27 0.26 0.29 0.35 0.35 0.35 0.35 0.32 0.31 0.32 0.28 0.27 0.21 0.28 0.29 0.21 0.19 0.21 0.29 0.30 0.30 0.30 0.30 0.28 0.27 0.27 0.27 0.26 0.27 0.26 0.25 0.24 0.22 0.18 0.17 0.15 0.14
0.58 0.56 0.53 0.52 0.51 0.48 0.48 0.46 0.44 0.40 0.34 0.26 0.28 0.25 0.28 0.33 0.35 0.34 0.36 0.35 0.38 0.38 0.34 0.31 0.30 0.29 0.26 0.23 0.23 0.23 0.22 0.19 0.20 0.20 0.24 0.28 0.30 0.28 0.27 0.28 0.27 0.26 0.26 0.26 0.27 0.26 0.25 0.24 0.20 0.17 0.16 0.15 0.14 0.13
0.54 0.52 0.51 0.53 0.49 0.45 0.45 0.42 0.39 0.38 0.37 0.36 0.35 0.31 0.36 0.32 0.33 0.35 0.35 0.35 0.39 0.36 0.32 0.29 0.23 0.21 0.21 0.22 0.21 0.19 0.18 0.17 0.22 0.27 0.28 0.29 0.28 0.27 0.27 0.28 0.26 0.25 0.26 0.26 0.26 0.24 0.23 0.20 0.17 0.15 0.14 0.14 0.13 0.12
0.53 0.47 0.52 0.49 0.45 0.42 0.42 0.37 0.37 0.35 0.34 0.33 0.33 0.39 0.37 0.36 0.35 0.37 0.39 0.38 0.40 0.29 0.24 0.22 0.17 0.18 0.23 0.20 0.21 0.24 0.20 0.24 0.28 0.28 0.29 0.30 0.27 0.26 0.26 0.26 0.24 0.26 0.26 0.25 0.23 0.21 0.20 0.18 0.15 0.12 0.11 0.12 0.13 0.13
0.48 0.51 0.50 0.45 0.43 0.38 0.35 0.36 0.34 0.34 0.30 0.34 0.31 0.35 0.37 0.38 0.35 0.35 0.35 0.35 0.30 0.27 0.24 0.21 0.24 0.20 0.18 0.18 0.19 0.24 0.26 0.29 0.30 0.28 0.28 0.28 0.27 0.27 0.26 0.25 0.26 0.27 0.25 0.23 0.21 0.21 0.19 0.15 0.12 0.11 0.12 0.12 0.12 0.12
0.49 0.49 0.46 0.41 0.37 0.31 0.28 0.31 0.33 0.28 0.31 0.34 0.36 0.37 0.34 0.32 0.32 0.31 0.29 0.28 0.29 0.29 0.26 0.25 0.20 0.19 0.21 0.23 0.23 0.25 0.26 0.26 0.24 0.26 0.28 0.29 0.29 0.28 0.28 0.28 0.27 0.25 0.24 0.22 0.21 0.20 0.17 0.14 0.12 0.12 0.13 0.13 0.12 0.12
0.48 0.46 0.44 0.40 0.35 0.25 0.22 0.24 0.31 0.26 0.24 0.28 0.30 0.27 0.25 0.23 0.23 0.22 0.22 0.22 0.21 0.21 0.20 0.20 0.21 0.24 0.24 0.25 0.27 0.27 0.28 0.29 0.27 0.25 0.26 0.28 0.30 0.29 0.28 0.27 0.26 0.26 0.24 0.22 0.22 0.21 0.16 0.13 0.14 0.14 0.14 0.13 0.13 0.13
0.43 0.41 0.40 0.37 0.31 0.28 0.26 0.23 0.22 0.24 0.24 0.23 0.24 0.24 0.21 0.21 0.17 0.17 0.18 0.22 0.17 0.19 0.18 0.23 0.23 0.27 0.31 0.31 0.31 0.32 0.31 0.30 0.28 0.27 0.26 0.26 0.29 0.29 0.28 0.28 0.27 0.25 0.23 0.22 0.22 0.21 0.17 0.14 0.15 0.15 0.14 0.14 0.15 0.16
0.41 0.42 0.34 0.34 0.28 0.28 0.26 0.28 0.24 0.26 0.23 0.23 0.22 0.22 0.19 0.17 0.17 0.18 0.23 0.18 0.20 0.22 0.24 0.23 0.23 0.25 0.27 0.28 0.29 0.30 0.31 0.32 0.31 0.30 0.30 0.30 0.26 0.26 0.26 0.27 0.26 0.23 0.23 0.24 0.24 0.22 0.19 0.17 0.17 0.16 0.16 0.16 0.18 0.18
0.38 0.37 0.33 0.30 0.24 0.25 0.25 0.33 0.23 0.23 0.19 0.20 0.22 0.19 0.18 0.18 0.20 0.24 0.18 0.22 0.22 0.27 0.27 0.26 0.25 0.26 0.25 0.27 0.30 0.31 0.31 0.29 0.28 0.28 0.28 0.28 0.29 0.28 0.27 0.27 0.26 0.25 0.24 0.25 0.26 0.24 0.20 0.18 0.17 0.17 0.18 0.18 0.18 0.18
0.36 0.29 0.24 0.23 0.23 0.21 0.27 0.23 0.25 0.23 0.24 0.21 0.18 0.16 0.17 0.18 0.21 0.19 0.17 0.20 0.23 0.26 0.25 0.25 0.26 0.24 0.25 0.25 0.24 0.26 0.30 0.32 0.31 0.30 0.29 0.28 0.27 0.27 0.28 0.28 0.28 0.28 0.27 0.27 0.28 0.27 0.23 0.18 0.17 0.18 0.18 0.17 0.17 0.16
0.20 0.23 0.24 0.20 0.24 0.20 0.20 0.21 0.21 0.20 0.18 0.20 0.17 0.17 0.18 0.21 0.16 0.16 0.16 0.19 0.22 0.22 0.23 0.24 0.23 0.23 0.22 0.23 0.25 0.27 0.31 0.32 0.30 0.29 0.32 0.31 0.29 0.29 0.29 0.30 0.30 0.30 0.31 0.29 0.28 0.27 0.23 0.19 0.18 0.17 0.17 0.17 0.16 0.15
0.16 0.22 0.21 0.20 0.21 0.18 0.17 0.15 0.16 0.17 0.19 0.18 0.19 0.21 0.21 0.18 0.15 0.14 0.17 0.20 0.21 0.23 0.23 0.23 0.22 0.22 0.23 0.26 0.25 0.26 0.30 0.33 0.33 0.31 0.33 0.34 0.33 0.31 0.30 0.29 0.28 0.30 0.33 0.31 0.29 0.28 0.25 0.20 0.18 0.17 0.16 0.16 0.16 0.15
0.16 0.18 0.22 0.27 0.24 0.24 0.21 0.22 0.21 0.18 0.16 0.15 0.16 0.16 0.16 0.13 0.14 0.17 0.22 0.24 0.24 0.26 0.27 0.26 0.26 0.25 0.25 0.27 0.30 0.32 0.34 0.36 0.34 0.34 0.36 0.36 0.37 0.36 0.34 0.30 0.28 0.30 0.33 0.32 0.32 0.30 0.27 0.23 0.19 0.17 0.17 0.16 0.16 0.15
0.22 0.22 0.18 0.20 0.21 0.23 0.18 0.18 0.17 0.16 0.18 0.21 0.19 0.15 0.15 0.14 0.14 0.19 0.22 0.26 0.27 0.29 0.28 0.29 0.30 0.30 0.30 0.31 0.32 0.33 0.34 0.36 0.36 0.37 0.38 0.37 0.38 0.38 0.37 0.35 0.34 0.34 0.34 0.34 0.33 0.33 0.30 0.27 0.24 0.21 0.18 0.16 0.16 0.17
0.22 0.25 0.24 0.19 0.20 0.20 0.18 0.17 0.18 0.21 0.24 0.22 0.19 0.17 0.17 0.20 0.21 0.22 0.24 0.26 0.28 0.29 0.28 0.29 0.31 0.33 0.34 0.34 0.34 0.34 0.35 0.34 0.32 0.29 0.29 0.29 0.31 0.33 0.37 0.36 0.35 0.34 0.34 0.34 0.34 0.34 0.32 0.29 0.27 0.24 0.22 0.20 0.20 0.19
0.23 0.27 0.22 0.20 0.18 0.16 0.19 0.22 0.21 0.24 0.25 0.24 0.22 0.20 0.20 0.20 0.22 0.25 0.25 0.27 0.27 0.28 0.29 0.29 0.30 0.30 0.29 0.30 0.30 0.31 0.34 0.35 0.35 0.32 0.29 0.29 0.31 0.34 0.35 0.35 0.35 0.35 0.35 0.34 0.33 0.32 0.32 0.30 0.28 0.25 0.23 0.22 0.21 0.20
0.26 0.27 0.24 0.23 0.21 0.23 0.24 0.27 0.28 0.29 0.28 0.27 0.28 0.25 0.23 0.24 0.26 0.27 0.27 0.27 0.28 0.28 0.28 0.27 0.28 0.29 0.28 0.28 0.28 0.29 0.29 0.33 0.34 0.35 0.36 0.35 0.35 0.35 0.35 0.35 0.35 0.35 0.34 0.33 0.32 0.30 0.29 0.27 0.26 0.24 0.22 0.21 0.20 0.20
0.22 0.22 0.21 0.20 0.22 0.26 0.28 0.26 0.26 0.25 0.26 0.25 0.24 0.25 0.24 0.23 0.21 0.23 0.26 0.26 0.25 0.25 0.26 0.26 0.26 0.26 0.28 0.30 0.31 0.32 0.32 0.32 0.33 0.34 0.34 0.34 0.34 0.35 0.35 0.34 0.34 0.33 0.31 0.29 0.29 0.28 0.28 0.27 0.26 0.25 0.23 0.22 0.21 0.20
0.22 0.23 0.22 0.21 0.21 0.22 0.25 0.25 0.23 0.23 0.23 0.22 0.22 0.22 0.21 0.20 0.19 0.22 0.25 0.26 0.25 0.24 0.24 0.25 0.26 0.27 0.28 0.28 0.29 0.30 0.31 0.32 0.33 0.34 0.34 0.34 0.34 0.33 0.33 0.33 0.32 0.31 0.30 0.29 0.28 0.28 0.27 0.25 0.24 0.23 0.22 0.21 0.19 0.17

GFSWCAN_prec_pwat_153.txt.gz
Precipitable_Water
0.39 0.38 0.36 0.34 0.33 0.36 0.43 0.46 0.48 0.48 0.49 0.52 0.54 0.54 0.51 0.42 0.41 0.46 0.41 0.50 0.41 0.31 0.29 0.29 0.28 0.23 0.24 0.24 0.20 0.26 0.30 0.33 0.30 0.24 0.20 0.21 0.23 0.22 0.23 0.25 0.23 0.22 0.23 0.24 0.28 0.24 0.18 0.35 0.33 0.25 0.31 0.38 0.39 0.40
0.36 0.34 0.33 0.36 0.41 0.45 0.47 0.48 0.50 0.55 0.57 0.58 0.59 0.62 0.60 0.56 0.49 0.49 0.40 0.49 0.52 0.38 0.33 0.39 0.34 0.32 0.29 0.27 0.30 0.31 0.23 0.25 0.31 0.27 0.27 0.28 0.25 0.31 0.26 0.18 0.29 0.24 0.28 0.27 0.30 0.26 0.34 0.38 0.35 0.40 0.41 0.39 0.41 0.41
0.35 0.38 0.40 0.44 0.45 0.48 0.50 0.54 0.57 0.58 0.58 0.58 0.59 0.59 0.61 0.61 0.61 0.52 0.43 0.46 0.46 0.37 0.33 0.32 0.30 0.36 0.38 0.34 0.32 0.34 0.37 0.36 0.37 0.37 0.29 0.30 0.27 0.33 0.26 0.25 0.28 0.31 0.36 0.27 0.27 0.33 0.35 0.38 0.43 0.45 0.45 0.43 0.46 0.45
0.39 0.40 0.43 0.46 0.49 0.53 0.55 0.57 0.57 0.58 0.59 0.59 0.60 0.59 0.60 0.60 0.60 0.61 0.51 0.49 0.43 0.36 0.27 0.26 0.36 0.31 0.37 0.35 0.35 0.40 0.43 0.50 0.48 0.45 0.33 0.30 0.26 0.37 0.32 0.32 0.29 0.31 0.32 0.29 0.31 0.37 0.40 0.43 0.44 0.45 0.45 0.49 0.48 0.44
0.38 0.43 0.47 0.51 0.54 0.57 0.57 0.57 0.58 0.59 0.60 0.61 0.62 0.63 0.62 0.60 0.61 0.60 0.56 0.56 0.54 0.37 0.27 0.28 0.36 0.34 0.35 0.36 0.35 0.37 0.39 0.43 0.41 0.37 0.38 0.34 0.40 0.38 0.38 0.35 0.28 0.31 0.30 0.28 0.28 0.40 0.38 0.41 0.47 0.51 0.49 0.46 0.42 0.35
0.42 0.47 0.51 0.54 0.57 0.56 0.57 0.58 0.60 0.60 0.62 0.63 0.67 0.66 0.64 0.63 0.62 0.54 0.40 0.54 0.60 0.55 0.36 0.25 0.37 0.35 0.39 0.42 0.41 0.37 0.32 0.36 0.38 0.39 0.38 0.39 0.44 0.40 0.31 0.27 0.32 0.37 0.39 0.42 0.38 0.45 0.46 0.49 0.53 0.50 0.40 0.34 0.30 0.27
0.47 0.50 0.55 0.57 0.56 0.57 0.58 0.60 0.60 0.62 0.63 0.65 0.64 0.65 0.65 0.65 0.60 0.44 0.36 0.44 0.58 0.58 0.38 0.28 0.26 0.38 0.42 0.40 0.42 0.42 0.45 0.40 0.33 0.32 0.33 0.38 0.39 0.45 0.36 0.27 0.35 0.41 0.44 0.42 0.45 0.46 0.44 0.48 0.42 0.42 0.39 0.30 0.28 0.29
0.50 0.54 0.57 0.56 0.57 0.57 0.58 0.61 0.62 0.62 0.64 0.64 0.65 0.65 0.64 0.64 0.61 0.49 0.54 0.53 0.58 0.48 0.43 0.29 0.28 0.33 0.42 0.35 0.34 0.45 0.39 0.43 0.42 0.39 0.40 0.36 0.41 0.40 0.29 0.36 0.41 0.44 0.44 0.44 0.46 0.49 0.48 0.47 0.43 0.39 0.35 0.25 0.24 0.24
0.54 0.56 0.56 0.56 0.57 0.56 0.60 0.62 0.62 0.62 0.62 0.64 0.63 0.60 0.58 0.53 0.45 0.48 0.59 0.59 0.57 0.45 0.31 0.29 0.25 0.24 0.43 0.37 0.39 0.40 0.41 0.31 0.42 0.36 0.37 0.39 0.35 0.30 0.36 0.38 0.41 0.43 0.42 0.43 0.47 0.48 0.46 0.41 0.37 0.33 0.27 0.22 0.21 0.22
0.57 0.57 0.56 0.55 0.56 0.55 0.56 0.58 0.60 0.61 0.63 0.63 0.58 0.44 0.37 0.49 0.62 0.58 0.49 0.41 0.41 0.43 0.43 0.32 0.38 0.30 0.40 0.37 0.36 0.36 0.39 0.33 0.28 0.34 0.41 0.34 0.32 0.40 0.43 0.46 0.46 0.47 0.46 0.45 0.40 0.38 0.38 0.35 0.30 0.25 0.21 0.22 0.24 0.25
0.56 0.56 0.55 0.54 0.54 0.53 0.53 0.54 0.56 0.56 0.58 0.50 0.43 0.41 0.52 0.60 0.48 0.43 0.34 0.33 0.34 0.30 0.37 0.38 0.38 0.35 0.44 0.32 0.32 0.38 0.33 0.33 0.26 0.30 0.30 0.29 0.29 0.37 0.45 0.45 0.48 0.47 0.47 0.45 0.43 0.42 0.37 0.30 0.24 0.20 0.21 0.24 0.25 0.23
0.55 0.54 0.54 0.53 0.52 0.52 0.53 0.55 0.53 0.49 0.47 0.48 0.50 0.55 0.52 0.42 0.35 0.29 0.29 0.33 0.30 0.27 0.36 0.36 0.38 0.41 0.40 0.41 0.33 0.35 0.29 0.29 0.23 0.34 0.27 0.24 0.32 0.40 0.43 0.44 0.45 0.45 0.44 0.41 0.40 0.33 0.28 0.24 0.22 0.23 0.24 0.24 0.22 0.20
0.55 0.53 0.53 0.53 0.51 0.52 0.52 0.54 0.53 0.52 0.52 0.46 0.40 0.36 0.35 0.35 0.25 0.23 0.21 0.24 0.25 0.32 0.35 0.35 0.35 0.39 0.38 0.38 0.33 0.31 0.26 0.24 0.32 0.26 0.22 0.26 0.35 0.39 0.38 0.40 0.39 0.40 0.36 0.32 0.26 0.24 0.23 0.24 0.26 0.26 0.24 0.22 0.19 0.16
0.55 0.54 0.54 0.52 0.50 0.51 0.52 0.51 0.49 0.45 0.42 0.32 0.29 0.25 0.27 0.25 0.27 0.28 0.26 0.28 0.34 0.34 0.35 0.37 0.35 0.33 0.35 0.30 0.29 0.24 0.28 0.28 0.23 0.20 0.21 0.28 0.33 0.35 0.34 0.31 0.29 0.26 0.25 0.23 0.23 0.24 0.24 0.25 0.25 0.24 0.21 0.18 0.15 0.13
0.55 0.54 0.52 0.50 0.49 0.47 0.48 0.49 0.46 0.42 0.35 0.30 0.32 0.25 0.28 0.34 0.36 0.37 0.38 0.36 0.38 0.41 0.37 0.34 0.33 0.32 0.29 0.26 0.26 0.25 0.22 0.20 0.20 0.19 0.26 0.31 0.34 0.32 0.31 0.31 0.29 0.27 0.26 0.24 0.25 0.25 0.25 0.25 0.23 0.20 0.17 0.15 0.13 0.12
0.54 0.52 0.50 0.48 0.45 0.44 0.44 0.42 0.40 0.39 0.40 0.36 0.35 0.31 0.35 0.33 0.33 0.35 0.36 0.36 0.41 0.38 0.36 0.34 0.27 0.25 0.24 0.24 0.21 0.19 0.18 0.16 0.21 0.28 0.31 0.31 0.30 0.31 0.30 0.29 0.29 0.27 0.27 0.27 0.27 0.26 0.25 0.23 0.20 0.16 0.15 0.13 0.12 0.12
0.52 0.46 0.48 0.45 0.43 0.41 0.41 0.38 0.37 0.35 0.34 0.33 0.33 0.38 0.36 0.36 0.35 0.36 0.37 0.36 0.39 0.32 0.27 0.24 0.19 0.20 0.26 0.21 0.20 0.24 0.21 0.25 0.28 0.31 0.31 0.30 0.29 0.28 0.29 0.29 0.28 0.27 0.27 0.27 0.27 0.25 0.23 0.22 0.18 0.14 0.11 0.12 0.12 0.13
0.45 0.47 0.47 0.45 0.43 0.40 0.39 0.38 0.35 0.36 0.32 0.35 0.32 0.35 0.37 0.38 0.36 0.36 0.37 0.37 0.32 0.31 0.26 0.22 0.26 0.21 0.20 0.18 0.19 0.24 0.25 0.29 0.31 0.31 0.29 0.31 0.31 0.31 0.31 0.29 0.27 0.26 0.25 0.26 0.26 0.24 0.21 0.19 0.15 0.12 0.11 0.12 0.13 0.13
0.46 0.47 0.44 0.42 0.40 0.39 0.34 0.36 0.38 0.30 0.32 0.36 0.36 0.36 0.35 0.34 0.37 0.38 0.36 0.35 0.34 0.33 0.29 0.26 0.21 0.19 0.22 0.25 0.26 0.27 0.27 0.28 0.26 0.28 0.31 0.32 0.32 0.31 0.30 0.29 0.26 0.25 0.26 0.25 0.23 0.21 0.21 0.18 0.13 0.11 0.11 0.12 0.12 0.12
0.46 0.43 0.41 0.39 0.39 0.33 0.30 0.32 0.38 0.33 0.30 0.33 0.33 0.27 0.26 0.26 0.29 0.29 0.28 0.27 0.26 0.24 0.21 0.20 0.21 0.24 0.25 0.28 0.30 0.29 0.30 0.29 0.28 0.25 0.26 0.28 0.30 0.29 0.28 0.26 0.26 0.26 0.25 0.23 0.22 0.22 0.20 0.16 0.13 0.12 0.11 0.12 0.12 0.11
0.39 0.38 0.37 0.31 0.29 0.31 0.30 0.28 0.29 0.31 0.29 0.26 0.25 0.19 0.17 0.21 0.18 0.18 0.19 0.24 0.21 0.21 0.21 0.25 0.26 0.29 0.31 0.31 0.32 0.32 0.31 0.30 0.29 0.28 0.26 0.25 0.28 0.28 0.28 0.29 0.28 0.26 0.24 0.23 0.22 0.21 0.21 0.16 0.13 0.12 0.12 0.12 0.13 0.13
0.36 0.38 0.31 0.28 0.23 0.25 0.24 0.27 0.23 0.24 0.21 0.21 0.20 0.19 0.15 0.14 0.15 0.17 0.21 0.16 0.19 0.22 0.24 0.24 0.25 0.27 0.27 0.27 0.30 0.33 0.33 0.32 0.32 0.32 0.32 0.31 0.28 0.28 0.27 0.27 0.27 0.26 0.25 0.23 0.23 0.22 0.22 0.20 0.16 0.14 0.13 0.12 0.14 0.16
0.37 0.34 0.28 0.25 0.19 0.20 0.21 0.29 0.20 0.21 0.16 0.17 0.19 0.16 0.16 0.17 0.19 0.23 0.17 0.20 0.21 0.25 0.26 0.25 0.25 0.26 0.27 0.29 0.30 0.30 0.32 0.31 0.29 0.30 0.30 0.30 0.31 0.30 0.29 0.29 0.29 0.26 0.24 0.24 0.25 0.24 0.23 0.23 0.20 0.17 0.15 0.14 0.15 0.16
0.36 0.28 0.23 0.21 0.22 0.19 0.23 0.20 0.23 0.21 0.21 0.19 0.16 0.15 0.16 0.18 0.21 0.18 0.15 0.19 0.22 0.25 0.25 0.25 0.25 0.24 0.25 0.25 0.25 0.28 0.29 0.30 0.29 0.30 0.30 0.29 0.28 0.28 0.29 0.29 0.29 0.28 0.27 0.26 0.26 0.26 0.25 0.25 0.24 0.19 0.16 0.15 0.16 0.16
0.21 0.23 0.23 0.20 0.24 0.21 0.19 0.19 0.19 0.19 0.17 0.18 0.16 0.15 0.17 0.20 0.16 0.16 0.15 0.18 0.21 0.21 0.22 0.24 0.24 0.24 0.23 0.23 0.26 0.27 0.31 0.31 0.29 0.28 0.30 0.30 0.29 0.29 0.29 0.29 0.29 0.29 0.30 0.28 0.27 0.27 0.26 0.27 0.25 0.21 0.18 0.17 0.16 0.16
0.16 0.22 0.20 0.20 0.22 0.19 0.19 0.17 0.18 0.19 0.19 0.18 0.18 0.19 0.20 0.17 0.15 0.14 0.16 0.19 0.20 0.21 0.22 0.23 0.22 0.22 0.22 0.25 0.24 0.25 0.28 0.32 0.31 0.29 0.32 0.33 0.31 0.30 0.28 0.26 0.27 0.29 0.32 0.31 0.29 0.28 0.27 0.27 0.26 0.22 0.20 0.18 0.17 0.16
0.15 0.17 0.22 0.28 0.25 0.24 0.21 0.22 0.22 0.19 0.17 0.16 0.18 0.17 0.16 0.13 0.13 0.16 0.21 0.22 0.22 0.24 0.26 0.26 0.25 0.24 0.25 0.26 0.29 0.31 0.33 0.34 0.32 0.32 0.35 0.35 0.35 0.35 0.33 0.31 0.30 0.32 0.35 0.34 0.32 0.30 0.28 0.28 0.26 0.25 0.23 0.21 0.19 0.17
0.20 0.21 0.17 0.21 0.21 0.22 0.18 0.18 0.17 0.16 0.17 0.19 0.17 0.13 0.13 0.12 0.13 0.17 0.20 0.24 0.26 0.27 0.27 0.27 0.28 0.28 0.28 0.28 0.30 0.31 0.32 0.34 0.35 0.35 0.36 0.36 0.37 0.37 0.38 0.37 0.37 0.36 0.36 0.35 0.34 0.33 0.31 0.30 0.28 0.27 0.26 0.24 0.23 0.22
0.20 0.23 0.22 0.18 0.19 0.18 0.18 0.18 0.18 0.20 0.23 0.21 0.16 0.15 0.15 0.17 0.19 0.20 0.22 0.24 0.27 0.26 0.25 0.25 0.26 0.29 0.30 0.31 0.32 0.33 0.34 0.33 0.30 0.27 0.27 0.28 0.30 0.33 0.38 0.38 0.36 0.36 0.36 0.35 0.35 0.34 0.33 0.32 0.31 0.30 0.28 0.27 0.25 0.23
0.21 0.26 0.21 0.19 0.18 0.17 0.19 0.21 0.20 0.23 0.24 0.23 0.22 0.20 0.19 0.19 0.21 0.23 0.23 0.23 0.23 0.23 0.24 0.26 0.28 0.28 0.28 0.28 0.28 0.30 0.33 0.34 0.33 0.31 0.29 0.29 0.31 0.35 0.36 0.36 0.36 0.36 0.35 0.34 0.33 0.33 0.33 0.32 0.31 0.29 0.28 0.26 0.25 0.23
0.25 0.25 0.22 0.20 0.18 0.20 0.22 0.24 0.25 0.24 0.23 0.21 0.21 0.18 0.18 0.19 0.21 0.23 0.24 0.25 0.25 0.26 0.26 0.26 0.27 0.28 0.27 0.27 0.27 0.27 0.28 0.32 0.33 0.34 0.34 0.34 0.35 0.35 0.35 0.35 0.36 0.36 0.35 0.34 0.32 0.31 0.30 0.29 0.28 0.27 0.25 0.24 0.23 0.22
0.22 0.22 0.21 0.20 0.20 0.24 0.25 0.23 0.22 0.21 0.21 0.21 0.21 0.23 0.23 0.22 0.20 0.22 0.25 0.25 0.24 0.24 0.25 0.25 0.25 0.26 0.28 0.29 0.29 0.30 0.31 0.31 0.32 0.33 0.33 0.34 0.34 0.34 0.34 0.34 0.34 0.34 0.33 0.32 0.31 0.30 0.29 0.27 0.26 0.26 0.25 0.25 0.24 0.23
0.21 0.22 0.22 0.21 0.21 0.21 0.24 0.24 0.22 0.21 0.22 0.21 0.21 0.22 0.21 0.20 0.18 0.21 0.24 0.25 0.24 0.24 0.25 0.25 0.26 0.27 0.28 0.28 0.28 0.29 0.30 0.31 0.32 0.33 0.33 0.33 0.33 0.33 0.33 0.32 0.32 0.31 0.30 0.29 0.28 0.28 0.27 0.26 0.26 0.25 0.25 0.24 0.23 0.22